     2              OBSERVATION DATA    GPS                 RINEX VERSION / TYPE
teqc 2000Feb29 simon 20000627 23:52:26UTC                   PGM / RUN BY / DATE
                                                            COMMENT
L2: 1 -> 1; 150 -> 5; 250 -> 9                              COMMENT
L2: 1 -> 1; 150 -> 5; 250 -> 9                              COMMENT
L2: 1 -> 1; 150 -> 5; 250 -> 9                              COMMENT
L2: 1 -> 1; 150 -> 5; 250 -> 9                              COMMENT
L2: 1 -> 1; 150 -> 5; 250 -> 9                              COMMENT
Original Marker Name: GS50                                  COMMENT
Campaign Name: China Lake April 2000                        COMMENT
4-Character Station Name: GS50                              COMMENT
6-Character Antenna Code: ASHGD3                            COMMENT
Vertical Measurement Point: TGP                             COMMENT
Vertical Offset to Rinex Ref. Point: 0.0640                 COMMENT
Radial Measurement Point: OOH                               COMMENT
Radial Offset to Rinex Ref. Point: 0.1737                   COMMENT
Antenna Height from Field Measurement: 1.1110 m             COMMENT
Additional Antenna Identification Info.:                    COMMENT
The Whopper (700718AB)                                      COMMENT
Original XYZ: -2420183.3500 -4631014.4400 3645825.6800      COMMENT
New XYZ position is based on association with SCEC monument COMMENT
E1F2Q5M8+0011. Position of that monument is believed to be  COMMENT
valid to within 1 m horizontally; vertical accuracy         COMMENT
should be no worse than 3-times this value.                 COMMENT
                                                            COMMENT
Revised Rinex header created by UCSD GPS archive for        COMMENT
GSAC on 14-Sep-2001 (2001:257) 19:32:29 GMT                 COMMENT
For assistance contact dagnew@ucsd.edu                      COMMENT
or anderson@python.ucsd.edu                                 COMMENT
                                                            COMMENT
NONE                                                        MARKER NAME
gs50                                                        MARKER NUMBER
___ US NATIONAL IMAGERY MAPPING AGENCY                      OBSERVER / AGENCY
480 ASHTECH Z-XII3 4J30                                     REC # / TYPE / VERS
111 ASHTECH GEODETIC III                                    ANT # / TYPE
 -2420440.8019 -4631558.2867  3645913.1934                  APPROX POSITION XYZ
        1.0333        0.0000        0.0000                  ANTENNA: DELTA H/E/N
     1     1     0                                          WAVELENGTH FACT L1/2
     7    L1    L2    C1    P1    P2    S1    S2            # / TYPES OF OBSERV
    30                                                      INTERVAL
  2000     5     3    15    13   30.000000                  TIME OF FIRST OBS
  2000     5     3    21    30   30.000000                  TIME OF LAST OBS
                                                            END OF HEADER
 00  5  3 15 13 30.0000000  0  6G 2G26G 4G 7G 8G 9
       297.04959       194.76857  18518576.182    18518576.300    18518586.173
       236.000         203.000
     35581.94659     22895.05156  20236889.953    20236891.754    20236902.996
       226.000         180.000
    -84650.61159    -42896.64756  19328164.595    19328165.126    19328176.115
       226.000         182.000
       294.81959       208.83557  17648129.288    17648129.705    17648138.497
       233.000         202.000
     30326.89053                  20508768.718
       213.000          74.000
    -84530.89959    -39108.19756  19840319.595    19840319.447    19840329.908
       227.000         180.000
 00  5  3 15 14 29.9990000  0  6G 2G26G 4G 7G 8G 9
      1217.99249       912.25847  21216884.177    21216883.735    21216893.737
       236.000         203.000
    104435.38649     76546.81646  22948125.914    22948126.438    22948137.455
       225.000         179.000
   -322174.61859   -227980.19346  21981097.958    21981098.303    21981108.939
       227.000         182.000
      1664.04749      1275.64447  20346522.745    20346522.392    20346531.258
       234.000         202.000
    234522.85549    161672.19055  23238979.562    23238979.229    23238991.482
       211.000         155.000
   -300968.11659   -207760.53946  22497265.427    22497265.210    22497275.527
       226.000         179.000
 00  5  3 15 14 59.9990000  0  6G 2G26G 4G 7G 8G 9
      1844.15349      1400.11447  21217003.459    21217002.919    21217012.885
       236.000         202.000
    139216.56149    103648.90546  22954744.770    22954745.154    22954756.096
       226.000         180.000
   -440709.63249   -320345.08546  21958541.553    21958541.788    21958552.370
       227.000         182.000
      2713.05749      2092.99447  20346722.500    20346722.059    20346730.882
       234.000         203.000
    318945.45759    227455.88845  23255044.904    23255044.613    23255056.561
       209.000         154.000
   -408917.26749   -291876.72946  22476723.337    22476723.063    22476733.434
       225.000         180.000
 00  5  3 15 15 29.9990000  0  6G 2G26G 4G 7G 8G 9
      2708.39149      2073.49247  21217168.023    21217167.408    21217177.307
       236.000         202.000
    174353.30049    131028.05246  22961431.207    22961431.501    22961442.417
       226.000         180.000
   -558949.60349   -412480.05446  21936041.307    21936041.473    21936051.989
       226.000         181.000
      4129.51549      3196.67247  20346992.196    20346991.657    20347000.445
       234.000         203.000
    403577.81449    293403.03145  23271150.069    23271149.779    23271161.538
       209.000         154.000
   -516544.81349   -375742.32446  22456242.413    22456242.142    22456252.557
       225.000         180.000
 00  5  3 15 15 59.9990000  0  6G 2G26G 4G 7G 8G 9
      3812.35549      2933.66747  21217378.202    21217377.519    21217387.404
       236.000         202.000
    209844.00149    158683.01346  22968185.006    22968185.227    22968196.132
       226.000         182.000
   -676890.02049   -504381.61946  21913597.974    21913598.144    21913608.633
       226.000         180.000
      5912.88849      4586.25847  20347331.672    20347331.061    20347339.855
       234.000         203.000
    488418.96149    359512.88545  23287294.849    23287294.533    23287306.368
       207.000         153.000
   -623847.06849   -459354.43346  22435823.410    22435823.138    22435833.610
       225.000         179.000
 00  5  3 15 16 29.9990000  0  6G 2G26G 4G 7G 8G 9
      5157.26849      3981.59047  21217634.193    21217633.484    21217643.353
       236.000         202.000
    245686.57749    186612.17146  22975005.772    22975005.925    22975016.807
       227.000         182.000
   -794527.31749   -596046.98546  21891212.311    21891212.486    21891222.967
       224.000         178.000
      8062.24349      6261.02747  20347740.756    20347740.105    20347748.908
       233.000         203.000
    573467.17749    425784.04245  23303479.047    23303478.690    23303490.646
       206.000         152.000
   -730821.15349   -542710.83046  22415466.828    22415466.593    22415477.144
       226.000         180.000
 00  5  3 15 16 59.9990000  0  6G 2G26G 4G 7G 8G 9
      6760.85049      5231.07047  21217939.455    21217938.680    21217948.547
       236.000         203.000
    281895.25849    214826.58846  22981896.216    22981896.277    22981907.161
       227.000         183.000
   -911841.25449   -687460.38046  21868888.220    21868888.352    21868898.848
       226.000         177.000
     10593.08849      8233.06247  20348222.410    20348221.733    20348230.572
       233.000         204.000
    658737.68149    492228.47145  23319705.525    23319705.186    23319717.197
       207.000         152.000
   -837447.58649   -625796.32946  22395176.430    22395176.222    22395186.823
       226.000         181.000
 00  5  3 15 17 29.9990000  0  6G 2G26G 4G 7G 8G 9
      8649.07849      6702.35347  21218298.852    21218298.045    21218307.903
       236.000         202.000
    318492.46349    243343.75346  22988860.636    22988860.605    22988871.466
       227.000         183.000
  -1028803.70849   -778599.89846  21846630.982    21846631.094    21846641.599
       225.000         176.000
     13528.98749     10520.72647  20348781.153    20348780.441    20348789.304
       234.000         204.000
    744253.29149    558863.85545  23335978.661    23335978.301    23335990.365
       205.000         151.000
   -943698.82149   -708589.46346  22374957.474    22374957.271    22374967.916
       226.000         181.000
 00  5  3 15 17 59.9990000  0  6G 2G26G 4G 7G 8G 9
     10818.10149      8392.43747  21218711.665    21218710.838    21218720.707
       235.000         202.000
    355470.92049    272157.99046  22995897.569    22995897.448    22995908.314
       227.000         183.000
  -1145415.94549   -869466.52346  21824440.345    21824440.473    21824451.009
       224.000         174.000
     16863.70649     13119.16447  20349415.785    20349415.051    20349423.932
       234.000         203.000
    830007.50149    625685.16445  23352297.318    23352296.740    23352308.957
       206.000         151.000
  -1049577.12749   -791092.01146  22354809.477    22354809.265    22354819.960
       226.000         182.000
 00  5  3 15 18 29.9990000  0  6G 2G26G 4G 7G 8G 9
     13274.29249     10306.28847  21219179.104    21219178.280    21219188.153
       235.000         202.000
    392833.64149    301271.66946  23003007.604    23003007.454    23003018.292
       227.000         182.000
  -1261669.21949   -960053.44746  21802317.999    21802318.158    21802328.683
       225.000         174.000
     20601.51049     16031.68747  20350127.084    20350126.354    20350135.253
       234.000         203.000
    916003.96449    692695.25045  23368661.931    23368661.345    23368673.665
       203.000         149.000
  -1155074.34349   -873297.59846  22334734.064    22334733.820    22334744.565
       227.000         183.000
 00  5  3 15 18 59.9990000  0  6G 2G26G 4G 7G 8G 9
     16023.74949     12448.64947  21219702.370    21219701.532    21219711.405
       236.000         202.000
    430583.47149    330686.97946  23010191.298    23010191.108    23010201.930
       227.000         183.000
  -1377554.89349  -1050353.93346  21780265.657    21780265.837    21780276.323
       224.000         176.000
     24746.38149     19261.41547  20350915.918    20350915.135    20350924.007
       234.000         203.000
   1002246.19549    759896.84045  23385073.308    23385072.723    23385085.185
       203.000         148.000
  -1260182.43849   -955199.98546  22314732.714    22314732.406    22314743.165
       227.000         184.000
 00  5  3 15 19 29.9990000  0  6G 2G26G 4G 7G 8G 9
     19059.53849     14814.14047  21220280.145    21220279.287    21220289.161
       235.000         203.000
    468709.77349    360395.64146  23017446.644    23017446.396    23017457.226
       227.000         183.000
  -1493077.43749  -1140371.46446  21758282.443    21758282.601    21758293.047
       225.000         174.000
     29288.88149     22800.97647  20351780.431    20351779.596    20351788.433
       235.000         203.000
   1088724.20949    827282.16345  23401529.544    23401528.897    23401541.496
       200.000         148.000
  -1364906.87249  -1036803.41346  22294804.298    22294804.005    22294814.788
       227.000         184.000
 00  5  3 15 19 59.9990000  0  6G 2G26G 4G 7G 8G 9
     22397.37749     17414.98747  21220915.405    21220914.512    21220924.413
       235.000         203.000
    507224.87849    390407.27046  23024775.984    23024775.675    23024786.526
       227.000         182.000
  -1608219.14049  -1230092.24646  21736371.730    21736371.881    21736382.269
       227.000         177.000
     34242.42749     26660.83847  20352723.160    20352722.298    20352731.098
       235.000         204.000
   1175450.69649    894861.09645  23418033.057    23418032.470    23418045.135
       200.000         147.000
  -1469230.05549  -1118094.17746  22274952.222    22274951.966    22274962.749
       227.000         184.000
 00  5  3 15 20 29.9990000  0  6G 2G26G 4G 7G 8G 9
     26032.28449     20247.31247  21221607.169    21221606.276    21221616.197
       235.000         203.000
    546120.40549    420715.33046  23032177.680    23032177.346    23032188.220
       227.000         182.000
  -1722981.95949  -1319517.79346  21714533.146    21714533.260    21714543.564
       227.000         178.000
     39600.12349     30835.62347  20353742.807    20353741.905    20353750.681
       235.000         204.000
   1262418.44149    962628.01445  23434582.570    23434581.909    23434594.765
       199.000         147.000
  -1573155.18649  -1199074.76446  22255175.918    22255175.685    22255186.479
       227.000         185.000
 00  5  3 15 20 59.9990000  0  6G 2G26G 4G 7G 8G 9
     29973.74849     23318.50847  21222357.263    21222356.379    21222366.299
       235.000         202.000
    585402.52149    451324.63046  23039652.915    23039652.588    23039663.470
       228.000         183.000
  -1837354.28849  -1408639.07046  21692768.840    21692768.922    21692779.219
       228.000         179.000
     45369.01449     35330.81947  20354840.686    20354839.760    20354848.528
       235.000         204.000
   1349634.06349   1030588.09345  23451179.124    23451178.538    23451191.444
       199.000         146.000
  -1676670.91549  -1279736.33446  22235477.525    22235477.283    22235488.083
       228.000         184.000
 00  5  3 15 21 29.9980000  0  6G 2G26G 4G 7G 8G 9
     34218.18449     26625.78647  21223164.995    21223164.125    21223174.041
       235.000         202.000
    625063.11949    482228.85646  23047200.246    23047199.880    23047210.751
       228.000         182.000
  -1951333.05049  -1497453.67146  21671079.404    21671079.474    21671089.769
       228.000         181.000
     51543.42149     40142.00647  20356015.672    20356014.759    20356023.552
       235.000         204.000
   1437088.34349   1098734.14145  23467821.293    23467820.620    23467833.617
       200.000         146.000
  -1779775.41549  -1360077.46346  22215857.418    22215857.161    22215867.971
       228.000         184.000
 00  5  3 15 21 59.9980000  0  6G 2G26G 4G 7G 8G 9
     38763.36449     30167.40347  21224029.975    21224029.104    21224039.024
       236.000         202.000
    665098.62649    513425.21946  23054818.950    23054818.522    23054829.387
       229.000         182.000
  -2064926.11649  -1585967.73446  21649463.334    21649463.429    21649473.721
       229.000         182.000
     58118.74549     45265.59647  20357266.925    20357266.026    20357274.861
       234.000         203.000
   1524781.89349   1167066.62545  23484509.045    23484508.308    23484521.230
       202.000         146.000
  -1882476.63149  -1440104.35746  22196314.033    22196313.763    22196324.543
       228.000         185.000
 00  5  3 15 22 29.9980000  0  6G 2G26G 4G 7G 8G 9
     43609.35749     33943.42547  21224952.248    21224951.345    21224961.260
       236.000         202.000
    705504.60549    544910.25346  23062508.142    23062507.659    23062518.514
       229.000         181.000
  -2178126.91649  -1674176.13646  21627921.942    21627922.040    21627932.334
       229.000         184.000
     65092.96349     50700.01047  20358594.062    20358593.192    20358602.057
       234.000         202.000
   1612709.25349   1235581.28645  23501241.329    23501240.449    23501253.248
       202.000         147.000
  -1984768.97949  -1519812.64546  22176848.461    22176848.171    22176858.929
       228.000         185.000
 00  5  3 15 22 59.9980000  0  6G 2G26G 4G 7G 8G 9
     48755.70949     37953.50647  21225931.667    21225930.745    21225940.656
       235.000         202.000
    746276.90049    576680.73246  23070266.961    23070266.503    23070277.342
       229.000         181.000
  -2290933.83649  -1762077.60746  21606455.478    21606455.578    21606465.926
       229.000         184.000
     72462.99249     56442.85147  20359996.484    20359995.668    20360004.577
       234.000         203.000
   1700866.90749   1304275.37045  23518017.258    23518016.418    23518029.172
       203.000         145.000
  -2086651.46249  -1599201.55546  22157460.891    22157460.579    22157471.330
       229.000         186.000
 00  5  3 15 23 29.9980000  0  7G 2G26G 4G24G 7G 8G 9
     54204.22849     42199.03647  21226968.546    21226967.625    21226977.543
       235.000         202.000
    787414.17149    608735.61746  23078095.232    23078094.786    23078105.629
       229.000         180.000
  -2403342.44949  -1849668.70146  21585064.799    21585064.903    21585075.308
       228.000         184.000
   -211148.11345                  24175385.060
       205.000         146.000
     80228.60449     62493.93647  20361474.270    20361473.456    20361482.366
       235.000         203.000
   1789254.15449   1373148.41145  23534836.966    23534836.143    23534848.709
       202.000         145.000
  -2188120.23449  -1678268.10346  22138152.056    22138151.721    22138162.448
       229.000         186.000
 00  5  3 15 23 59.9980000  0  7G 2G26G 4G24G 7G 8G 9
     59956.01449     46680.88147  21228063.156    21228062.225    21228072.153
       235.000         202.000
    828913.81749    641072.86946  23085992.447    23085992.034    23086002.897
       230.000         180.000
  -2515349.26549  -1936946.70746  21563750.591    21563750.675    21563761.128
       228.000         185.000
   -424568.66549   -313530.38945  24150382.442    24150382.329    24150397.903
       205.000         147.000
     88388.53449     68852.27947  20363027.169    20363026.313    20363035.193
       236.000         204.000
   1877869.18049   1442198.91945  23551700.124    23551699.157    23551711.712
       204.000         144.000
  -2289172.65049  -1757010.21646  22118922.397    22118922.082    22118932.793
       228.000         186.000
 00  5  3 15 24 29.9980000  0  7G 2G26G 4G24G 7G 8G 9
     66004.36649     51393.80847  21229214.169    21229213.243    21229223.189
       235.000         201.000
    870765.63849    673684.54446  23093956.730    23093956.300    23093967.199
       231.000         179.000
  -2626958.75649  -2023915.10946  21542512.003    21542512.085    21542522.536
       228.000         185.000
   -555913.99349   -415877.22545  24125388.409    24125388.303    24125403.828
       208.000         148.000
     96933.84449     75510.91647  20364653.436    20364652.526    20364661.369
       236.000         205.000
   1966702.47249   1511419.50945  23568604.782    23568603.740    23568616.199
       205.000         142.000
  -2389813.61049  -1835431.70246  22099771.028    22099770.738    22099781.448
       229.000         186.000
 00  5  3 15 24 59.9980000  0  7G 2G26G 4G24G 7G 8G 9
     72363.18349     56348.65347  21230424.300    21230423.357    21230433.309
       235.000         202.000
    912980.12249    706578.81546  23101990.022    23101989.576    23102000.530
       231.000         178.000
  -2738154.51449  -2110561.10646  21521352.096    21521352.210    21521362.692
       227.000         185.000
   -687198.12749   -518176.35245  24100405.922    24100405.355    24100421.609
       206.000         149.000
    105876.11249     82478.86647  20366355.236    20366354.283    20366363.078
       237.000         205.000
   2055765.18449   1580818.86845  23585553.070    23585551.998    23585564.197
       204.000         140.000
  -2490027.39249  -1913520.33246  22080700.952    22080700.659    22080711.404
       230.000         187.000
 00  5  3 15 25 29.9980000  0  7G 2G26G 4G24G 7G 8G 9
     79013.60549     61530.73747  21231689.911    21231688.960    21231698.925
       235.000         201.000
    955534.63849    739738.04946  23110087.983    23110087.534    23110098.534
       229.000         176.000
  -2848953.20849  -2196897.70946  21500267.779    21500267.908    21500278.375
       227.000         185.000
   -818438.11049   -620441.05645  24075431.796    24075431.449    24075447.493
       206.000         150.000
    115194.07849     89739.56647  20368128.523    20368127.530    20368136.296
       237.000         205.000
   2145035.46149   1650379.95945  23602540.836    23602539.843    23602551.889
       204.000         138.000
  -2589831.42649  -1991289.67346  22061708.853    22061708.557    22061719.344
       229.000         186.000
 00  5  3 15 25 59.9980000  0  7G 2G26G 4G24G 7G 8G 9
     85938.60849     66926.78047  21233007.744    21233006.808    21233016.796
       235.000         201.000
    998408.74149    773146.31746  23118246.757    23118246.325    23118257.333
       229.000         175.000
  -2959369.30349  -2282936.17546  21479256.284    21479256.414    21479266.850
       228.000         185.000
   -949648.97149   -722683.04345  24050463.168    24050462.795    24050478.711
       207.000         150.000
    124868.47849     97278.00447  20369969.560    20369968.576    20369977.336
       237.000         205.000
   2234493.62549   1720087.46645  23619564.402    23619563.415    23619575.313
       204.000         136.000
  -2689240.85849  -2068751.52946  22042791.850    22042791.547    22042802.343
       229.000         187.000
 00  5  3 15 26 29.9980000  0  7G 2G26G 4G24G 7G 8G 9
     93154.04149     72549.11947  21234380.826    21234379.910    21234389.921
       234.000         200.000
   1041614.96949    806813.39146  23126468.735    23126468.319    23126479.291
       228.000         171.000
  -3069384.66149  -2368662.37246  21458321.094    21458321.195    21458331.608
       228.000         184.000
  -1080812.77949   -824888.37045  24025503.463    24025503.059    24025518.980
       208.000         151.000
    134913.02249    105104.86447  20371880.984    20371880.027    20371888.804
       236.000         204.000
   2324152.72449   1789951.52645  23636626.220    23636625.125    23636636.882
       203.000         135.000
  -2788238.12649  -2145892.22446  22023953.302    22023952.983    22023963.782
       229.000         187.000
 00  5  3 15 26 59.9980000  0  7G 2G26G 4G24G 7G 8G 9
    100666.55249     78402.96747  21235810.415    21235809.528    21235819.559
       234.000         200.000
   1085156.25349    840741.52746  23134754.469    23134754.060    23134765.002
       228.000         171.000
  -3178990.34149  -2454069.33746  21437463.858    21437463.910    21437474.294
       228.000         184.000
  -1211921.10249   -927050.48245  24000554.306    24000553.932    24000569.830
       208.000         151.000
    145331.85049    113223.36747  20373863.616    20373862.688    20373871.497
       236.000         204.000
   2414016.46749   1859975.06745  23653726.921    23653725.767    23653737.357
       202.000         133.000
  -2886814.83049  -2222705.19847  22005194.757    22005194.466    22005205.221
       231.000         188.000
 00  5  3 15 27 29.9980000  0  7G 2G26G 4G24G 7G 8G 9
    108468.01049     84481.96447  21237295.055    21237294.142    21237304.191
       234.000         200.000
   1129021.11349    874921.82246  23143101.765    23143101.360    23143112.274
       227.000         170.000
  -3288191.98749  -2539161.47446  21416683.508    21416683.541    21416693.871
       228.000         184.000
  -1342979.79349  -1029173.90445  23975614.578    23975614.285    23975630.060
       207.000         152.000
    156114.90349    121625.68647  20375915.536    20375914.656    20375923.486
       236.000         203.000
   2504074.08049   1930149.69545  23670864.493    23670863.453    23670874.870
       203.000         133.000
  -2984977.43949  -2299195.50147  21986515.056    21986514.756    21986525.499
       230.000         188.000
 00  5  3 15 27 59.9980000  0  7G 2G26G 4G24G 7G 8G 9
    116556.71749     90784.79247  21238834.340    21238833.437    21238843.487
       234.000         200.000
   1173204.28849    909350.14146  23151509.626    23151509.233    23151520.128
       226.000         169.000
  -3396989.01149  -2623938.30946  21395980.121    21395980.138    21395990.462
       228.000         184.000
  -1473988.81249  -1131258.64145  23950684.269    23950684.020    23950699.771
       207.000         152.000
    167257.92449    130308.49647  20378035.991    20378035.138    20378043.974
       236.000         204.000
   2594321.18249   2000471.95545  23688038.138    23688037.139    23688048.428
       202.000         134.000
  -3082725.97049  -2375363.14647  21967914.152    21967913.811    21967924.518
       230.000         188.000
 00  5  3 15 28 29.9980000  0  7G 2G26G 4G24G 7G 8G 9
    124932.54949     97311.34547  21240428.287    21240427.356    21240437.416
       234.000         200.000
   1217702.09949    944023.62346  23159977.370    23159976.995    23159987.837
       225.000         169.000
  -3505378.99649  -2708397.96946  21375354.145    21375354.201    21375364.481
       228.000         184.000
  -1604946.30449  -1233303.25245  23925763.768    23925763.568    23925779.247
       209.000         152.000
    178758.67849    139270.03947  20380224.577    20380223.716    20380232.524
       237.000         204.000
   2684754.63149   2070939.44045  23705247.362    23705246.254    23705257.566
       202.000         134.000
  -3180058.84949  -2451206.90747  21949392.349    21949392.003    21949402.647
       231.000         188.000
 00  5  3 15 28 59.9980000  0  7G 2G26G 4G24G 7G 8G 9
    133593.76049    104060.27447  21242076.532    21242075.593    21242085.658
       234.000         200.000
   1262509.26849    978938.16346  23168503.986    23168503.619    23168514.449
       224.000         168.000
  -3613361.67149  -2792540.25046  21354805.658    21354805.743    21354816.023
       228.000         185.000
  -1735852.17449  -1335307.66745  23900853.046    23900852.940    23900868.585
       208.000         152.000
    190613.05149    148507.13047  20382480.529    20382479.604    20382488.378
       237.000         204.000
   2775369.69449   2141548.41645  23722491.110    23722489.782    23722501.343
       199.000         133.000
  -3276976.00649  -2526726.74047  21930949.654    21930949.293    21930959.893
       231.000         189.000
 00  5  3 15 29 29.9980000  0  7G 2G26G 4G24G 7G 8G 9
    142519.95749    111015.68547  21243775.241    21243774.274    21243784.325
       234.000         200.000
   1307601.91249   1014075.15146  23177084.942    23177084.578    23177095.426
       222.000         167.000
  -3720954.87549  -2876379.04146  21334331.288    21334331.397    21334341.674
       229.000         186.000
  -1866724.53449  -1437285.96145  23875948.768    23875948.698    23875964.300
       207.000         152.000
    202798.47149    158002.19947  20384799.450    20384798.495    20384807.235
       237.000         205.000
   2866143.63649   2212281.17845  23739765.041    23739763.717    23739775.346
       202.000         135.000
  -3373496.01849  -2601937.07547  21912582.501    21912582.137    21912592.719
       232.000         189.000
 00  5  3 15 29 59.9980000  0  7G 2G26G 4G24G 7G 8G 9
    151738.57449    118198.96047  21245529.587    21245528.598    21245538.658
       233.000         199.000
   1353003.78049   1049453.09646  23185724.731    23185724.357    23185735.248
       221.000         168.000
  -3828128.96649  -2959891.24946  21313936.703    21313936.790    21313947.104
       229.000         187.000
  -1997534.33749  -1539215.56845  23851056.403    23851056.308    23851071.878
       207.000         150.000
    215339.97449    167774.75447  20387186.098    20387185.141    20387193.862
       238.000         205.000
   2957100.63249   2283156.59745  23757073.872    23757072.363    23757084.239
       201.000         136.000
  -3469590.10549  -2676815.54447  21894296.415    21894296.059    21894306.564
       232.000         188.000
 00  5  3 15 30 29.9980000  0  7G 2G26G 4G24G 7G 8G 9
    161222.83849    125589.23347  21247334.469    21247333.466    21247343.521
       235.000         199.000
   1398684.61849   1085048.40846  23194417.620    23194417.214    23194428.123
       221.000         166.000
  -3934908.56849  -3043096.06647  21293617.109    21293617.253    21293627.610
       228.000         188.000
  -2128306.15249  -1641115.59645  23826171.259    23826171.160    23826186.691
       206.000         150.000
    228208.35549    177802.00547  20389634.960    20389633.976    20389642.711
       236.000         205.000
   3048211.35549   2354151.77145  23774411.959    23774410.418    23774422.375
       200.000         137.000
  -3565283.24449  -2751381.59047  21876086.628    21876086.283    21876096.703
       233.000         190.000
 00  5  3 15 30 59.9980000  0  7G 2G26G 4G24G 7G 8G 9
    171001.72449    133209.08247  21249195.397    21249194.406    21249204.460
       234.000         199.000
   1444669.87049   1120880.92846  23203168.390    23203167.998    23203178.957
       220.000         166.000
  -4041262.36749  -3125969.09447  21273378.578    21273378.751    21273389.149
       230.000         188.000
  -2259009.03949  -1742961.91045  23801299.256    23801299.166    23801314.610
       205.000         149.000
    241430.39849    188104.82547  20392151.081    20392150.122    20392158.852
       236.000         205.000
   3139501.63449   2425286.82045  23791784.080    23791782.587    23791794.552
       200.000         139.000
  -3660544.71649  -2825611.28447  21857958.963    21857958.609    21857968.967
       233.000         190.000
 00  5  3 15 31 29.9980000  0  7G 2G26G 4G24G 7G 8G 9
    181065.12349    141050.63147  21251110.474    21251109.481    21251119.541
       234.000         199.000
   1490945.86949   1156940.00346  23211974.491    23211974.128    23211985.120
       220.000         166.000
  -4147198.10149  -3208516.35347  21253219.672    21253219.826    21253230.220
       230.000         189.000
  -2389650.98749  -1844760.76645  23776438.873    23776438.730    23776454.141
       204.000         149.000
    254993.66949    198673.53947  20394732.111    20394731.169    20394739.934
       236.000         205.000
   3230958.74149   2496551.88745  23809187.915    23809186.573    23809198.574
       199.000         140.000
  -3755383.03949  -2899511.24847  21839911.762    21839911.463    21839921.804
       233.000         191.000
 00  5  3 15 31 59.9980000  0  7G 2G26G 4G24G 7G 8G 9
    191407.37149    149109.46447  21253078.620    21253077.618    21253087.681
       234.000         199.000
   1537503.50249   1193218.53146  23220834.253    23220833.864    23220844.868
       220.000         165.000
  -4252718.75349  -3290740.17747  21233139.760    21233139.890    21233150.281
       231.000         189.000
  -2520235.65249  -1946514.98045  23751589.380    23751589.253    23751604.569
       203.000         146.000
    268890.46749    209502.14347  20397376.617    20397375.698    20397384.477
       236.000         205.000
   3322574.41249   2567940.53845  23826621.906    23826620.649    23826632.748
       198.000         140.000
  -3849801.99449  -2973084.41847  21821944.426    21821944.118    21821954.462
       233.000         191.000
 00  5  3 15 32 29.9980000  0  7G 2G26G 4G24G 7G 8G 9
    202036.43549    157391.79147  21255101.327    21255100.338    21255110.413
       234.000         199.000
   1584347.15849   1229719.94846  23229748.413    23229748.004    23229759.047
       220.000         166.000
  -4357814.30749  -3372632.76647  21213140.698    21213140.834    21213151.225
       232.000         189.000
  -2650753.06649  -2048216.81645  23726752.652    23726752.526    23726767.811
       204.000         145.000
    283126.51249    220595.10247  20400085.689    20400084.780    20400093.595
       237.000         206.000
   3414353.70049   2639456.66545  23844086.990    23844085.866    23844097.998
       199.000         142.000
  -3943792.00049  -3046323.35947  21804058.653    21804058.387    21804068.740
       233.000         191.000
 00  5  3 15 32 59.9980000  0  7G 2G26G 4G24G 7G 8G 9
    212953.90249    165898.84647  21257178.926    21257177.942    21257188.022
       234.000         199.000
   1631475.03049   1266442.80546  23238716.704    23238716.251    23238727.270
       220.000         165.000
  -4462481.12349  -3454191.27347  21193223.228    21193223.374    21193233.743
       231.000         189.000
  -2781199.52849  -2149863.35245  23701929.454    23701929.365    23701944.565
       201.000         144.000
    297701.02749    231951.79747  20402859.181    20402858.270    20402867.104
       236.000         206.000
   3506295.45049   2711099.36945  23861582.989    23861581.866    23861594.166
       200.000         143.000
  -4037349.84749  -3119225.56147  21786255.174    21786254.909    21786265.252
       233.000         192.000
 00  5  3 15 33 29.9980000  0  7G 2G26G 4G24G 7G 8G 9
    224147.70949    174621.22747  21259309.075    21259308.119    21259318.216
       234.000         199.000
   1678871.28749   1303374.81746  23247736.016    23247735.581    23247746.566
       220.000         164.000
  -4566728.64249  -3535423.06447  21173385.578    21173385.713    21173396.051
       231.000         189.000
  -2911584.98449  -2251462.34445  23677117.884    23677117.761    23677132.895
       201.000         142.000
    312599.80549    243561.16247  20405694.385    20405693.463    20405702.338
       237.000         206.000
   3598384.84549   2782857.09645  23879107.131    23879106.033    23879118.503
       199.000         143.000
  -4130485.69749  -3191798.90147  21768531.998    21768531.725    21768542.064
       233.000         192.000
 00  5  3 15 33 59.9980000  0  7G 2G26G 4G24G 7G 8G 9
    235625.92349    183565.21847  21261493.329    21261492.408    21261502.514
       234.000         199.000
   1726540.49249   1340519.50246  23256807.256    23256806.843    23256817.817
       220.000         165.000
  -4670546.81549  -3616320.30747  21153629.651    21153629.788    21153640.064
       232.000         190.000
  -3041899.49949  -2353006.08245  23652319.863    23652319.634    23652334.707
       202.000         140.000
    327828.38649    255427.52547  20408592.371    20408591.442    20408600.342
       237.000         206.000
   3690627.00349   2854733.87145  23896660.384    23896659.285    23896671.845
       199.000         145.000
  -4223189.97549  -3264035.97047  21750890.936    21750890.659    21750901.009
       233.000         192.000
 00  5  3 15 34 29.9980000  0  7G 2G26G 4G24G 7G 8G 9
    247398.20849    192738.35147  21263733.580    21263732.656    21263742.784
       234.000         199.000
   1774488.75749   1377881.64846  23265931.623    23265931.201    23265942.233
       220.000         165.000
  -4773923.48849  -3696873.52047  21133957.769    21133957.844    21133968.093
       232.000         190.000
  -3172131.25949  -2454485.31845  23627537.523    23627537.344    23627552.253
       202.000         138.000
    343394.26049    267556.72347  20411554.576    20411553.609    20411562.500
       237.000         207.000
   3783028.68849   2926734.97345  23914243.976    23914242.915    23914255.518
       200.000         146.000
  -4315451.26749  -3335927.85747  21733334.188    21733333.904    21733344.248
       233.000         192.000
 00  5  3 15 34 59.9980000  0  7G 2G26G 4G24G 7G 8G 9
    259461.76449    202138.44947  21266029.296    21266028.353    21266038.466
       234.000         199.000
   1822709.81349   1415456.35746  23275107.884    23275107.492    23275118.589
       220.000         166.000
  -4876859.38049  -3777083.28147  21114369.716    21114369.794    21114379.993
       232.000         190.000
  -3302281.03849  -2555900.66045  23602770.799    23602770.544    23602785.456
       201.000         139.000
    359292.47349    279944.88347  20414579.990    20414579.026    20414587.898
       237.000         207.000
   3875584.51049   2998856.20645  23931856.993    23931855.826    23931868.462
       201.000         146.000
  -4407270.76249  -3407475.49747  21715861.475    21715861.217    21715871.565
       233.000         192.000
 00  5  3 15 35 29.9980000  0  8G 2G26G 4G24G 5G 7G 8G 9
    271829.79549    211775.80047  21268382.949    21268381.979    21268392.080
       234.000         199.000
   1871213.28349   1453251.13146  23284337.903    23284337.518    23284348.663
       221.000         168.000
  -4979338.83449  -3856937.37147  21094868.496    21094868.576    21094878.775
       231.000         190.000
  -3432333.50049  -2657240.16845  23578022.585    23578022.378    23578037.098
       203.000         139.000
  -1381822.89358  -1063557.09554  24683354.405    24683353.742    24683367.669
       191.000         127.000
    375533.87049    292600.45647  20417670.725    20417669.742    20417678.598
       237.000         207.000
   3968304.74049   3071105.49345  23949501.191    23949500.105    23949512.792
       202.000         148.000
  -4498633.71149  -3478667.37147  21698475.637    21698475.402    21698485.747
       233.000         192.000
 00  5  3 15 35 59.9980000  0  8G 2G26G 4G24G 5G 7G 8G 9
    284470.76749    221625.82947  21270788.502    21270787.537    21270797.631
       234.000         199.000
   1919964.13249   1491238.64946  23293615.007    23293614.586    23293625.806
       220.000         168.000
  -5081391.24049  -3936458.71147  21075448.522    21075448.633    21075458.788
       232.000         191.000
  -3562318.17649  -2758526.83045  23553287.282    23553287.165    23553301.819
       204.000         138.000
  -1486211.35748  -1144898.95144  24663489.848    24663489.158    24663503.317
       187.000         126.000
    392084.74649    305497.18447  20420820.302    20420819.321    20420828.201
       237.000         207.000
   4061155.17049   3143456.25645  23967170.186    23967169.056    23967181.819
       204.000         150.000
  -4589569.63649  -3549526.51047  21681171.115    21681170.862    21681181.188
       233.000         192.000
 00  5  3 15 36 29.9980000  0  8G 2G26G 4G24G 5G 7G 8G 9
    297401.15649    231701.37947  21273249.125    21273248.171    21273258.269
       234.000         198.000
   1968975.05949   1529428.82446  23302941.574    23302941.160    23302952.429
       222.000         170.000
  -5182998.13949  -4015632.89547  21056113.365    21056113.452    21056123.593
       232.000         191.000
  -3692216.52649  -2859746.23845  23528568.460    23528568.345    23528582.866
       205.000         139.000
  -1590583.67458  -1226228.16754  24643628.379    24643627.860    24643641.944
       180.000         125.000
    408959.16449    318646.02147  20424031.416    20424030.462    20424039.377
       237.000         206.000
   4154149.17849   3215918.86045  23984866.494    23984865.353    23984878.263
       203.000         150.000
  -4680060.60749  -3620038.92647  21663951.253    21663951.003    21663961.309
       233.000         192.000
 00  5  3 15 36 59.9980000  0  8G 2G26G 4G24G 5G 7G 8G 9
    310613.75649    241996.82847  21275763.458    21275762.496    21275772.617
       234.000         198.000
   2018235.37449   1567813.33146  23312315.630    23312315.216    23312326.536
       223.000         172.000
  -5284164.14149  -4094463.52247  21036862.106    21036862.179    21036872.293
       231.000         191.000
  -3822033.72949  -2960902.38045  23503865.057    23503864.811    23503879.369
       206.000         139.000
  -1694946.94149  -1307550.33945  24623769.090    24623768.340    24623782.229
       201.000         135.000
    426147.65749    332039.58847  20427302.307    20427301.378    20427310.287
       237.000         207.000
   4247277.02849   3288485.87945  24002588.292    24002587.127    24002600.120
       204.000         151.000
  -4770112.13349  -3690208.92247  21646814.994    21646814.746    21646825.041
       233.000         192.000
 00  5  3 15 37 29.9980000  0  8G 2G26G 4G24G 5G 7G 8G 9
    324112.11349    252514.94847  21278332.114    21278331.171    21278341.338
       234.000         197.000
   2067745.15649   1606392.21746  23321737.107    23321736.739    23321748.125
       223.000         174.000
  -5384883.79049  -4172946.35347  21017695.735    21017695.851    21017705.954
       231.000         192.000
  -3951764.13949  -3061990.93545  23479178.187    23479177.954    23479192.392
       205.000         140.000
  -1799297.96249  -1388863.02345  24603912.219    24603911.265    24603925.183
       203.000         139.000
    443651.72349    345679.07547  20430633.268    20430632.338    20430641.264
       237.000         207.000
   4340539.46549   3361157.69045  24020335.642    24020334.490    24020347.645
       203.000         151.000
  -4859719.00849  -3760032.43347  21629763.325    21629763.085    21629773.395
       232.000         192.000
 00  5  3 15 37 59.9980000  0  8G 2G26G 4G24G 5G 7G 8G 9
    337900.41749    263258.99647  21280955.963    21280955.063    21280965.249
       234.000         198.000
   2117505.06449   1645165.99946  23331206.229    23331205.838    23331217.290
       224.000         175.000
  -5485150.53949  -4251076.27147  20998615.620    20998615.719    20998625.799
       232.000         192.000
  -4081401.23249  -3163006.75445  23454508.953    23454508.844    23454523.137
       208.000         142.000
  -1903632.85549  -1470163.12945  24584058.419    24584057.249    24584070.995
       205.000         142.000
    461473.33349    359566.00547  20434024.649    20434023.725    20434032.661
       237.000         206.000
   4433937.72849   3433935.31645  24038108.865    24038107.687    24038121.011
       203.000         151.000
  -4948875.52849  -3829505.01547  21612797.355    21612797.128    21612807.469
       233.000         193.000
 00  5  3 15 38 29.9980000  0  8G 2G26G 4G24G 5G 7G 8G 9
    351980.92949    274230.74447  21283635.459    21283634.550    21283644.767
       233.000         197.000
   2167513.73149   1684133.62746  23340722.717    23340722.284    23340733.793
       225.000         175.000
  -5584959.99449  -4328849.85547  20979622.539    20979622.602    20979632.656
       233.000         192.000
  -4210940.83749  -3263946.60145  23429858.281    23429858.256    23429872.499
       209.000         143.000
  -2007950.14949  -1551449.51845  24564207.820    24564206.558    24564220.179
       209.000         142.000
    479612.26949    373700.19447  20437476.395    20437475.480    20437484.429
       237.000         206.000
   4527471.34049   3506818.41545  24055907.849    24055906.701    24055920.125
       204.000         152.000
  -5037577.92049  -3898623.74347  21595917.851    21595917.614    21595927.968
       233.000         194.000
 00  5  3 15 38 59.9980000  0  8G 2G26G 4G24G 5G 7G 8G 9
    366348.40449    285426.09147  21286369.548    21286368.641    21286378.880
       233.000         197.000
   2217762.34449   1723288.22146  23350284.838    23350284.408    23350295.984
       226.000         176.000
  -5684315.08449  -4406269.38747  20960715.916    20960715.974    20960725.973
       233.000         192.000
  -4340386.34149  -3364813.10945  23405225.518    23405225.545    23405239.715
       211.000         143.000
  -2112255.24349  -1632726.39245  24544359.495    24544358.176    24544371.680
       210.000         143.000
    498061.06449    388075.81947  20440987.098    20440986.202    20440995.172
       237.000         206.000
   4621132.22849   3579800.71645  24073731.058    24073729.969    24073743.365
       205.000         151.000
  -5125829.55349  -3967391.21247  21579124.093    21579123.852    21579134.229
       233.000         194.000
 00  5  3 15 39 29.9980000  0  8G 2G26G 4G24G 5G 7G 8G 9
    380990.24149    296835.24147  21289155.892    21289154.957    21289165.206
       234.000         197.000
   2268234.60549   1762617.08846  23359889.525    23359889.080    23359900.729
       226.000         176.000
  -5783226.30249  -4483343.04647  20941893.743    20941893.795    20941903.760
       233.000         192.000
  -4469748.10349  -3465614.39345  23380608.787    23380608.753    23380622.884
       212.000         146.000
  -2216560.80349  -1714003.61845  24524511.068    24524509.686    24524523.173
       210.000         144.000
    516804.91849    402681.39047  20444553.958    20444553.074    20444562.070
       237.000         206.000
   4714904.99149   3652870.15645  24091575.522    24091574.478    24091587.999
       204.000         151.000
  -5213641.61049  -4035816.15847  21562413.995    21562413.754    21562424.122
       233.000         194.000
 00  5  3 15 39 59.9980000  0  8G 2G26G 4G24G 5G 7G 8G 9
    395929.40849    308476.07347  21291998.794    21291997.845    21292008.112
       233.000         197.000
   2318950.18549   1802135.57446  23369540.487    23369540.049    23369551.799
       225.000         176.000
  -5881668.60449  -4560051.31247  20923160.800    20923160.846    20923170.787
       233.000         192.000
  -4599000.86049  -3566330.71145  23356012.784    23356012.674    23356026.809
       215.000         148.000
  -2320844.17349  -1795263.56945  24504666.770    24504665.380    24504678.884
       210.000         141.000
    535864.55649    417533.01347  20448180.925    20448180.047    20448189.065
       237.000         206.000
   4808809.68349   3726042.39845  24109445.156    24109444.085    24109457.732
       203.000         150.000
  -5300989.23549  -4103879.21847  21545792.320    21545792.046    21545802.370
       233.000         194.000
 00  5  3 15 40 29.9980000  0  8G 2G26G 4G24G 5G 7G 8G 9
    411148.70949    320335.18747  21294894.994    21294894.045    21294904.333
       233.000         196.000
   2369888.40249   1841827.53746  23379233.806    23379233.382    23379245.199
       226.000         176.000
  -5979656.88449  -4636405.78647  20904514.263    20904514.286    20904524.231
       233.000         193.000
  -4728159.60549  -3666973.79145  23331434.666    23331434.522    23331448.718
       216.000         150.000
  -2425122.75549  -1876519.80345  24484823.440    24484822.080    24484835.335
       211.000         137.000
    555220.78849    432615.75147  20451864.334    20451863.453    20451872.490
       237.000         206.000
   4902826.68349   3799302.18045  24127336.180    24127335.051    24127348.811
       205.000         151.000
  -5387887.96649  -4171592.47347  21529256.056    21529255.769    21529266.052
       233.000         195.000
 00  5  3 15 40 59.9980000  0  8G 2G26G 4G24G 5G 7G 8G 9
    426675.30549    332433.75747  21297849.649    21297848.717    21297859.011
       233.000         196.000
   2421072.94449   1881711.44246  23388973.998    23388973.612    23388985.443
       224.000         174.000
  -6077161.57849  -4712383.43747  20885959.742    20885959.756    20885969.684
       234.000         194.000
  -4857195.21549  -3767520.91945  23306879.916    23306879.780    23306894.013
       216.000         152.000
  -2529369.56249  -1957751.26545  24464986.078    24464984.840    24464997.805
       214.000         135.000
    574898.49849    447948.99147  20455608.883    20455608.016    20455617.083
       237.000         206.000
   4996980.24149   3872668.23945  24145253.144    24145252.027    24145265.865
       204.000         143.000
  -5474308.91149  -4238933.42947  21512810.723    21512810.418    21512820.663
       233.000         195.000
 00  5  3 15 41 29.9980000  0  8G 2G26G 4G24G 5G 7G 8G 9
    442501.64449    344765.89947  21300861.357    21300860.429    21300870.729
       232.000         196.000
   2472492.59749   1921778.54046  23398758.954    23398758.578    23398770.413
       223.000         174.000
  -6174188.38549  -4787988.70447  20867496.142    20867496.146    20867506.082
       233.000         194.000
  -4986112.97449  -3867976.19645  23282347.612    23282347.438    23282361.724
       217.000         154.000
  -2633592.74549  -2038964.29644  24445153.247    24445151.929    24445164.879
       208.000         129.000
    594887.91449    463525.11347  20459412.802    20459411.916    20459420.979
       237.000         206.000
   5091260.06049   3946132.82145  24163194.157    24163193.102    24163206.924
       204.000         145.000
  -5560258.22749  -4305906.87047  21496455.091    21496454.787    21496465.000
       233.000         196.000
 00  5  3 15 41 59.9980000  0  8G 2G26G 4G24G 5G 7G 8G 9
    458614.00549    357320.91547  21303927.504    21303926.566    21303936.889
       233.000         196.000
   2524130.10549   1962015.40346  23408585.379    23408584.989    23408596.855
       223.000         173.000
  -6270748.73249  -4863230.49147  20849121.290    20849121.315    20849131.236
       234.000         194.000
  -5114924.44749  -3968348.68845  23257835.511    23257835.382    23257849.619
       217.000         155.000
  -2737806.08949  -2120169.65245  24425322.254    24425320.986    24425333.811
       210.000         132.000
    615173.07849    479331.68847  20463272.996    20463272.110    20463281.162
       238.000         206.000
   5185649.74449   4019683.00945  24181156.066    24181154.993    24181168.876
       205.000         146.000
  -5645747.88749  -4372522.14847  21480186.940    21480186.645    21480196.810
       234.000         196.000
 00  5  3 15 42 29.9980000  0  8G 2G26G 4G24G 5G 7G 8G 9
    475016.10149    370101.69047  21307048.767    21307047.835    21307058.218
       233.000         196.000
   2575985.60649   2002422.13046  23418453.288    23418452.891    23418464.808
       223.000         172.000
  -6366836.73549  -4938104.22247  20830836.329    20830836.363    20830846.293
       234.000         194.000
  -5243623.87349  -4068633.84545  23233344.757    23233344.649    23233358.904
       218.000         157.000
  -2842006.32749  -2201364.77844  24405493.630    24405492.469    24405505.460
       207.000         130.000
    635755.42049    495369.83047  20467189.777    20467188.867    20467197.876
       238.000         206.000
   5280150.07049   4093319.42745  24199139.020    24199137.935    24199151.973
       200.000         143.000
  -5730772.79249  -4438775.27547  21464007.245    21464006.913    21464017.078
       233.000         196.000
 00  5  3 15 42 59.9980000  0  8G 2G26G 4G24G 5G 7G 8G 9
    491699.73249    383101.85147  21310223.619    21310222.678    21310233.103
       232.000         196.000
   2628047.06249   2042989.33246  23428360.416    23428359.954    23428371.929
       222.000         172.000
  -6462458.98249  -5012615.02547  20812639.976    20812640.039    20812649.971
       234.000         195.000
  -5372217.47249  -4168836.51445  23208874.110    23208873.994    23208888.270
       218.000         159.000
  -2946201.88749  -2282556.26444  24385665.954    24385664.792    24385677.919
       208.000         129.000
    656624.39949    511631.31747  20471161.101    20471160.171    20471169.142
       238.000         206.000
   5374750.04749   4167033.50345  24217140.925    24217139.905    24217154.019
       200.000         141.000
  -5815339.61949  -4504671.46547  21447914.662    21447914.370    21447924.529
       233.000         196.000
 00  5  3 15 43 29.9980000  0  8G 2G26G 4G24G 5G 7G 8G 9
    508681.23249    396334.11447  21313455.133    21313454.192    21313464.667
       232.000         196.000
   2680327.65449   2083727.28046  23438309.195    23438308.734    23438320.763
       222.000         172.000
  -6557596.40249  -5086748.01747  20794535.863    20794535.970    20794545.906
       234.000         194.000
  -5500686.54849  -4268942.18545  23184427.190    23184427.051    23184441.344
       216.000         161.000
  -3050376.56249  -2363731.46445  24365842.240    24365841.154    24365854.289
       209.000         133.000
    677794.43349    528127.40147  20475189.718    20475188.755    20475197.699
       238.000         206.000
   5469463.34849   4240835.84345  24235164.450    24235163.440    24235177.512
       199.000         139.000
  -5899430.00649  -4570196.38847  21431912.753    21431912.477    21431922.641
       233.000         196.000
 00  5  3 15 43 59.9980000  0  8G 2G26G 4G24G 5G 7G 8G 9
    525952.53049    409792.19547  21316741.790    21316740.876    21316751.374
       232.000         196.000
   2732815.81849   2124626.98146  23448297.462    23448297.029    23448309.087
       221.000         171.000
  -6652255.32149  -5160508.14847  20776522.839    20776522.943    20776532.891
       234.000         195.000
  -5629037.10949  -4368955.51845  23160002.831    23160002.642    23160016.943
       217.000         160.000
  -3154538.90749  -2444897.06445  24346020.752    24346019.693    24346033.088
       205.000         135.000
    699255.18849    544850.01347  20479273.612    20479272.662    20479281.589
       238.000         206.000
   5564278.96149   4314717.96745  24253207.442    24253206.368    24253220.537
       198.000         138.000
  -5983050.84449  -4635355.44147  21416000.188    21415999.937    21416010.110
       233.000         196.000
 00  5  3 15 44 29.9980000  0  8G 2G26G 4G24G 5G 7G 8G 9
    543507.92849    423471.66147  21320082.494    21320081.591    21320092.153
       232.000         195.000
   2785502.11949   2165681.08046  23458323.463    23458323.017    23458335.113
       221.000         170.000
  -6746439.31249  -5233898.21547  20758600.207    20758600.312    20758610.240
       234.000         194.000
  -5757272.48049  -4468879.04545  23135600.367    23135600.180    23135614.506
       218.000         161.000
  -3258694.58949  -2526057.42845  24326200.736    24326199.663    24326213.108
       207.000         135.000
    720998.57449    561792.86047  20483411.247    20483410.327    20483419.249
       237.000         205.000
   5659188.54449   4388673.29345  24271268.349    24271267.295    24271281.496
       197.000         136.000
  -6066206.05249  -4700151.66647  21400176.201    21400175.979    21400186.187
       233.000         196.000
 00  5  3 15 44 59.9980000  0  8G 2G26G 4G24G 5G 7G 8G 9
    561347.17849    437372.30147  21323477.229    21323476.333    21323486.963
       231.000         196.000
   2838382.70149   2206886.55946  23468386.476    23468386.009    23468398.120
       221.000         171.000
  -6840146.51949  -5306916.75747  20740768.282    20740768.383    20740778.317
       234.000         194.000
  -5885391.20849  -4568711.72045  23111220.076    23111219.948    23111234.253
       217.000         161.000
  -3362844.25049  -2607213.10045  24306381.863    24306380.736    24306394.280
       206.000         136.000
    743022.25749    578954.12047  20487602.233    20487601.323    20487610.267
       237.000         206.000
   5754188.92549   4462699.37945  24289346.563    24289345.439    24289359.603
       196.000         134.000
  -6148894.59649  -4764584.25747  21384440.994    21384440.824    21384451.093
       233.000         197.000
 00  5  3 15 45 29.9980000  0  8G 2G26G 4G24G 5G 7G 8G 9
    579478.73849    451500.72347  21326927.598    21326926.703    21326937.400
       232.000         196.000
   2891462.70249   2248247.43946  23478487.478    23478486.926    23478499.078
       221.000         170.000
  -6933366.41349  -5379555.57147  20723029.067    20723029.199    20723039.130
       234.000         195.000
  -6013382.25249  -4668444.89345  23086864.096    23086863.961    23086878.278
       215.000         161.000
  -3466979.67449  -2688357.70745  24286565.714    24286564.549    24286578.089
       204.000         137.000
    765332.53349    596338.70147  20491847.726    20491846.846    20491855.832
       237.000         206.000
   5849285.86148   4536800.69444  24307443.052    24307441.863    24307456.023
       194.000         131.000
  -6231105.87449  -4828644.95547  21368796.679    21368796.501    21368806.803
       233.000         197.000
 00  5  3 15 45 59.9980000  0  8G 2G26G 4G24G 5G 7G 8G 9
    597904.42449    465858.33147  21330433.945    21330433.029    21330443.787
       232.000         195.000
   2944740.38349   2289762.34546  23488626.025    23488625.469    23488637.657
       220.000         171.000
  -7026094.93949  -5451811.49547  20705383.349    20705383.493    20705393.425
       233.000         194.000
  -6141241.54149  -4768075.42645  23062533.166    23062533.094    23062547.369
       215.000         162.000
  -3571098.95249  -2769489.70245  24266752.493    24266751.371    24266765.016
       203.000         136.000
    787929.21249    613946.44247  20496147.724    20496146.857    20496155.901
       237.000         206.000
   5944478.82248   4610976.88244  24325557.837    24325556.549    24325570.804
       191.000         128.000
  -6312836.74449  -4892331.31847  21353243.810    21353243.614    21353253.933
       234.000         197.000
 00  5  3 15 46 29.9980000  0  8G 2G26G 4G24G 5G 7G 8G 9
    616606.12149    480431.01347  21333992.726    21333991.865    21334002.687
       230.000         195.000
   2998194.15149   2331414.46546  23498798.050    23498797.497    23498809.737
       220.000         169.000
  -7118348.40949  -5523697.23747  20687828.009    20687828.179    20687838.122
       234.000         194.000
  -6268985.12749  -4867615.74245  23038224.262    23038224.188    23038238.513
       214.000         162.000
  -3675220.31549  -2850623.28645  24246938.929    24246937.781    24246951.546
       200.000         136.000
    810791.93649    631761.49547  20500498.398    20500497.534    20500506.603
       238.000         206.000
   6039746.63349   4685211.36644  24343686.775    24343685.490    24343699.834
       196.000         128.000
  -6394104.06449  -4955656.46947  21337779.172    21337778.930    21337789.278
       233.000         197.000
 00  5  3 15 46 59.9980000  0  8G 2G26G 4G24G 5G 7G 8G 9
    635605.13949    495235.37147  21337608.115    21337607.266    21337618.167
       230.000         195.000
   3051841.75749   2373217.62446  23509006.975    23509006.442    23509018.706
       221.000         169.000
  -7210103.37449  -5595194.54947  20670367.556    20670367.751    20670377.677
       234.000         195.000
  -6396589.66549  -4967047.74745  23013941.890    23013941.794    23013956.098
       211.000         160.000
  -3779322.77549  -2931742.18145  24227128.899    24227127.814    24227141.579
       195.000         135.000
    833939.83349    649798.75647  20504903.369    20504902.476    20504911.587
       238.000         207.000
   6135107.69348   4759518.50044  24361833.540    24361832.259    24361846.664
       190.000         125.000
  -6474884.45949  -5018602.16947  21322407.129    21322406.913    21322417.248
       233.000         197.000
 00  5  3 15 47 29.9980000  0  8G 2G26G 4G24G 5G 7G 8G 9
    654902.45749    510272.16947  21341280.286    21341279.467    21341290.424
       230.000         194.000
   3105680.73449   2415169.91546  23519252.288    23519251.795    23519264.110
       220.000         169.000
  -7301356.75649  -5666301.02347  20653002.587    20653002.764    20653012.698
       234.000         195.000
  -6524051.87449  -5066368.86845  22989686.622    22989686.455    22989700.748
       213.000         160.000
  -3883405.49649  -3012845.67445  24207322.449    24207321.459    24207335.443
       197.000         135.000
    857371.75949    668057.32947  20509362.387    20509361.477    20509370.632
       238.000         207.000
   6230560.53948   4833897.25644  24379997.691    24379996.391    24380010.859
       187.000         122.000
  -6555175.83549  -5081166.83547  21307128.166    21307127.938    21307138.267
       234.000         197.000
 00  5  3 15 47 59.9980000  0  8G 2G26G 4G24G 5G 7G 8G 9
    674494.27149    525538.44447  21345008.577    21345007.709    21345018.716
       230.000         194.000
   3159703.90949   2457265.73346  23529532.643    23529532.213    23529544.543
       219.000         168.000
  -7392110.28549  -5737017.99247  20635732.724    20635732.909    20635742.830
       234.000         197.000
  -6651372.82149  -5165579.83345  22965458.262    22965457.988    22965472.258
       211.000         159.000
  -3987472.34749  -3093936.82545  24187519.031    24187518.170    24187532.270
       196.000         133.000
    881081.88849    686532.68647  20513874.382    20513873.435    20513882.612
       238.000         207.000
   6326098.77548   4908342.45944  24398178.126    24398176.837    24398191.259
       189.000         121.000
  -6634980.21149  -5143352.01447  21291941.844    21291941.638    21291951.939
       234.000         197.000
 00  5  3 15 48 29.9980000  0  8G 2G26G 4G24G 5G 7G 8G 9
    694379.00149    541032.95647  21348792.589    21348791.710    21348802.747
       230.000         194.000
   3213906.27749   2499501.18546  23539847.158    23539846.699    23539859.079
       220.000         168.000
  -7482363.31549  -5807344.97847  20618558.139    20618558.306    20618568.204
       235.000         197.000
  -6778552.07949  -5264680.43945  22941256.725    22941256.513    22941270.710
       212.000         159.000
  -4091524.69948  -3175016.62845  24167718.547    24167717.472    24167732.056
       193.000         135.000
    905066.70649    705222.09147  20518438.626    20518437.661    20518446.855
       238.000         208.000
   6421718.13148   4982850.93744  24416374.071    24416372.747    24416387.166
       188.000         120.000
  -6714297.22649  -5205157.42947  21276848.283    21276848.085    21276858.351
       234.000         198.000
 00  5  3 15 48 59.9980000  0  8G 2G26G 4G24G 5G 7G 8G 9
    714558.27749    556756.98847  21352632.653    21352631.756    21352642.840
       230.000         194.000
   3268285.58349   2541874.50346  23550195.335    23550194.865    23550207.289
       221.000         167.000
  -7572112.69149  -5877279.50547  20601479.409    20601479.565    20601489.424
       235.000         197.000
  -6905586.21949  -5363667.96645  22917082.866    22917082.660    22917096.766
       210.000         159.000
  -4195561.39849  -3256084.24045  24147921.012    24147919.964    24147934.720
       197.000         139.000
    929325.27349    724124.79947  20523054.917    20523053.973    20523063.190
       238.000         207.000
   6517417.10948   5057421.42244  24434585.189    24434584.059    24434598.167
       184.000         117.000
  -6793124.31849  -5266581.08547  21261847.972    21261847.766    21261857.975
       235.000         198.000
 00  5  3 15 49 29.9980000  0  8G 2G26G 4G24G 5G 7G 8G 9
    735016.01349    572698.00147  21356525.704    21356524.789    21356535.908
       230.000         194.000
   3322822.54249   2584370.66346  23560573.482    23560573.038    23560585.519
       219.000         168.000
  -7661372.33649  -5946832.42747  20584493.877    20584493.984    20584503.835
       235.000         197.000
  -7032488.92249  -5462553.08545  22892934.046    22892933.854    22892947.894
       211.000         160.000
  -4299598.53449  -3337152.20145  24128123.535    24128122.529    24128137.260
       201.000         141.000
    953839.60249    743226.80447  20527719.885    20527718.944    20527728.182
       238.000         207.000
   6613177.23448   5132039.62444  24452807.883    24452806.487    24452820.821
       186.000         112.000
  -6871475.81849  -5327634.15147  21246938.156    21246937.949    21246948.118
       235.000         198.000
 00  5  3 15 49 59.9980000  0  8G 2G26G 4G24G 5G 7G 8G 9
    755777.92849    588876.03847  21360476.613    21360475.719    21360486.870
       229.000         194.000
   3377539.34149   2627006.96346  23570985.863    23570985.444    23570997.964
       221.000         167.000
  -7750114.45549  -6015982.08047  20567606.769    20567606.899    20567616.736
       235.000         197.000
  -7159232.16749  -5561313.94345  22868815.538    22868815.367    22868829.346
       213.000         161.000
  -4403610.48249  -3418200.51045  24108330.835    24108329.696    24108344.570
       198.000         141.000
    978633.22549    762546.44847  20532437.986    20532437.057    20532446.319
       238.000         206.000
   6709021.52748   5206723.32344  24471046.614    24471045.215    24471059.974
       187.000         112.000
  -6949324.51149  -5388295.41647  21232124.034    21232123.803    21232133.962
       235.000         198.000
 00  5  3 15 50 29.9980000  0  8G 2G26G 4G24G 5G 7G 8G 9
    776831.57049    605281.39347  21364483.048    21364482.153    21364493.345
       229.000         193.000
   3432419.87049   2669770.84746  23581429.359    23581428.979    23581441.541
       220.000         167.000
  -7838349.75149  -6084736.81647  20550816.123    20550816.244    20550826.091
       235.000         196.000
  -7285826.10049  -5659958.44845  22844725.513    22844725.324    22844739.208
       214.000         162.000
  -4507610.07949  -3499239.21445  24088540.436    24088539.383    24088554.233
       204.000         144.000
   1003691.66649    782072.44247  20537206.464    20537205.542    20537214.847
       237.000         206.000
   6804934.38658   5281460.57154  24489298.357    24489296.898    24489311.466
       183.000         109.000
  -7026681.58949  -5448573.61447  21217403.426    21217403.219    21217413.366
       234.000         198.000
 00  5  3 15 50 59.9980000  0  8G 2G26G 4G24G 5G 7G 8G 9
    798185.63849    621920.84447  21368546.648    21368545.748    21368556.972
       229.000         193.000
   3487469.47249   2712666.48346  23591905.104    23591904.697    23591917.300
       219.000         167.000
  -7926067.52049  -6153088.28647  20534123.945    20534124.060    20534133.915
       234.000         196.000
  -7412260.00349  -5758478.25245  22820665.954    22820665.704    22820679.552
       216.000         162.000
  -4611588.56649  -3580261.46845  24068754.064    24068753.071    24068767.859
       208.000         146.000
   1029021.29749    801809.74847  20542026.539    20542025.647    20542034.977
       237.000         206.000
   6900922.32058   5356256.22654  24507564.391    24507563.139    24507577.402
       183.000         111.000
  -7103536.70849  -5508460.66847  21202778.359    21202778.139    21202788.281
       235.000         199.000
 00  5  3 15 51 29.9980000  0  8G 2G26G 4G24G 5G 7G 8G 9
    819839.24849    638793.71347  21372667.259    21372666.364    21372677.609
       230.000         193.000
   3542683.80249   2755690.45346  23602412.134    23602411.791    23602424.421
       220.000         166.000
  -8013266.62649  -6221035.61047  20517530.434    20517530.569    20517540.426
       233.000         195.000
  -7538532.36649  -5856872.17746  22796637.130    22796636.827    22796650.608
       217.000         163.000
  -4715546.82949  -3661267.93045  24048971.601    24048970.581    24048985.384
       202.000         144.000
   1054619.26249    821756.15047  20546897.728    20546896.824    20546906.165
       238.000         206.000
                   5431107.19554  24525843.842
       182.000         107.000
  -7179889.30249  -5567956.15047  21188248.916    21188248.680    21188258.817
       235.000         199.000
 00  5  3 15 51 59.9980000  0  8G 2G26G 4G24G 5G 7G 8G 9
    841763.10249    655877.16047  21376839.305    21376838.405    21376849.675
       229.000         192.000
   3598030.09149   2798817.28346  23612944.374    23612943.974    23612956.673
       220.000         165.000
  -8099974.52549  -6288600.17547  20501030.380    20501030.537    20501040.413
       233.000         195.000
  -7664670.36649  -5955161.38646  22772633.915    22772633.516    22772647.250
       218.000         163.000
  -4819514.14549  -3742281.45845  24029187.357    24029186.351    24029201.118
       209.000         144.000
   1080454.17449    841887.18647  20551814.049    20551813.119    20551822.422
       238.000         206.000
                   5505988.66444  24544130.752
       176.000         104.000
  -7255767.13949  -5627081.69947  21173809.819    21173809.585    21173819.716
       235.000         200.000
 00  5  3 15 52 29.9980000  0  7G 2G26G 4G24G 5G 7G 9
    863976.60949    673186.30547  21381066.486    21381065.560    21381076.845
       229.000         192.000
   3653524.51149   2842059.51446  23623504.778    23623504.351    23623517.110
       220.000         163.000
  -8186169.38149  -6355764.97247  20484627.975    20484628.143    20484638.009
       233.000         194.000
  -7790651.79549  -6053328.58846  22748660.435    22748659.984    22748673.672
       219.000         163.000
  -4923471.19749  -3823287.00045  24009405.057    24009404.047    24009418.750
       211.000         146.000
   1106543.61149    862216.55147  20556778.814    20556777.850    20556787.136
       239.000         206.000
  -7331148.95349  -5685820.73747  21159465.089    21159464.877    21159475.011
       235.000         200.000
 00  5  3 15 52 59.9980000  0  7G 2G26G 4G24G 5G 7G 9
    886494.18449    690732.39047  21385351.521    21385350.586    21385361.873
       229.000         191.000
   3709177.89849   2885425.61646  23634095.409    23634094.982    23634107.779
       219.000         163.000
  -8271835.34949  -6422517.63947  20468326.234    20468326.412    20468336.239
       234.000         195.000
  -7916460.38949  -6151361.10345  22724719.779    22724719.340    22724732.977
       220.000         162.000
  -5027403.44649  -3904273.19945  23989627.552    23989626.496    23989641.079
       209.000         147.000
   1132899.85149    882753.81947  20561794.302    20561793.349    20561802.626
       239.000         206.000
  -7406019.14549  -5744161.10547  21145217.732    21145217.523    21145227.665
       235.000         200.000
 00  5  3 15 53 29.9980000  0  7G 2G26G 4G24G 5G 7G 9
    909295.53249    708499.59247  21389690.569    21389689.619    21389700.874
       229.000         192.000
   3764966.37349   2928896.99145  23644711.734    23644711.328    23644724.165
       218.000         162.000
  -8356990.70349  -6488872.43347  20452121.704    20452121.845    20452131.624
       235.000         196.000
  -8042114.15049  -6249272.97145  22700808.516    22700808.166    22700821.747
       220.000         162.000
  -5131331.26549  -3985255.92745  23969850.799    23969849.774    23969864.351
       212.000         148.000
   1159500.48849    903481.52247  20566856.274    20566855.337    20566864.615
       238.000         206.000
  -7480396.61549  -5802117.54447  21131064.139    21131063.942    21131074.120
       236.000         201.000
 00  5  3 15 53 59.9980000  0  7G 2G26G 4G24G 5G 7G 9
    932383.04149    726489.78447  21394084.079    21394083.113    21394094.328
       229.000         190.000
   3820889.02749   2972472.90145  23655353.583    23655353.168    23655366.054
       217.000         159.000
  -8441631.12149  -6554825.96747  20436015.146    20436015.310    20436025.022
       236.000         197.000
  -8167608.42749  -6347060.54346  22676927.558    22676927.290    22676940.880
       220.000         163.000
  -5235252.23649  -4066233.32845  23950075.380    23950074.314    23950088.925
       209.000         150.000
   1186345.73149    924399.83147  20571964.797    20571963.863    20571973.137
       238.000         206.000
  -7554277.40649  -5859686.95147  21117005.052    21117004.869    21117015.069
       235.000         201.000
 00  5  3 15 54 29.9980000  0  7G 2G26G 4G24G 5G 7G 9
    955774.38849    744716.72247  21398535.375    21398534.405    21398545.598
       228.000         190.000
   3876960.13949   3016164.50445  23666023.690    23666023.252    23666036.198
       215.000         158.000
  -8525737.17649  -6620363.11647  20420010.311    20420010.443    20420020.115
       236.000         198.000
  -8292923.18249  -6444708.26046  22653080.769    22653080.576    22653094.134
       220.000         163.000
  -5339148.86049  -4147191.76145  23930304.653    23930303.527    23930318.118
       211.000         148.000
   1213451.32849    945521.01947  20577122.856    20577121.924    20577131.217
       238.000         206.000
  -7627642.39449  -5916854.44147  21103044.128    21103043.947    21103054.173
       236.000         201.000
 00  5  3 15 54 59.9980000  0  7G 2G26G 4G24G 5G 7G 9
    979449.71549    763164.95247  21403040.713    21403039.736    21403050.896
       228.000         190.000
   3933156.33649   3059953.56945  23676717.614    23676717.138    23676730.141
       215.000         158.000
  -8609326.77049  -6685497.82847  20404103.755    20404103.877    20404113.526
       236.000         200.000
  -8418076.09649  -6542229.83445  22629264.780    22629264.646    22629278.223
       221.000         162.000
  -5443040.96149  -4228146.66845  23910534.743    23910533.573    23910548.168
       210.000         146.000
   1240795.38049    966828.01647  20582326.267    20582325.354    20582334.681
       237.000         205.000
  -7700510.05349  -5973634.39747  21089177.856    21089177.665    21089187.906
       235.000         201.000
 00  5  3 15 55 29.9980000  0  7G 2G26G 4G24G 5G 7G 9
   1003429.87849    781850.71647  21407604.079    21407603.089    21407614.225
       228.000         190.000
   3989495.16449   3103853.77145  23687438.656    23687438.198    23687451.230
       215.000         156.000
  -8692377.04249  -6750212.29547  20388299.834    20388299.939    20388309.578
       236.000         200.000
  -8543043.90949  -6639607.19046  22605484.031    22605483.930    22605497.508
       220.000         163.000
  -5546907.46649  -4309081.60545  23890769.688    23890768.481    23890783.134
       213.000         148.000
   1268396.82849    988335.58247  20587578.662    20587577.772    20587587.132
       238.000         206.000
  -7772857.83849  -6030009.26247  21075410.455    21075410.288    21075420.552
       235.000         201.000
 00  5  3 15 55 59.9980000  0  7G 2G26G 4G24G 5G 7G 9
   1027701.03949    800763.23547  21412222.829    21412221.822    21412232.937
       229.000         190.000
   4045959.48449   3147851.76645  23698183.581    23698183.149    23698196.207
       213.000         155.000
  -8774900.17149  -6814516.00347  20372596.229    20372596.303    20372605.932
       237.000         200.000
  -8667838.12449  -6736849.25446  22581736.409    22581736.260    22581749.825
       219.000         163.000
  -5650762.08749  -4390007.31245  23871006.718    23871005.668    23871020.281
       211.000         145.000
   1296239.84349   1010031.39047  20592877.061    20592876.168    20592885.558
       238.000         206.000
  -7844698.29649  -6085988.80447  21061739.645    21061739.473    21061749.743
       236.000         200.000
 00  5  3 15 56 29.9980000  0  7G 2G26G 4G24G 5G 7G 9
   1052262.50749    819901.97047  21416896.795    21416895.788    21416906.929
       229.000         190.000
   4102545.00549   3191944.18945  23708951.593    23708951.168    23708964.240
       214.000         154.000
  -8856894.97249  -6878408.02447  20356993.145    20356993.217    20357002.841
       237.000         200.000
  -8792456.98449  -6833954.69146  22558022.074    22558021.954    22558035.509
       220.000         164.000
  -5754605.46549  -4470924.22545  23851246.011    23851245.028    23851259.588
       208.000         144.000
   1324321.59249   1031913.22047  20598220.934    20598220.010    20598229.415
       238.000         206.000
  -7916030.51349  -6141572.31947  21048165.594    21048165.391    21048175.618
       236.000         201.000
 00  5  3 15 56 59.9980000  0  7G 2G26G 4G24G 5G 7G 9
   1077108.00049    839262.01947  21421624.801    21421623.799    21421634.959
       229.000         191.000
   4159242.13949   3236123.58945  23719740.858    23719740.444    23719753.540
       213.000         154.000
  -8938365.97749  -6941891.89447  20341489.712    20341489.787    20341499.447
       236.000         200.000
  -8916904.86849  -6930926.90446  22534340.216    22534340.198    22534353.719
       219.000         163.000
  -5858443.93649  -4551837.31245  23831486.131    23831485.215    23831499.722
       213.000         143.000
   1352633.84349   1053974.66147  20603608.665    20603607.725    20603617.145
       238.000         206.000
  -7986859.56449  -6196763.76647  21034687.281    21034687.044    21034697.232
       236.000         200.000
 00  5  3 15 57 29.9980000  0  7G 2G26G 4G24G 5G 7G 9
   1102237.13549    858843.08847  21426406.799    21426405.792    21426416.974
       229.000         190.000
   4216046.95149   3280386.88145  23730550.558    23730550.198    23730563.352
       212.000         152.000
  -9019312.00049  -7004966.68847  20326086.142    20326086.233    20326095.939
       236.000         200.000
  -9041179.74649  -7027764.29546  22510691.305    22510691.340    22510704.876
       218.000         163.000
  -5962277.90049  -4632746.88845  23811727.296    23811726.368    23811740.732
       208.000         145.000
   1381174.16249   1076213.82147  20609039.776    20609038.834    20609048.263
       238.000         206.000
  -8057184.62549  -6251562.47547  21021304.864    21021304.609    21021314.754
       236.000         200.000
 00  5  3 15 57 59.9980000  0  7G 2G26G 4G24G 5G 7G 9
   1127661.88349    878654.50847  21431245.073    21431244.052    21431255.240
       228.000         190.000
   4272968.29249   3324740.96945  23741382.443    23741382.039    23741395.340
       210.000         147.000
  -9099718.85949  -7067621.34847  20310785.172    20310785.283    20310795.011
       236.000         198.000
  -9165267.12949  -7124455.59746  22487078.137    22487078.147    22487091.683
       217.000         163.000
  -6066095.26449  -4713643.52545  23791971.443    23791970.587    23791984.947
       210.000         144.000
   1409952.64549   1098638.56347  20614516.216    20614515.263    20614524.706
       238.000         206.000
  -8126992.14349  -6305957.91147  21008020.924    21008020.684    21008030.762
       236.000         200.000
 00  5  3 15 58 29.9980000  0  7G 2G26G 4G24G 5G 7G 9
   1153376.12849    898691.51547  21436138.420    21436137.392    21436148.602
       228.000         190.000
   4329996.52749   3369178.38745  23752234.733    23752234.337    23752247.633
       209.000         150.000
  -9179591.09849  -7129859.42647  20295585.963    20295586.061    20295595.804
       237.000         198.000
  -9289170.83849  -7221003.76546  22463499.844    22463499.898    22463513.431
       216.000         164.000
  -6169901.98849  -4794531.84945  23772217.623    23772216.806    23772231.283
       211.000         146.000
   1438961.14849   1121242.54247  20620036.413    20620035.449    20620044.910
       238.000         206.000
  -8196286.86649  -6359953.76747  20994834.565    20994834.320    20994844.362
       236.000         201.000
 00  5  3 15 58 59.9980000  0  7G 2G26G 4G24G 5G 7G 9
   1179381.69549    918955.52747  21441087.181    21441086.162    21441097.385
       228.000         190.000
   4387130.19849   3413697.95345  23763107.060    23763106.646    23763119.977
       209.000         149.000
  -9258925.05549  -7191678.06547  20280489.201    20280489.301    20280499.005
       237.000         198.000
  -9412886.79349  -7317405.63946  22439957.300    22439957.368    22439970.915
       216.000         165.000
  -6273696.04649  -4875410.30845  23752466.340    23752465.539    23752479.924
       214.000         147.000
   1468199.60849   1144025.71047  20625600.319    20625599.371    20625608.861
       238.000         205.000
  -8265065.55149  -6413547.52347  20981746.418    20981746.161    20981756.140
       237.000         200.000
 00  5  3 15 59 29.9980000  0  7G 2G26G 4G24G 5G 7G 9
   1205680.93349    939448.36447  21446091.790    21446090.796    21446102.046
       228.000         189.000
   4444368.32549   3458298.89745  23773999.244    23773998.758    23774012.247
       208.000         147.000
  -9337716.39949  -7253073.90247  20265495.711    20265495.790    20265505.439
       238.000         198.000
  -9536410.21849  -7413657.48446  22416451.350    22416451.478    22416465.073
       213.000         165.000
  -6377475.00849  -4956277.01645  23732717.903    23732717.058    23732731.529
       213.000         148.000
   1497668.48949   1166988.42247  20631208.060    20631207.137    20631216.639
       237.000         205.000
  -8333324.23449  -6466736.08647  20968757.236    20968756.982    20968766.873
       237.000         201.000
 00  5  3 15 59 59.9970000  0  7G 2G26G 4G24G 5G 7G 9
   1232281.47249    960175.99547  21451153.701    21451152.748    21451164.026
       228.000         189.000
   4501714.19149   3502983.76145  23784912.009    23784911.517    23784924.941
       205.000         146.000
  -9415952.50549  -7314037.08947  20250607.895    20250607.948    20250617.526
       238.000         198.000
  -9659726.21149  -7509747.69346  22392984.914    22392985.068    22392998.685
       214.000         166.000
  -6481226.87949  -5037122.61245  23712974.629    23712973.786    23712988.284
       209.000         146.000
   1527373.44949   1190135.08947  20636860.699    20636859.814    20636869.352
       237.000         205.000
  -8401050.86049  -6519510.03947  20955869.268    20955869.006    20955878.857
       237.000         201.000
 00  5  3 16  0 29.9970000  0  7G 2G26G 4G24G 5G 7G 9
   1259182.93749    981138.11147  21456272.895    21456271.984    21456283.272
       228.000         189.000
   4559166.09949   3547751.27045  23795844.922    23795844.308    23795857.878
       205.000         144.000
  -9493639.06049  -7374572.05747  20235824.651    20235824.701    20235834.185
       239.000         200.000
  -9782842.72749  -7605682.47646  22369556.479    22369556.610    22369570.254
       217.000         167.000
  -6584960.32549  -5117953.84745  23693234.733    23693234.029    23693248.478
       211.000         146.000
   1557312.21449   1213463.93947  20642557.884    20642556.991    20642566.548
       237.000         205.000
  -8468250.78349  -6571873.57347  20943081.527    20943081.274    20943091.075
       237.000         201.000
 00  5  3 16  0 59.9970000  0  7G 2G26G 4G24G 5G 7G 9
   1286379.31549   1002330.02947  21461448.222    21461447.329    21461458.644
       228.000         189.000
   4616713.79649   3592593.44445  23806795.991    23806795.430    23806809.031
       205.000         141.000
  -9570776.71449  -7434679.30947  20221145.860    20221145.899    20221155.314
       239.000         200.000
  -9905758.35149  -7701460.71046  22346166.255    22346166.399    22346180.050
       216.000         168.000
  -6688676.78349  -5198771.84145  23673498.147    23673497.377    23673511.913
       208.000         146.000
   1587476.96849   1236968.88747  20648298.079    20648297.177    20648306.768
       238.000         205.000
  -8534925.51349  -6623827.87547  20930393.721    20930393.467    20930403.254
       237.000         201.000
 00  5  3 16  1 29.9970000  0  7G 2G26G 4G24G 5G 7G 9
   1313874.25949   1023754.59347  21466680.386    21466679.496    21466690.824
       227.000         189.000
   4674357.79149   3637510.64945  23817765.467    23817764.925    23817778.512
       205.000         142.000
  -9647360.02049  -7494354.59747  20206572.582    20206572.592    20206581.954
       239.000         201.000
 -10028467.17149  -7797077.81846  22322815.397    22322815.550    22322829.193
       218.000         170.000
  -6792372.14349  -5279573.38745  23653765.533    23653764.774    23653779.409
       208.000         145.000
   1617869.37549   1260651.22347  20654081.596    20654080.699    20654090.330
       238.000         206.000
  -8601070.13449  -6675369.10347  20917806.783    20917806.540    20917816.327
       236.000         202.000
 00  5  3 16  1 59.9970000  0  7G 2G26G 4G24G 5G 7G 9
   1341672.51249   1045415.50547  21471970.295    21471969.404    21471980.698
       227.000         188.000
   4732099.17349   3682503.72245  23828753.503    23828752.848    23828766.405
       205.000         142.000
  -9723382.73149  -7553593.05847  20192105.954    20192105.961    20192115.283
       237.000         201.000
 -10150961.88149  -7892528.08646  22299505.315    22299505.451    22299519.053
       218.000         171.000
  -6896041.74449  -5360354.88645  23634037.733    23634037.035    23634051.676
       209.000         143.000
   1648492.37649   1284513.24047  20659909.026    20659908.119    20659917.791
       238.000         207.000
  -8666678.39449  -6726492.38947  20905321.871    20905321.663    20905331.471
       236.000         201.000
 00  5  3 16  2 29.9970000  0  7G 2G26G 4G24G 5G 7G 9
   1369768.07349   1067308.08347  21477316.817    21477315.900    21477327.145
       229.000         188.000
   4789928.70149   3727565.47645  23839758.217    23839757.489    23839771.206
       205.000         139.000
  -9798849.30249  -7612398.15847  20177745.132    20177745.127    20177754.458
       237.000         201.000
 -10273246.39849  -7987814.57346  22276235.271    22276235.365    22276248.938
       219.000         172.000
  -6999691.54949  -5441120.93645  23614313.706    23614313.063    23614327.701
       210.000         143.000
   1679337.95649   1308548.69847  20665778.846    20665777.906    20665787.607
       238.000         206.000
  -8731755.47549  -6777201.76647  20892938.065    20892937.862    20892947.712
       236.000         201.000
 00  5  3 16  2 59.9970000  0  7G 2G26G 4G24G 5G 7G 9
   1398168.65849   1089438.35947  21482721.326    21482720.411    21482731.649
       228.000         188.000
   4847850.84749   3772699.42245  23850780.707    23850779.908    23850793.614
       203.000         140.000
  -9873750.37949  -7670762.61247  20163491.899    20163491.914    20163501.255
       237.000         201.000
 -10395310.53749  -8082929.33746  22253007.153    22253007.233    22253020.782
       220.000         174.000
  -7103313.56749  -5521865.34745  23594594.932    23594594.341    23594609.073
       212.000         142.000
   1710411.81949   1332762.03647  20671692.095    20671691.135    20671700.853
       238.000         206.000
  -8796292.01449  -6827489.95147  20880657.094    20880656.915    20880666.816
       236.000         202.000
 00  5  3 16  3 29.9970000  0  7G 2G26G 4G24G 5G 7G 9
   1426858.09349   1111793.70147  21488180.810    21488179.887    21488191.111
       228.000         188.000
   4905846.17749   3817890.39545  23861816.913    23861816.212    23861830.000
       204.000         137.000
  -9948100.11549  -7728697.45047  20149343.595    20149343.605    20149352.973
       236.000         201.000
 -10517168.18249  -8177883.20346  22229818.356    22229818.391    22229831.910
       221.000         174.000
  -7206923.53349  -5602600.38545  23574878.601    23574878.001    23574892.719
       207.000         144.000
   1741696.20949   1357139.41747  20677645.392    20677644.413    20677654.155
       238.000         206.000
  -8860302.60949  -6877368.31047  20868476.238    20868476.069    20868486.011
       236.000         202.000
 00  5  3 16  3 59.9970000  0  7G 2G26G 4G24G 5G 7G 9
   1455844.78249   1134380.66547  21493696.848    21493695.923    21493707.137
       228.000         188.000
   4963919.91249   3863142.46445  23872867.981    23872867.394    23872881.235
       206.000         137.000
 -10021888.67349  -7786195.00447  20135302.072    20135302.096    20135311.476
       236.000         201.000
 -10638808.28649  -8272667.57446  22206670.901    22206670.963    22206684.430
       222.000         175.000
  -7310512.49249  -5683319.03745  23555166.257    23555165.644    23555180.376
       208.000         144.000
   1773197.66649   1381685.94447  20683639.944    20683638.986    20683648.746
       238.000         205.000
  -8923777.83949  -6926829.50847  20856397.283    20856397.097    20856407.069
       236.000         202.000
 00  5  3 16  4 29.9970000  0  7G 2G26G 4G24G 5G 7G 9
   1485139.21849   1157207.42447  21499271.476    21499270.542    21499281.721
       228.000         188.000
   5022079.21749   3908461.20345  23883935.467    23883934.868    23883948.678
       205.000         137.000
 -10095103.99049  -7843245.88047  20121369.643    20121369.669    20121379.059
       237.000         201.000
 -10760218.13249  -8367272.51346  22183567.249    22183567.339    22183580.772
       222.000         175.000
  -7414070.09049  -5764013.18545  23535459.905    23535459.334    23535473.980
       211.000         146.000
   1804924.67449   1406408.22847  20689677.403    20689676.465    20689686.245
       237.000         204.000
  -8986705.84749  -6975864.31347  20844422.468    20844422.278    20844432.253
       236.000         202.000
 00  5  3 16  4 59.9970000  0  7G 2G26G 4G24G 5G 7G 9
   1514735.37449   1180269.29547  21504903.538    21504902.576    21504913.717
       229.000         189.000
   5080314.71149   3953839.30345  23895017.518    23895016.814    23895030.814
       204.000         135.000
 -10167750.71849  -7899853.70447  20107545.432    20107545.448    20107554.845
       237.000         202.000
 -10881401.49549  -8461700.97546  22160506.735    22160506.820    22160520.197
       223.000         175.000
  -7517602.11249  -5844687.46845  23515758.515    23515757.866    23515772.483
       213.000         148.000
   1836869.49349   1431300.23647  20695756.323    20695755.393    20695765.169
       237.000         204.000
  -9049091.23749  -7024476.24347  20832550.891    20832550.695    20832560.713
       236.000         202.000
 00  5  3 16  5 29.9970000  0  7G 2G26G 4G24G 5G 7G 9
   1544643.42949   1203574.20247  21510594.998    21510593.990    21510605.065
       229.000         189.000
   5138633.49949   3999282.31945  23906115.438    23906114.714    23906128.706
       203.000         135.000
 -10239816.58349  -7956008.90347  20093831.759    20093831.771    20093841.178
       238.000         202.000
 -11002345.48149  -8555942.91746  22137491.824    22137491.835    22137505.192
       224.000         175.000
  -7621097.96049  -5925333.56245  23496063.839    23496063.280    23496077.847
       212.000         151.000
   1869040.51149   1456368.49847  20701878.288    20701877.363    20701887.108
       237.000         203.000
  -9110922.44649  -7072656.35747  20820784.761    20820784.564    20820794.603
       236.000         202.000
 00  5  3 16  5 59.9970000  0  7G 2G26G 4G24G 5G 7G 9
   1574832.09749   1227097.76347  21516339.872    21516338.813    21516349.824
       229.000         188.000
   5197001.16449   4044763.42944  23917222.598    23917221.861    23917235.801
       200.000         128.000
 -10311331.39649  -8011734.70147  20080222.942    20080222.948    20080232.371
       237.000         202.000
 -11123079.04449  -8650020.89446  22114516.955    22114516.904    22114530.207
       223.000         174.000
  -7724588.72449  -6005975.67745  23476370.193    23476369.619    23476384.141
       213.000         151.000
   1901404.80649   1481587.36747  20708037.067    20708036.137    20708045.833
       237.000         203.000
  -9172229.59049  -7120428.13247  20809118.400    20809118.163    20809128.201
       236.000         202.000
 00  5  3 16  6 29.9970000  0  7G 2G26G 4G24G 5G 7G 9
   1605307.14849   1250844.49047  21522139.202    21522138.119    21522149.073
       229.000         188.000
   5255420.27049   4090284.64844  23928339.443    23928338.778    23928352.652
       200.000         131.000
 -10382288.05149  -8067025.58947  20066720.308    20066720.349    20066729.737
       237.000         202.000
 -11243594.06949  -8743928.58246  22091583.638    22091583.555    22091596.836
       223.000         174.000
  -7828067.99449  -6086608.80345  23456678.778    23456678.141    23456692.630
       213.000         152.000
   1933966.23649   1506959.84447  20714233.368    20714232.429    20714242.095
       237.000         204.000
  -9233005.94649  -7167786.30947  20797553.033    20797552.780    20797562.805
       236.000         202.000
 00  5  3 16  6 59.9970000  0  7G 2G26G 4G24G 5G 7G 9
   1636098.44649   1274837.63746  21527998.664    21527997.603    21528008.502
       228.000         187.000
   5313917.40449   4135866.63844  23939471.238    23939470.544    23939484.611
       201.000         129.000
 -10452655.15749  -8121857.09047  20053329.906    20053329.941    20053339.282
       238.000         201.000
 -11363858.33549  -8837640.88246  22068698.058    22068697.941    22068711.163
       223.000         173.000
  -7931505.72249  -6167209.58945  23436995.315    23436994.625    23437009.008
       212.000         152.000
   1966752.85249   1532507.78747  20720472.519    20720471.563    20720481.205
       237.000         204.000
  -9293220.38749  -7214706.61147  20786094.599    20786094.337    20786104.330
       237.000         202.000
 00  5  3 16  7 29.9970000  0  7G 2G26G 4G24G 5G 7G 9
   1667192.90049   1299067.00246  21533915.822    21533914.761    21533925.608
       228.000         186.000
   5372476.17949   4181496.68344  23950614.831    23950614.052    23950628.105
       201.000         128.000
 -10522444.08349  -8176238.06547  20040049.541    20040049.549    20040058.825
       237.000         201.000
 -11483882.51149  -8931166.08346  22045858.141    22045858.025    22045871.194
       223.000         173.000
  -8034914.61349  -6247787.90845  23417317.330    23417316.565    23417330.888
       213.000         152.000
   1999749.90049   1558219.70747  20726751.737    20726750.757    20726760.388
       238.000         204.000
  -9352884.75449  -7261198.30747  20774740.893    20774740.615    20774750.523
       237.000         202.000
 00  5  3 16  7 59.9970000  0  7G 2G26G 4G24G 5G 7G 9
   1698588.54349   1323531.06146  21539890.363    21539889.251    21539900.040
       229.000         187.000
   5431091.45449   4227170.75844  23961769.027    23961768.210    23961782.221
       200.000         126.000
 -10591655.32249  -8230168.88947  20026879.105    20026879.099    20026888.286
       237.000         201.000
 -11603665.98749  -9024503.73246  22023064.021    22023063.888    22023077.007
       223.000         171.000
  -8138296.26349  -6328344.98045  23397644.592    23397643.746    23397657.920
       215.000         155.000
   2032953.59849   1584092.65347  20733070.274    20733069.283    20733078.886
       237.000         204.000
  -9411999.66249  -7307261.84647  20763491.726    20763491.439    20763501.290
       238.000         202.000
 00  5  3 16  8 29.9970000  0  7G 2G26G 4G24G 5G 7G 9
   1730289.76449   1348233.23947  21545923.061    21545921.928    21545932.641
       230.000         188.000
   5489764.47749   4272889.79644  23972934.255    23972933.488    23972947.503
       198.000         125.000
 -10660283.05549  -8283645.03847  20013819.716    20013819.692    20013828.801
       238.000         201.000
 -11723202.19849  -9117648.70646  22000316.942    22000316.821    22000329.894
       224.000         171.000
  -8241645.70249  -6408876.96545  23377977.850    23377977.048    23377991.091
       216.000         156.000
   2066366.58849   1610128.68447  20739428.607    20739427.621    20739437.232
       238.000         204.000
  -9470559.55649  -7352892.87747  20752348.181    20752347.861    20752357.662
       238.000         202.000
 00  5  3 16  8 59.9970000  0  7G 2G26G 4G24G 5G 7G 9
   1762298.10449   1373174.72847  21552014.187    21552013.045    21552023.710
       230.000         189.000
   5548493.75549   4318652.70144  23984110.213    23984109.305    23984123.577
       200.000         126.000
 -10728324.25749  -8336664.14747  20000871.902    20000871.873    20000880.937
       237.000         201.000
 -11842486.97549  -9210597.76446  21977617.690    21977617.586    21977630.596
       223.000         170.000
  -8344961.18849  -6489382.47245  23358317.533    23358316.770    23358330.775
       219.000         157.000
   2099988.59149   1636327.57647  20745826.732    20745825.738    20745835.355
       237.000         204.000
  -9528561.46549  -7398089.15547  20741310.823    20741310.486    20741320.199
       238.000         202.000
 00  5  3 16  9 29.9970000  0  7G 2G26G 4G24G 5G 7G 9
   1794601.21249   1398345.90547  21558161.391    21558160.226    21558170.894
       229.000         189.000
   5607263.67749   4364447.28544  23995293.901    23995293.015    23995307.306
       200.000         124.000
 -10795789.77649  -8389234.66747  19988033.660    19988033.619    19988042.643
       238.000         202.000
 -11961530.41949  -9303358.78146  21954964.359    21954964.284    21954977.199
       223.000         170.000
  -8448254.66449  -6569870.85545  23338661.382    23338660.666    23338674.592
       215.000         157.000
   2133805.73949   1662678.53347  20752261.979    20752260.991    20752270.615
       238.000         204.000
  -9586016.68749  -7442859.42247  20730377.423    20730377.097    20730386.778
       237.000         202.000
 00  5  3 16  9 59.9970000  0  7G 2G26G 4G24G 5G 7G 9
   1827190.67749   1423740.20647  21564363.041    21564361.903    21564372.574
       230.000         188.000
   5666062.80949   4410264.61644  24006483.201    24006482.469    24006496.569
       201.000         127.000
 -10862686.43649  -8441361.92147  19975303.666    19975303.621    19975312.619
       237.000         202.000
 -12080338.27449  -9395936.19546  21932355.865    21932355.798    21932368.666
       222.000         169.000
  -8551534.04049  -6650348.27745  23319007.855    23319007.189    23319021.202
       215.000         153.000
   2167807.84049   1689173.60747  20758732.391    20758731.413    20758741.083
       237.000         204.000
  -9642932.63749  -7487209.46947  20719546.627    20719546.322    20719555.973
       236.000         201.000
 00  5  3 16 10 29.9970000  0  7G 2G26G 4G24G 5G 7G 9
   1860095.30049   1449380.06747  21570624.671    21570623.534    21570634.216
       230.000         188.000
   5724916.71749   4456124.59444  24017682.843    24017682.145    24017696.275
       201.000         121.000
 -10928984.10949  -8493022.43247  19962687.618    19962687.590    19962696.599
       236.000         203.000
 -12198879.28549  -9488305.69846  21909798.133    21909798.092    21909810.897
       223.000         169.000
  -8654769.75549  -6730791.56045  23299362.713    23299362.041    23299376.121
       215.000         157.000
   2202022.12949   1715834.01747  20765243.205    20765242.230    20765251.938
       237.000         204.000
  -9699278.98849  -7531115.68447  20708824.192    20708823.918    20708833.567
       236.000         200.000
 00  5  3 16 10 59.9970000  0  7G 2G26G 4G24G 5G 7G 9
   1893309.30349   1475261.02247  21576945.205    21576944.066    21576954.728
       229.000         188.000
   5783816.48849   4502020.32144  24028891.214    24028890.434    24028904.761
       201.000         122.000
 -10994687.37549  -8544219.75747  19950184.669    19950184.652    19950193.699
       236.000         203.000
 -12317157.10349  -9580470.10246  21887290.502    21887290.475    21887303.216
       223.000         170.000
  -8757967.78349  -6811205.55845  23279724.755    23279724.089    23279738.177
       215.000         157.000
   2236440.85549   1742653.73347  20771792.978    20771791.962    20771801.693
       238.000         205.000
  -9755060.76749  -7574581.97047  20698209.179    20698208.935    20698218.593
       237.000         200.000
 00  5  3 16 11 29.9970000  0  7G 2G26G 4G24G 5G 7G 9
   1926848.58449   1501395.43946  21583327.591    21583326.459    21583337.131
       229.000         186.000
   5842775.15349   4547962.02144  24040110.900    24040110.136    24040124.426
       199.000         122.000
 -11059778.60849  -8594940.17847  19937798.148    19937798.172    19937807.278
       236.000         203.000
 -12435153.09849  -9672414.92346  21864836.481    21864836.483    21864849.169
       225.000         171.000
  -8861111.16849  -6891576.93845  23260097.163    23260096.518    23260110.626
       217.000         159.000
   2271078.62149   1769644.13147  20778384.394    20778383.383    20778393.120
       238.000         205.000
  -9810260.56649  -7617594.78047  20687704.922    20687704.708    20687714.362
       236.000         200.000
 00  5  3 16 11 59.9970000  0  7G 2G26G 4G24G 5G 7G 9
   1960669.69249   1527749.45046  21589763.592    21589762.484    21589773.142
       230.000         185.000
   5901745.94249   4593913.09644  24051332.845    24051331.932    24051346.376
       195.000         118.000
 -11124300.05349  -8645216.60247  19925520.082    19925520.105    19925529.290
       236.000         204.000
 -12552908.08749  -9764171.93846  21842428.335    21842428.343    21842440.981
       225.000         172.000
  -8964243.01049  -6971939.33945  23240471.767    23240471.110    23240485.309
       219.000         158.000
   2305890.11449   1796769.90347  20785008.867    20785007.853    20785017.615
       238.000         205.000
  -9864921.02049  -7660187.32547  20677303.333    20677303.121    20677312.799
       236.000         201.000
 00  5  3 16 12 29.9970000  0  7G 2G26G 4G24G 5G 7G 9
   1994800.31749   1554344.65246  21596258.497    21596257.393    21596268.030
       229.000         184.000
   5960753.42248   4639892.76744  24062561.809    24062560.872    24062575.370
       193.000         117.000
 -11188222.41649  -8695026.21347  19913356.028    19913356.066    19913365.292
       237.000         204.000
 -12670392.54749  -9855718.15646  21820071.714    21820071.705    21820084.284
       226.000         173.000
  -9067334.98949  -7052270.70745  23220854.015    23220853.330    23220867.530
       215.000         157.000
   2340901.44749   1824051.39547  20791671.378    20791670.354    20791680.144
       238.000         205.000
  -9919013.35149  -7702337.16847  20667009.913    20667009.680    20667019.349
       236.000         201.000
 00  5  3 16 12 59.9970000  0  7G 2G26G 4G24G 5G 7G 9
   2029229.30249   1581172.34146  21602810.161    21602809.070    21602819.714
       228.000         184.000
   6019783.68249   4685890.13944  24073794.994    24073794.236    24073808.687
       200.000         123.000
 -11251555.73349  -8744376.82947  19901304.097    19901304.137    19901313.393
       237.000         204.000
 -12787614.66549  -9947059.95046  21797765.035    21797764.992    21797777.530
       226.000         175.000
  -9170397.81949  -7132579.33245  23201241.695    23201241.051    23201255.304
       214.000         157.000
   2376099.81849   1851478.62447  20798369.446    20798368.441    20798378.258
       238.000         205.000
  -9972547.43149  -7744052.02247  20656822.734    20656822.477    20656832.130
       237.000         202.000
 00  5  3 16 13 29.9970000  0  7G 2G26G 4G24G 5G 7G 9
   2063947.63249   1608225.49146  21609416.903    21609415.820    21609426.469
       229.000         185.000
   6078824.40549   4731895.68844  24085030.141    24085029.187    24085044.018
       195.000         116.000
 -11314307.50749  -8793274.29547  19889362.867    19889362.876    19889372.144
       238.000         204.000
 -12904581.15949 -10038202.56446  21775506.959    21775506.943    21775519.419
       226.000         176.000
  -9273440.00649  -7212871.85845  23181633.322    23181632.701    23181647.034
       215.000         156.000
   2411474.64549   1879043.36047  20805101.081    20805100.094    20805109.963
       237.000         205.000
 -10025530.92349  -7785337.84047  20646740.356    20646740.071    20646749.680
       238.000         202.000
 00  5  3 16 13 59.9970000  0  8G16G 2G26G 4G24G 5G 7G 9
  -1632155.80959  -1257717.67255  24335344.790    24335344.601    24335361.557
       196.000         143.000
   2098964.82649   1635511.51646  21616080.550    21616079.439    21616090.116
       229.000         184.000
   6137882.24748   4777914.66744  24096268.684    24096267.629    24096282.351
       193.000         119.000
 -11376466.99649  -8841710.24047  19877534.315    19877534.321    19877543.593
       237.000         203.000
 -13021280.05349 -10129136.66046  21753299.837    21753299.798    21753312.233
       227.000         178.000
  -9376451.35049  -7293140.35745  23162030.928    23162030.232    23162044.621
       214.000         154.000
   2447033.99649   1906751.87747  20811867.811    20811866.851    20811876.769
       237.000         205.000
 -10077953.37349  -7826186.48247  20636764.727    20636764.421    20636774.001
       238.000         203.000
 00  5  3 16 14 29.9970000  0  8G16G 2G26G 4G24G 5G 7G 9
  -1703432.93249  -1313258.07645  24321780.971    24321780.829    24321797.663
       201.000         144.000
   2134280.58949   1663030.20246  21622800.979    21622799.893    21622810.582
       229.000         184.000
   6196953.84549   4823944.31744  24107509.695    24107508.519    24107523.379
       195.000         118.000
 -11438033.02249  -8889683.75347  19865818.704    19865818.697    19865827.952
       238.000         203.000
 -13137709.13249 -10219860.51846  21731144.058    21731143.999    21731156.404
       227.000         180.000
  -9479431.72049  -7373384.72845  23142434.343    23142433.653    23142448.087
       214.000         155.000
   2482775.86149   1934602.61147  20818669.308    20818668.337    20818678.317
       237.000         204.000
 -10129814.08649  -7866597.41347  20626895.995    20626895.668    20626905.209
       239.000         204.000
 00  5  3 16 14 59.9970000  0  8G16G 2G26G 4G24G 5G 7G 9
  -1774391.83849  -1368550.50445  24308277.721    24308277.607    24308294.467
       198.000         142.000
   2169909.09849   1690792.58346  21629580.936    21629579.866    21629590.585
       229.000         185.000
   6256050.25849   4869993.24144  24118755.459    24118754.431    24118769.140
       195.000         119.000
 -11498990.26749  -8937182.89047  19854218.972    19854218.938    19854228.133
       238.000         202.000
 -13253851.70449 -10310361.11746  21709042.869    21709042.745    21709055.095
       228.000         180.000
  -9582366.03049  -7453593.21345  23122846.514    23122845.828    23122860.280
       215.000         154.000
   2518713.00249   1962605.51647  20825507.951    20825506.992    20825517.012
       237.000         204.000
 -10181097.85949  -7906558.77647  20617137.055    20617136.693    20617146.213
       239.000         203.000
 00  5  3 16 15 29.9970000  0  8G16G 2G26G 4G24G 5G 7G 9
  -1845039.34549  -1423600.28445  24294833.559    24294833.591    24294850.385
       195.000         137.000
   2205841.05549   1718791.41446  21636418.637    21636417.571    21636428.354
       230.000         185.000
   6315159.25448   4916051.99144  24130003.691    24130003.024    24130017.330
       192.000         118.000
 -11559346.80149  -8984213.94647  19842733.543    19842733.489    19842742.622
       237.000         201.000
 -13369714.63049 -10400643.81746  21686994.811    21686994.725    21687006.996
       229.000         182.000
  -9685263.17449  -7533772.72745  23103265.769    23103265.074    23103279.544
       213.000         154.000
   2554834.31949   1990751.92747  20832381.639    20832380.694    20832390.745
       237.000         204.000
 -10231812.93049  -7946076.99947  20607486.332    20607485.969    20607495.453
       240.000         204.000
 00  5  3 16 15 59.9970000  0  8G16G 2G26G 4G24G 5G 7G 9
  -1915364.67549  -1478399.00145  24281450.692    24281450.821    24281467.517
       199.000         135.000
   2242084.61049   1747033.06046  21643315.643    21643314.562    21643325.433
       229.000         186.000
   6374286.04649   4962124.60744  24141255.281    24141254.673    24141269.089
       195.000         118.000
 -11619092.99949  -9030769.40747  19831364.227    19831364.183    19831373.233
       236.000         201.000
 -13485287.17349 -10490700.24946  21665002.068    21665001.931    21665014.161
       229.000         182.000
  -9788114.30749  -7613916.40145  23083693.767    23083693.109    23083707.551
       208.000         153.000
   2591146.55149   2019047.10447  20839291.707    20839290.729    20839300.798
       237.000         204.000
 -10281949.90549  -7985144.75647  20597945.644    20597945.252    20597954.681
       240.000         204.000
 00  5  3 16 16 29.9970000  0  8G16G 2G26G 4G24G 5G 7G 9
  -1985378.30049  -1532954.81145  24268127.101    24268127.374    24268144.075
       199.000         138.000
   2278626.63149   1775507.26146  21650269.405    21650268.348    21650279.306
       229.000         185.000
   6433414.52448   5008198.59544  24152507.150    24152506.723    24152521.108
       193.000         118.000
 -11678240.81549  -9076858.59347  19820108.747    19820108.710    19820117.706
       236.000         200.000
 -13600580.03949 -10580538.74646  21643062.523    21643062.374    21643074.550
       229.000         182.000
  -9890931.89849  -7694033.91645  23064128.081    23064127.498    23064141.947
       213.000         154.000
   2627635.08949   2047479.66547  20846235.319    20846234.333    20846244.397
       237.000         203.000
 -10331521.09149  -8023771.64047  20588512.582    20588512.189    20588521.577
       239.000         204.000
 00  5  3 16 16 59.9970000  0  8G16G 2G26G 4G24G 5G 7G 9
  -2055076.92849  -1587265.24145  24254863.742    24254863.937    24254880.445
       203.000         138.000
   2315467.66949   1804214.46846  21657280.027    21657279.013    21657290.096
       227.000         184.000
   6492542.36448   5054272.06244  24163758.970    24163758.512    24163773.187
       194.000         120.000
 -11736788.42449  -9122480.08947  19808967.423    19808967.425    19808976.404
       236.000         200.000
 -13715590.12149 -10670156.90146  21621176.772    21621176.619    21621188.757
       229.000         182.000
  -9993714.56049  -7774124.22545  23044569.041    23044568.521    23044583.008
       214.000         154.000
   2664299.18549   2076049.02347  20853212.328    20853211.340    20853221.406
       237.000         203.000
 -10380524.48049  -8061956.08147  20579187.523    20579187.140    20579196.547
       239.000         204.000
 00  5  3 16 17 29.9970000  0  8G16G 2G26G 4G24G 5G 7G 9
  -2124451.12149  -1641322.86245  24241662.086    24241662.190    24241678.534
       205.000         140.000
   2352614.66349   1833160.07346  21664348.802    21664347.849    21664359.092
       226.000         183.000
   6551673.46248   5100348.00344  24175011.436    24175010.953    24175025.698
       193.000         117.000
 -11794727.65749  -9167627.51947  19797941.909    19797941.921    19797950.885
       236.000         201.000
 -13830308.11349 -10759547.43946  21599346.621    21599346.444    21599358.558
       229.000         182.000
 -10096454.86949  -7854181.50045  23025018.136    23025017.622    23025032.154
       211.000         155.000
   2701144.12049   2104759.29347  20860223.752    20860222.746    20860232.818
       237.000         202.000
 -10428952.33349  -8099692.05447  20569971.977    20569971.622    20569981.026
       239.000         204.000
 00  5  3 16 17 59.9970000  0  8G16G 2G26G 4G24G 5G 7G 9
  -2193492.88449  -1695121.47745  24228523.731    24228523.794    24228539.867
       203.000         141.000
   2390073.21449   1862348.46046  21671476.857    21671475.972    21671487.379
       226.000         184.000
   6610810.52949   5146428.63044  24186265.033    24186264.477    24186279.262
       195.000         116.000
 -11852052.08749  -9212295.88647  19787033.385    19787033.414    19787042.393
       236.000         202.000
 -13944726.00249 -10848704.14646  21577573.537    21577573.377    21577585.449
       228.000         183.000
 -10199146.63949  -7934200.98745  23005476.496    23005475.906    23005490.445
       216.000         155.000
   2738173.80949   2133613.52547  20867270.310    20867269.318    20867279.375
       237.000         202.000
 -10476798.30249  -8136974.61447  20560867.160    20560866.833    20560876.224
       239.000         204.000
 00  5  3 16 18 29.9970000  0  8G16G 2G26G 4G24G 5G 7G 9
  -2262201.50549  -1748660.48145  24215448.741    24215448.713    24215464.695
       205.000         141.000
   2427841.27049   1891778.01346  21678663.790    21678662.968    21678674.566
       225.000         184.000
   6669948.43548   5192509.94044  24197518.796    24197518.307    24197532.914
       194.000         116.000
 -11908762.24549  -9256485.59647  19776241.763    19776241.801    19776250.801
       236.000         203.000
 -14058843.23849 -10937626.57946  21555857.671    21555857.488    21555869.547
       227.000         182.000
 -10301791.49049  -8014183.90945  22985943.704    22985943.139    22985957.714
       217.000         156.000
   2775384.72849   2162608.97447  20874351.324    20874350.354    20874360.411
       236.000         202.000
 -10524063.41149  -8173804.55747  20551872.886    20551872.556    20551881.968
       239.000         204.000
 00  5  3 16 18 59.9970000  0  8G16G 2G26G 4G24G 5G 7G 9
  -2330593.29049  -1801952.59145  24202434.003    24202434.001    24202449.761
       206.000         142.000
   2465899.81049   1921433.92046  21685906.011    21685905.237    21685917.029
       225.000         183.000
   6729065.47148   5238574.94344  24208768.610    24208767.900    24208782.682
       190.000         113.000
 -11964875.86949  -9300210.47247  19765563.681    19765563.714    19765572.772
       236.000         204.000
 -14172676.30249 -11026327.58446  21534195.838    21534195.712    21534207.735
       228.000         183.000
 -10404407.14449  -8094144.08545  22966416.589    22966415.970    22966430.505
       214.000         155.000
   2812756.76749   2191729.96347  20881463.038    20881462.066    20881472.114
       236.000         202.000
 -10570765.61749  -8210195.87647  20542985.707    20542985.392    20542994.794
       238.000         203.000
 00  5  3 16 19 29.9970000  0  8G16G 2G26G 4G24G 5G 7G 9
  -2398654.85149  -1854987.39145  24189482.226    24189482.176    24189497.777
       210.000         141.000
   2504259.59549   1951324.56446  21693205.543    21693204.815    21693216.819
       223.000         182.000
   6788169.59648   5284629.93044  24220015.994    24220015.014    24220030.011
       191.000         111.000
 -12020381.18849  -9343461.34147  19755001.347    19755001.392    19755010.483
       237.000         205.000
 -14286211.89749 -11114796.78846  21512590.643    21512590.522    21512602.503
       228.000         181.000
 -10506982.29149  -8174072.67545  22946897.007    22946896.484    22946911.014
       214.000         155.000
   2850299.01449   2220983.58947  20888607.160    20888606.182    20888616.214
       237.000         203.000
 -10616893.19349  -8246139.43447  20534207.908    20534207.585    20534216.983
       239.000         203.000
 00  5  3 16 19 59.9970000  0  8G16G 2G26G 4G24G 5G 7G 9
  -2466378.72149  -1907759.03145  24176594.754    24176594.586    24176610.066
       205.000         138.000
   2542925.49249   1981453.73246  21700563.317    21700562.627    21700574.842
       223.000         180.000
   6847262.50048   5330676.16844  24231261.125    24231260.209    24231275.369
       189.000         108.000
 -12075272.21949  -9386233.55047  19744555.954    19744555.980    19744565.109
       237.000         205.000
 -14399442.69149 -11203028.49846  21491043.449    21491043.354    21491055.277
       229.000         182.000
 -10609511.21549  -8253965.24645  22927386.410    22927385.866    22927400.330
       216.000         157.000
   2888015.16649   2250372.71747  20895784.370    20895783.378    20895793.423
       237.000         203.000
 -10662440.38549  -8281630.74847  20525540.556    20525540.242    20525549.614
       239.000         204.000
 00  5  3 16 20 29.9970000  0  8G16G 2G26G 4G24G 5G 7G 9
  -2533774.34549  -1960274.90845  24163769.700    24163769.462    24163784.892
       206.000         140.000
   2581885.54849   2011812.10146  21707977.073    21707976.419    21707988.824
       222.000         180.000
   6906329.62348   5376702.31444  24242501.299                    24242500.229
       190.000         106.000
 -12129559.67349  -9428535.44247  19734225.430    19734225.432    19734234.581
       237.000         205.000
 -14512378.05449 -11291029.99446  21469552.532    21469552.386    21469564.265
       229.000         181.000
 -10712004.97649  -8333830.41745  22907882.460    22907881.914    22907896.332
       217.000         158.000
   2925891.76249   2279886.87247  20902992.152    20902991.137    20903001.187
       237.000         203.000
 -10707418.00449  -8316678.23847  20516981.600    20516981.285    20516990.637
       239.000         204.000
 00  5  3 16 20 59.9970000  0  8G16G 2G26G 4G24G 5G 7G 9
  -2600819.65549  -2012517.83145  24151011.415    24151011.058    24151026.549
       208.000         141.000
   2621159.03349   2042414.72146  21715450.578    21715449.893    21715462.435
       222.000         179.000
                   5422720.99444  24253739.756
       190.000         107.000
 -12183223.36149  -9470351.27947  19724013.555    19724013.563    19724022.756
       236.000         204.000
 -14624996.38449 -11378784.45646  21448121.917    21448121.749    21448133.596
       229.000         182.000
 -10814443.80849  -8413652.77545  22888389.003    22888388.385    22888402.815
       218.000         159.000
   2963946.33249   2309539.70347  20910233.812    20910232.780    20910242.821
       237.000         203.000
 -10751806.19349  -8351266.42747  20508534.802    20508534.483    20508543.831
       239.000         204.000
 00  5  3 16 21 29.9970000  0  8G16G 2G26G 4G24G 5G 7G 9
  -2667534.61449  -2064503.29845  24138316.076    24138315.591    24138331.207
       206.000         141.000
   2660723.60549   2073244.14246  21722979.571    21722978.808    21722991.416
       222.000         180.000
                   5468712.90144  24264971.672
       187.000         101.000
 -12236284.48349  -9511697.59447  19713916.341    19713916.349    19713925.567
       237.000         204.000
 -14737317.48849 -11466307.31646  21426747.859    21426747.689    21426759.488
       229.000         182.000
 -10916849.04349  -8493448.95945  22868901.911    22868901.287    22868915.648
       218.000         160.000
   3002155.56349   2339313.04547  20917504.925    20917503.849    20917513.905
       237.000         204.000
 -10795625.94249  -8385411.68147  20500196.197    20500195.870    20500205.196
       240.000         204.000
 00  5  3 16 21 59.9970000  0  8G16G 2G26G 4G24G 5G 7G 9
  -2733892.45649  -2116210.51645  24125688.624    24125688.024    24125703.790
       200.000         142.000
   2700603.40549   2104319.20646  21730568.548    21730567.719    21730580.382
       222.000         179.000
                   5514694.34944  24276200.985
       189.000         102.000
 -12288717.89849  -9552554.78547  19703938.584    19703938.589    19703947.807
       236.000         203.000
 -14849314.58649 -11553577.70046  21405435.427    21405435.282    21405447.033
       229.000         182.000
 -11019195.90249  -8573199.64545  22849425.925    22849425.290    22849439.601
       219.000         161.000
   3040542.00649   2369224.47747  20924809.736    20924808.632    20924818.699
       237.000         203.000
 -10838852.32749  -8419094.56847  20491970.503    20491970.154    20491979.474
       240.000         204.000
 00  5  3 16 22 29.9970000  0  8G16G 2G26G 4G24G 5G 7G 9
  -2799913.49149  -2167655.27345  24113125.085    24113124.626    24113140.389
       205.000         143.000
   2740775.35449   2135621.91046  21738213.170    21738212.262    21738224.940
       222.000         180.000
                     28837.44443  24287422.888
       188.000          74.000
 -12340545.53149  -9592939.94447  19694076.123    19694076.131    19694085.330
       237.000         203.000
 -14961008.36749 -11640611.74046  21384180.755    21384180.610    21384192.313
       229.000         182.000
 -11121506.52349  -8652922.10245  22829956.865    22829956.224    22829970.481
       219.000         162.000
   3079081.33549   2399255.04147  20932143.604    20932142.515    20932152.599
       238.000         203.000
 -10881507.78349  -8452332.57347  20483853.474    20483853.104    20483862.383
       240.000         205.000
 00  5  3 16 22 59.9970000  0  8G16G 2G26G 4G24G 5G 7G 9
  -2865584.14649  -2218827.01445  24100628.422    24100627.829    24100643.576
       207.000         145.000
   2781250.65149   2167160.97946  21745915.571    21745914.558    21745927.239
       223.000         178.000
                     74774.25843  24298638.885
       191.000          79.000
 -12391755.36749  -9632843.70347  19684331.209    19684331.216    19684340.365
       236.000         202.000
 -15072385.15049 -11727398.75746  21362986.380    21362986.230    21362997.925
       229.000         182.000
 -11223768.90849  -8732606.97045  22810496.906    22810496.301    22810510.507
       219.000         162.000
   3117783.34149   2429412.36647  20939508.455    20939507.344    20939517.464
       237.000         203.000
 -10923580.18949  -8485116.25547  20475847.384    20475847.010    20475856.248
       240.000         204.000
 00  5  3 16 23 29.9970000  0  8G16G 2G26G 4G24G 5G 7G 9
  -2930919.59649  -2269737.54145  24088195.279    24088194.803    24088210.466
       210.000         145.000
   2822011.31549   2198922.42746  21753672.315    21753671.208    21753683.839
       224.000         181.000
                    120673.87043  24309845.054
       187.000          83.000
 -12442364.15149  -9672279.11547  19674700.678    19674700.656    19674709.788
       236.000         202.000
 -15183460.47249 -11813950.88646  21341849.408    21341849.225    21341860.896
       229.000         182.000
 -11325999.93849  -8812267.41146  22791043.043    22791042.318    22791056.483
       220.000         163.000
   3156628.70449   2459681.40147  20946900.557    20946899.441    20946909.599
       236.000         202.000
 -10965086.61249  -8517458.90947  20467948.979    20467948.581    20467957.824
       240.000         204.000
 00  5  3 16 23 59.9970000  0  8G16G 2G26G 4G24G 5G 7G 9
  -2995893.35049  -2320366.27945  24075831.210    24075830.640    24075846.124
       207.000         147.000
   2863081.25349   2230924.87046  21761487.946    21761486.729    21761499.279
       226.000         182.000
                     24194.95943  24321045.487
       182.000          74.000
 -12492347.14349  -9711226.89947  19665189.187    19665189.202    19665198.293
       235.000         202.000
 -15294207.54749 -11900247.22846  21320774.870    21320774.730    21320786.353
       230.000         183.000
 -11428174.88649  -8891884.13546  22771599.679    22771599.034    22771613.147
       218.000         164.000
   3195640.27649   2490079.94747  20954324.249    20954323.150    20954333.340
       236.000         202.000
 -11006002.09649  -8549341.08847  20460162.978    20460162.618    20460171.843
       239.000         204.000
 00  5  3 16 24 29.9970000  0  8G16G 2G26G 4G24G 5G 7G 9
  -3060502.09849  -2370710.58745  24063536.301    24063535.912    24063551.292
       209.000         143.000
   2904461.32149   2263168.98146  21769362.551    21769361.282    21769373.743
       224.000         180.000
                     70056.21443  24332239.828
       187.000          83.000
 -12541702.47649  -9749685.59947  19655797.182    19655797.187    19655806.243
       236.000         202.000
 -15404623.30349 -11986285.41146  21299763.432    21299763.248    21299774.843
       230.000         183.000
 -11530292.09749  -8971455.87546  22752167.345    22752166.732    22752180.746
       220.000         164.000
   3234817.33549   2520607.43347  20961779.413    20961778.346    20961788.584
       236.000         201.000
 -11046325.21649  -8580761.68947  20452489.702    20452489.369    20452498.592
       240.000         204.000
 00  5  3 16 24 59.9970000  0  8G16G 2G26G 4G24G 5G 7G 9
  -3124753.44549  -2420776.38845  24051309.527    24051309.091    24051324.351
       206.000         146.000
   2946140.96549   2295646.52146  21777294.120    21777292.802    21777305.158
       225.000         180.000
                    115892.44943  24343425.434
       186.000          91.000
 -12590439.45649  -9787662.46947  19646522.841    19646522.831    19646531.853
       237.000         202.000
 -15514715.63249 -12072071.55746  21278813.525    21278813.333    21278824.910
       230.000         184.000
 -11632360.99549  -9050989.97246  22732744.320    22732743.636    22732757.527
       220.000         165.000
   3274148.39549   2551254.93347  20969263.893    20969262.848    20969273.117
       236.000         201.000
 -11086065.55249  -8611728.16447  20444927.403    20444927.060    20444936.271
       240.000         205.000
 00  5  3 16 25 29.9970000  0  8G16G 2G26G 4G24G 5G 7G 9
  -3188642.79649  -2470560.12345  24039151.560    24039151.217    24039166.493
       205.000         147.000
   2988122.51549   2328359.29046  21785283.158    21785281.808    21785294.031
       226.000         180.000
                     19564.62543  24354602.319
       185.000          74.000
 -12638555.09949  -9825155.18847  19637366.740    19637366.747    19637375.736
       237.000         203.000
 -15624479.63049 -12157601.87646  21257926.110    21257925.904    21257937.445
       231.000         184.000
 -11734378.28449  -9130483.86846  22713331.032    22713330.354    22713344.138
       219.000         164.000
   3313634.37949   2582023.14647  20976777.881    20976776.836    20976787.107
       236.000         200.000
 -11125219.95649  -8642238.07247  20437476.602    20437476.227    20437485.447
       240.000         205.000
 00  5  3 16 25 59.9970000  0  8G16G 2G26G 4G24G 5G 7G 9
  -3252160.99249  -2520054.65245  24027064.394    24027063.970    24027079.238
       202.000         146.000
   3030412.26149   2361312.23246  21793330.875    21793329.474    21793341.574
       226.000         182.000
                     65221.62743  24365770.971
       180.000          72.000
 -12686042.34049  -9862158.23547  19628330.249    19628330.229    19628339.221
       237.000         204.000
 -15733906.68549 -12242869.63046  21237102.814    21237102.588    21237114.086
       231.000         185.000
 -11836336.86249  -9209931.98846  22693928.891    22693928.217    22693941.940
       219.000         163.000
   3353280.16149   2612915.87547  20984322.244    20984321.234    20984331.498
       236.000         200.000
 -11163781.55649  -8672286.05347  20430138.566    20430138.205    20430147.438
       239.000         205.000
 00  5  3 16 26 29.9970000  0  8G16G 2G26G 4G24G 5G 7G 9
  -3315313.11249  -2569263.93045  24015046.775    24015046.432    24015061.731
       202.000         147.000
   3073002.79549   2394499.54546  21801435.806    21801434.391    21801446.356
       228.000         183.000
                    110783.58343  24376929.822
       177.000          86.000
 -12732907.31149  -9898676.40447  19619412.164    19619412.134    19619421.113
       237.000         204.000
 -15843001.65149 -12327878.61846  21216342.668    21216342.467    21216353.943
       231.000         185.000
 -11938243.17649  -9289339.40745  22674536.630    22674536.015    22674549.673
       218.000         161.000
   3393077.31149   2643926.54147  20991895.464    20991894.433    20991904.697
       236.000         200.000
 -11201756.86349  -8701877.19147  20422912.107    20422911.731    20422920.967
       239.000         205.000
 00  5  3 16 26 59.9970000  0  8G16G 2G26G 4G24G 5G 7G 9
  -3378078.24049  -2618171.63845  24003102.923    24003102.579    24003117.768
       202.000         144.000
   3115912.32649   2427935.42346  21809601.383    21809599.995    21809611.846
       228.000         183.000
                     14957.50353  24388081.732
       175.000          74.000
 -12779130.89649  -9934694.78647  19610616.141    19610616.085    19610625.075
       236.000         204.000
 -15951743.56249 -12412612.49346  21195649.724    21195649.532    21195660.992
       231.000         186.000
 -12040078.01849  -9368691.09846  22655157.916    22655157.386    22655171.090
       217.000         163.000
   3433042.85249   2675068.42347  20999500.713    20999499.693    20999509.930
       236.000         200.000
 -11239126.87049  -8730996.66647  20415800.810    20415800.449    20415809.714
       238.000         205.000
 00  5  3 16 27 29.9970000  0  8G16G 2G26G 4G24G 5G 7G 9
  -3440467.53049  -2666786.51445  23991230.600    23991230.177    23991245.369
       200.000         148.000
   3159126.96149   2461609.04746  21817825.030    21817823.654    21817835.411
       228.000         183.000
                     60549.20953  24399223.344
       170.000          85.000
 -12824726.23449  -9970223.62547  19601939.620    19601939.581    19601948.569
       236.000         203.000
 -16060143.77949 -12497080.11146  21175021.815    21175021.597    21175033.061
       231.000         187.000
 -12141854.20049  -9447997.10146  22635790.429    22635789.909    22635803.646
       218.000         163.000
   3473161.82349   2706329.86147  21007135.171    21007134.151    21007144.377
       236.000         200.000
 -11275904.67549  -8759654.69347  20408802.150    20408801.829    20408811.135
       238.000         205.000
 00  5  3 16 27 59.9970000  0  8G16G 2G26G 4G24G 5G 7G 9
  -3502489.17949  -2715114.91945  23979428.308    23979427.848    23979443.058
       208.000         153.000
   3202635.79749   2495511.91646  21826104.668    21826103.278    21826114.982
       227.000         182.000
                    106055.82653  24410352.314
       170.000          83.000
 -12869703.19349 -10005270.61147  19593380.804    19593380.763    19593389.773
       236.000         204.000
 -16168210.65249 -12581287.98046  21154457.319    21154457.088    21154468.562
       231.000         187.000
 -12243581.53549  -9527265.03746  22616432.214    22616431.715    22616445.560
       216.000         165.000
   3513421.95049   2737701.29447  21014796.500    21014795.488    21014805.690
       236.000         200.000
 -11312100.25849  -8787859.03447  20401914.297    20401913.995    20401923.341
       237.000         205.000
 00  5  3 16 28 29.9970000  0  8G16G 2G26G 4G24G 5G 7G 9
  -3564121.34849  -2763139.82645  23967700.164    23967699.593    23967714.844
       211.000         157.000
   3246458.52549   2529659.37846  21834444.026    21834442.622    21834454.287
       228.000         181.000
                     10361.07853  24421471.847
       161.000          74.000
 -12914041.67349 -10039820.08047  19584943.491    19584943.446    19584952.475
       236.000         204.000
 -16275922.19849 -12665218.96346  21133960.382    21133960.206    21133971.686
       231.000         187.000
 -12345239.27249  -9606478.73046  22597087.243    22597086.794    22597100.726
       217.000         164.000
   3553841.86449   2769197.24347  21022488.260    21022487.229    21022497.414
       236.000         200.000
 -11347693.34949  -8815593.90147  20395141.114    20395140.812    20395150.208
       238.000         205.000
 00  5  3 16 28 59.9970000  0  8G16G 2G26G 4G24G 5G 7G 9
  -3625355.70449  -2810854.75545  23956047.621    23956047.040    23956062.283
       214.000         160.000
   3290600.56049   2564055.68746  21842844.107    21842842.724    21842854.358
       228.000         182.000
                     55858.69953  24432582.421
       165.000          76.000
 -12957735.14549 -10073866.94547  19576628.911    19576628.869    19576637.900
       235.000         204.000
 -16383270.38549 -12748866.81046  21113532.615    21113532.435    21113543.951
       230.000         187.000
 -12446820.96249  -9685633.19346  22577756.708    22577756.300    22577770.313
       216.000         165.000
   3594425.88349   2800821.06847  21030211.264    21030210.207    21030220.374
       236.000         200.000
 -11382677.71749  -8842854.43647  20388483.796    20388483.491    20388492.914
       238.000         205.000
 00  5  3 16 29 29.9970000  0  8G16G 2G26G 4G24G 5G 7G 9
  -3686212.53649  -2858275.52445  23944466.890    23944466.349    23944481.609
       213.000         158.000
   3335039.06249   2598682.97646  21851300.592    21851299.244    21851310.831
       228.000         181.000
                    101301.88053  24443678.753
       167.000          86.000
 -13000805.51949 -10107428.28247  19568432.916    19568432.861    19568441.901
       235.000         204.000
 -16490275.40549 -12832247.25447  21093170.110    21093169.975    21093181.500
       231.000         188.000
 -12548348.29549  -9764745.28746  22558436.514    22558436.146    22558450.232
       218.000         166.000
   3635150.02049   2832554.07747  21037960.902    21037959.832    21037970.007
       236.000         200.000
 -11417075.44549  -8869657.84647  20381938.152    20381937.826    20381947.242
       240.000         206.000
 00  5  3 16 29 59.9970000  0  8G16G 2G26G 4G24G 5G 7G 9
  -3746689.64649  -2905400.40745  23932958.369    23932957.854    23932973.109
       211.000         158.000
   3379773.40649   2633540.81946  21859813.351    21859812.030    21859823.610
       227.000         181.000
                      5789.48553  24454760.876
       168.000          74.000
 -13043252.78549 -10140504.07747  19560355.457    19560355.417    19560364.459
       235.000         203.000
 -16596935.25249 -12915358.72347  21072873.326    21072873.192    21072884.743
       231.000         188.000
 -12649820.90149  -9843814.73946  22539126.816    22539126.444    22539140.549
       219.000         168.000
   3676012.53249   2864394.91347  21045736.863    21045735.781    21045745.982
       236.000         200.000
 -11450886.43449  -8896004.05047  20375504.173    20375503.827    20375513.236
       241.000         206.000
 00  5  3 16 30 29.9970000  0  8G16G 2G26G 4G24G 5G 7G 9
  -3806760.12749  -2952208.39245  23921527.199    23921526.675    23921542.015
       207.000         155.000
   3424828.47249   2668648.53546  21868387.027    21868385.811    21868397.421
       224.000         180.000
                     51093.69953  24465833.078
       169.000          70.000
 -13085051.41749 -10173074.44847  19552401.450    19552401.407    19552410.457
       236.000         203.000
 -16703222.96249 -12998180.22647  21052647.356    21052647.245    21052658.798
       231.000         189.000
 -12751212.96249  -9922821.43646  22519832.396    22519832.050    22519846.233
       222.000         168.000
   3717037.02349   2896361.96447  21053543.609    21053542.549    21053552.793
       236.000         200.000
 -11484085.47949  -8921873.41747  20369186.700    20369186.303    20369195.643
       242.000         206.000
 00  5  3 16 30 59.9970000  0  7G16G 2G 4G24G 5G 7G 9
  -3866431.97249  -2998705.75445  23910171.778    23910171.337    23910186.651
       203.000         154.000
   3470193.08649   2703997.46246  21877019.573    21877018.435    21877030.141
       223.000         178.000
 -13126211.57749 -10205147.30547  19544568.932    19544568.887    19544577.916
       235.000         202.000
 -16809146.53749 -13080717.97747  21032490.713    21032490.571    21032502.133
       231.000         189.000
 -12852533.98049 -10001772.76646  22500551.571    22500551.215    22500565.380
       220.000         168.000
   3758211.45749   2928445.85947  21061378.902    21061377.842    21061388.147
       235.000         200.000
 -11516682.78449  -8947273.89347  20362983.679    20362983.274    20362992.556
       242.000         206.000
 00  5  3 16 31 29.9970000  0  7G16G 2G 4G24G 5G 7G 9
  -3925700.86249  -3044889.10745  23898893.229    23898892.692    23898908.060
       209.000         153.000
   3515869.47649   2739589.33546  21885711.421    21885710.370    21885722.170
       223.000         176.000
 -13166730.53249 -10236720.52347  19536858.402    19536858.370    19536867.394
       235.000         202.000
 -16914701.64049 -13162968.61247  21012404.197    21012404.011    21012415.578
       231.000         189.000
 -12953780.67549 -10080666.19546  22481284.985    22481284.557    22481298.665
       222.000         168.000
   3799536.89649   2960647.42647  21069242.901    21069241.866    21069252.226
       235.000         200.000
 -11548675.70949  -8972203.42347  20356895.675    20356895.259    20356904.459
       242.000         206.000
 00  5  3 16 31 59.9970000  0  7G16G 2G 4G24G 5G 7G 9
  -3984577.37149  -3090766.71145  23887689.387    23887688.801    23887704.040
       210.000         155.000
   3561844.48249   2775413.90446  21894460.138    21894459.131    21894471.035
       222.000         175.000
 -13206620.64249 -10267803.72447  19529267.553    19529267.521    19529276.553
       235.000         202.000
 -17019898.81849 -13244940.35047  20992385.745    20992385.579    20992397.150
       231.000         189.000
 -13054965.25349 -10159511.22846  22462030.228    22462029.736    22462043.783
       223.000         169.000
   3840999.20049   2992955.63647  21077132.943    21077131.930    21077142.388
       235.000         200.000
 -11580076.44049  -8996671.50447  20350920.313    20350919.893    20350929.058
       241.000         205.000
 00  5  3 16 32 29.9970000  0  7G16G 2G 4G24G 5G 7G 9
  -4043064.22749  -3136340.70845  23876559.673    23876559.010    23876574.170
       208.000         156.000
   3608112.53649   2811466.81546  21903264.674    21903263.683    21903275.663
       223.000         174.000
 -13245886.74249 -10298400.68647  19521795.448    19521795.411    19521804.483
       234.000         202.000
 -17124741.02049 -13326635.48047  20972434.874    20972434.723    20972446.259
       232.000         190.000
 -13156092.04949 -10238311.23646  22442786.454    22442785.904    22442799.888
       223.000         168.000
   3882591.97149   3025365.50347  21085047.851    21085046.844    21085057.361
       235.000         201.000
 -11610890.00149  -9020682.05747  20345056.660    20345056.258    20345065.395
       241.000         205.000
 00  5  3 16 32 59.9970000  0  7G16G 2G 4G24G 5G 7G 9
  -4101144.28949  -3181597.71045  23865507.366    23865506.688    23865521.716
       211.000         156.000
   3654688.11649   2847759.39346  21912127.718    21912126.756    21912138.802
       223.000         175.000
 -13284513.43649 -10328499.41147  19514445.007    19514444.999    19514454.053
       234.000         202.000
 -17229211.08949 -13408040.64747  20952554.806    20952554.655    20952566.181
       232.000         189.000
 -13257145.21549 -10317053.86046  22423556.640    22423556.065    22423569.973
       222.000         168.000
   3924328.67949   3057887.54147  21092990.164    21092989.147    21092999.740
       235.000         200.000
 -11641101.23249  -9044223.26247  20339307.592    20339307.215    20339316.351
       240.000         204.000
 00  5  3 16 33 29.9970000  0  7G16G 2G 4G24G 5G 7G 9
  -4158816.57749  -3226536.99145  23854532.736    23854532.025    23854546.782
       211.000         155.000
   3701569.75249   2884290.42946  21921049.032    21921048.078    21921060.167
       222.000         175.000
 -13322501.72649 -10358100.67347  19507216.077    19507216.069    19507225.128
       235.000         202.000
 -17333308.08949 -13489155.09847  20932745.794    20932745.599    20932757.097
       233.000         190.000
 -13358125.05649 -10395739.34946  22404340.764    22404340.199    22404354.074
       222.000         168.000
   3966206.68749   3090519.67447  21100959.357    21100958.340    21100968.976
       235.000         201.000
 -11670711.24549  -9067295.98947  20333672.916    20333672.569    20333681.732
       239.000         204.000
 00  5  3 16 33 59.9970000  0  7G16G 2G 4G24G 5G 7G 9
  -4216079.09649  -3271156.96445  23843636.023    23843635.327    23843649.880
       212.000         154.000
   3748756.89749   2921059.49846  21930028.442    21930027.495    21930039.659
       220.000         173.000
 -13359851.55949 -10387204.44147  19500108.682    19500108.656    19500117.688
       235.000         203.000
 -17437030.23249 -13569977.47247  20913008.065    20913007.876    20913019.328
       233.000         190.000
 -13459030.89049 -10474367.18146  22385138.992    22385138.441    22385152.221
       223.000         169.000
   4008224.51149   3123260.75547  21108955.199    21108954.159    21108964.807
       235.000         200.000
 -11699719.97849  -9089900.18647  20328152.656    20328152.345    20328161.548
       239.000         204.000
 00  5  3 16 34 29.9970000  0  7G16G 2G 4G24G 5G 7G 9
  -4272926.60849  -3315453.58345  23832818.307    23832817.575    23832831.872
       210.000         154.000
   3796252.42849   2958068.88846  21939066.507    21939065.600    21939077.863
       220.000         171.000
 -13396559.45449 -10415807.99347  19493123.452    19493123.392    19493132.392
       235.000         203.000
 -17540371.98449 -13650503.43147  20893342.729    20893342.534    20893353.963
       234.000         191.000
 -13559858.65249 -10552934.14746  22365952.100    22365951.501    22365965.256
       223.000         169.000
   4050383.98449   3156112.21947  21116977.946    21116976.911    21116987.573
       235.000         200.000
 -11728124.04249  -9112033.20947  20322747.526    20322747.206    20322756.423
       240.000         205.000
 00  5  3 16 34 59.9970000  0  7G16G 2G 4G24G 5G 7G 9
  -4329350.96049  -3359420.46345  23822080.890    23822080.258    23822094.424
       212.000         156.000
   3844061.79949   2995322.82446  21948164.321    21948163.432    21948175.779
       219.000         172.000
 -13432619.37349 -10443906.63147  19486261.519    19486261.454    19486270.423
       235.000         202.000
 -17643325.27249 -13730726.69547  20873751.316    20873751.119    20873762.513
       233.000         191.000
 -13660601.36049 -10631434.86046  22346781.327    22346780.740    22346794.454
       222.000         168.000
   4092689.61549   3189077.57147  21125028.522    21125027.475    21125038.136
       235.000         199.000
 -11755917.27349  -9133690.25747  20317458.677    20317458.344    20317467.551
       240.000         206.000
 00  5  3 16 35 29.9970000  0  7G16G 2G 4G24G 5G 7G 9
  -4385340.50549  -3403048.52945  23811426.094    23811425.638    23811439.831
       210.000         155.000
   3892194.39549   3032828.62546  21957323.631    21957322.760    21957335.222
       220.000         171.000
 -13468021.44549 -10471492.66047  19479524.759    19479524.685    19479533.618
       235.000         202.000
 -17745878.44749 -13810638.18747  20854236.022    20854235.845    20854247.221
       234.000         191.000
 -13761248.61849 -10709861.17746  22327628.695    22327628.172    22327641.839
       222.000         168.000
   4135149.84549   3222163.39147  21133108.504    21133107.456    21133118.119
       235.000         198.000
 -11783090.01349  -9154863.80647  20312287.933    20312287.565    20312296.771
       241.000         206.000
 00  5  3 16 35 59.9970000  0  7G16G 2G 4G24G 5G 7G 9
  -4440892.97149  -3446336.03445  23800854.512    23800854.134    23800868.399
       211.000         156.000
   3940649.65249   3070585.84846  21966544.334    21966543.497    21966556.022
       219.000         169.000
 -13502765.42449 -10498565.89047  19472913.207    19472913.136    19472922.045
       234.000         202.000
 -17848029.12149 -13890236.04247  20834797.328    20834797.165    20834808.518
       234.000         192.000
 -13861799.40849 -10788212.33346  22308494.497    22308493.913    22308507.529
       223.000         168.000
   4177763.43049   3255368.70847  21141217.639    21141216.613    21141227.282
       235.000         198.000
 -11809642.10349  -9175553.72947  20307235.260    20307234.883    20307244.085
       241.000         206.000
 00  5  3 16 36 29.9970000  0  7G16G 2G 4G24G 5G 7G 9
  -4496030.82949  -3489300.48245  23790361.966    23790361.532    23790375.926
       209.000         158.000
   3989402.45249   3108574.96046  21975821.685    21975820.864    21975833.468
       217.000         167.000
 -13536875.87049 -10525145.45747  19466422.193    19466422.132    19466431.054
       235.000         202.000
 -17949799.96549 -13969537.94047  20815430.905    20815430.759    20815442.090
       234.000         192.000
 -13962277.64349 -10866506.95146  22289374.111    22289373.475    22289387.026
       222.000         164.000
   4220504.17249   3288673.10747  21149350.947    21149349.938    21149360.670
       233.000         197.000
 -11835597.92449  -9195779.03147  20302296.051    20302295.666    20302304.867
       241.000         206.000
 00  5  3 16 36 59.9970000  0  7G16G 2G 4G24G 5G 7G 9
  -4550732.02049  -3531924.69245  23779952.321    23779951.982    23779966.548
       210.000         156.000
   4038472.15949   3146810.97546  21985159.324    21985158.536    21985171.266
       214.000         168.000
 -13570332.85049 -10551215.83147  19460055.525    19460055.487    19460064.451
       234.000         202.000
 -18051169.09849 -14048526.80847  20796140.990    20796140.795    20796152.151
       234.000         193.000
 -14062662.30849 -10944728.64846  22270271.424    22270270.839    22270284.376
       222.000         168.000
   4263390.94849   3322091.30147  21157512.041    21157511.056    21157521.879
       234.000         197.000
 -11860937.55049  -9215524.17847  20297474.048    20297473.689    20297482.937
       241.000         206.000
 00  5  3 16 37 29.9970000  0  7G16G 2G 4G24G 5G 7G 9
  -4604993.00549  -3574205.86345  23769626.651    23769626.288    23769640.896
       206.000         153.000
   4087860.36149   3185295.16646  21994557.810    21994556.900    21994569.717
       218.000         173.000
 -13603134.09549 -10576775.24047  19453813.629    19453813.610    19453822.624
       234.000         201.000
 -18152132.31949 -14127199.38047  20776928.268    20776928.088    20776939.463
       234.000         193.000
 -14162950.68349 -11022875.29946  22251187.001    22251186.498    22251200.031
       220.000         169.000
   4306424.04749   3355623.51647  21165701.051    21165700.022    21165710.917
       234.000         197.000
 -11885659.24349  -9234787.82647  20292769.651    20292769.297    20292778.582
       240.000         206.000
 00  5  3 16 37 59.9970000  0  7G16G 2G 4G24G 5G 7G 9
  -4658832.99449  -3616159.03645  23759380.866    23759380.626    23759395.227
       204.000         148.000
   4137545.01549   3224010.35346  22004012.586    22004011.652    22004024.585
       218.000         174.000
 -13635301.67649 -10601840.88547  19447692.325    19447692.303    19447701.349
       234.000         202.000
 -18252709.59049 -14205571.21847  20757789.001    20757788.813    20757800.226
       234.000         193.000
 -14263163.41049 -11100963.01046  22232117.081    22232116.551    22232130.065
       222.000         169.000
   4349580.56249   3389251.89647  21173913.503    21173912.497    21173923.427
       233.000         197.000
 -11909784.67749  -9253586.86047  20288178.704    20288178.358    20288187.675
       240.000         206.000
 00  5  3 16 38 29.9970000  0  7G16G 2G 4G24G 5G 7G 9
  -4712250.09849  -3657782.69145  23749215.758    23749215.516    23749230.080
       207.000         147.000
   4187525.55249   3262956.08946  22013523.660    22013522.726    22013535.797
       218.000         176.000
 -13666835.41849 -10626412.63247  19441691.653    19441691.641    19441700.683
       234.000         201.000
 -18352898.64849 -14283640.55447  20738723.629    20738723.431    20738734.862
       235.000         194.000
 -14363299.72149 -11178991.18846  22213061.649    22213061.125    22213074.624
       222.000         169.000
   4392859.28849   3422975.50747  21182149.252    21182148.215    21182159.184
       233.000         197.000
 -11933313.92149  -9271921.33247  20283701.214    20283700.870    20283710.209
       240.000         205.000
 00  5  3 16 38 59.9970000  0  7G16G 2G 4G24G 5G 7G 9
  -4765228.32449  -3699064.35945  23739134.248    23739133.932    23739148.446
       210.000         145.000
   4237815.48949   3302142.91646  22023093.644    22023092.683    22023105.853
       218.000         174.000
 -13697721.50849 -10650479.71447  19435814.268    19435814.226    19435823.277
       234.000         201.000
 -18452683.51249 -14361394.92947  20719735.181    20719734.950    20719746.387
       235.000         195.000
 -14463344.58749 -11256948.10746  22194023.668    22194023.140    22194036.579
       222.000         168.000
   4436272.85749   3456804.19347  21190410.614    21190409.590    21190420.617
       233.000         197.000
 -11956233.05949  -9289780.40047  20279339.793    20279339.489    20279348.845
       240.000         205.000
 00  5  3 16 39 29.9970000  0  7G16G 2G 4G24G 5G 7G 9
  -4817767.70649  -3740004.06345  23729136.218    23729135.894    23729150.360
       210.000         147.000
   4288412.19749   3341568.78446  22032722.069    22032721.021    22032734.291
       219.000         174.000
 -13727961.70949 -10674043.51047  19430059.735    19430059.698    19430068.762
       233.000         201.000
 -18552064.09749 -14438834.28947  20700823.686    20700823.415    20700834.855
       236.000         195.000
 -14563299.02449 -11334834.56446  22175002.844    22175002.329    22175015.706
       222.000         168.000
   4479818.04149   3490735.43547  21198697.005    21198696.003    21198707.102
       233.000         197.000
 -11978543.79749  -9307165.39447  20275094.154    20275093.859    20275103.253
       240.000         205.000
 00  5  3 16 39 59.9970000  0  7G16G 2G 4G24G 5G 7G 9
  -4869864.58649  -3780598.96045  23719222.460    23719222.085    23719236.371
       211.000         146.000
   4339316.79349   3381234.56046  22042409.026    22042407.967    22042421.295
       216.000         172.000
 -13757554.78249 -10697103.05147  19424428.356    19424428.314    19424437.413
       234.000         201.000
 -18651036.80849 -14515955.82247  20681989.764    20681989.500    20682000.936
       235.000         195.000
 -14663160.75449 -11412648.77946  22155999.654    22155999.163    22156012.521
       222.000         169.000
   4523494.92149   3524769.30147  21207008.526    21207007.496    21207018.625
       234.000         197.000
 -12000244.79149  -9324075.26047  20270964.574    20270964.273    20270973.692
       240.000         205.000
 00  5  3 16 40 29.9970000  0  7G16G 2G 4G24G 5G 7G 9
  -4921512.19149  -3820843.75145  23709394.207    23709393.834    23709407.960
       211.000         148.000
   4390533.54849   3421143.57546  22052155.449    22052154.300    22052167.669
       215.000         170.000
 -13786495.92849 -10719654.59847  19418921.035    19418921.000    19418930.111
       233.000         202.000
 -18749595.04349 -14592754.38747  20663234.725    20663234.461    20663245.888
       235.000         195.000
 -14762923.83949 -11490386.12546  22137015.276    22137014.803    22137028.110
       222.000         170.000
   4567307.15549   3558908.63547  21215345.771    21215344.757    21215355.897
       233.000         197.000
 -12021331.57949  -9340506.52847  20266951.885    20266951.585    20266961.019
       240.000         205.000
 00  5  3 16 40 59.9970000  0  7G16G 2G 4G24G 5G 7G 9
  -4972717.60449  -3860743.95045  23699649.999    23699649.664    23699663.839
       208.000         149.000
   4442053.06149   3461288.50746  22061959.431    22061958.259    22061971.651
       216.000         169.000
 -13814794.29149 -10741705.27047  19413536.063    19413536.018    19413545.122
       234.000         202.000
 -18847745.63849 -14669235.30547  20644557.230    20644556.997    20644568.416
       235.000         195.000
 -14862596.35049 -11568052.90746  22118048.132    22118047.656    22118060.930
       222.000         171.000
   4611244.46149   3593145.42547  21223706.859    21223705.819    21223716.961
       234.000         196.000
 -12041813.13649  -9356466.18647  20263054.369    20263054.058    20263063.531
       240.000         205.000
 00  5  3 16 41 29.9970000  0  7G16G 2G 4G24G 5G 7G 9
  -5023474.31349  -3900294.50545  23689991.138    23689990.888    23690005.116
       209.000         150.000
   4493878.95349   3501672.17346  22071821.687    22071820.503    22071833.921
       217.000         169.000
 -13842445.55649 -10763251.71747  19408274.212    19408274.151    19408283.306
       233.000         202.000
 -18945482.29949 -14745393.68247  20625958.549    20625958.296    20625969.709
       235.000         195.000
 -14962172.83249 -11645644.85246  22099099.202    22099098.797    22099112.053
       221.000         171.000
   4655310.01849   3627482.15947  21232092.326    21232091.280    21232102.441
       233.000         196.000
 -12061685.16949  -9371950.89347  20259272.851    20259272.536    20259282.025
       240.000         206.000
 00  5  3 16 41 59.9970000  0  7G16G 2G 4G24G 5G 7G 9
  -5073782.26749  -3939495.35245  23680417.722    23680417.510    23680431.747
       210.000         150.000
   4546008.93849   3542292.80146  22081741.839    22081740.622    22081754.048
       217.000         170.000
 -13869451.84249 -10784295.58347  19403135.086    19403135.032    19403144.214
       234.000         202.000
 -19042804.85149 -14821229.37447  20607438.658    20607438.391    20607449.811
       235.000         196.000
 -15061654.05749 -11723162.56646  22080168.436    22080168.040    22080181.307
       222.000         171.000
   4699500.75849   3661916.43247  21240501.577    21240500.548    21240511.736
       233.000         196.000
 -12080949.99249  -9386962.44947  20255606.903    20255606.563    20255616.078
       240.000         206.000
 00  5  3 16 42 29.9970000  0  7G16G 2G 4G24G 5G 7G 9
  -5123638.62549  -3978344.29045  23670930.309    23670930.058    23670944.311
       207.000         148.000
   4598443.66749   3583150.89046  22091719.965    22091718.756    22091732.181
       219.000         172.000
 -13895812.43449 -10804836.31247  19398118.828    19398118.762    19398127.975
       233.000         202.000
 -19139710.35149 -14896740.13447  20588998.126    20588997.856    20589009.237
       236.000         196.000
 -15161038.08849 -11800604.56046  22061256.187    22061255.756    22061269.041
       221.000         171.000
   4743816.40949   3696448.03447  21248934.615    21248933.594    21248944.806
       233.000         196.000
 -12099606.61049  -9401500.08247  20252056.699    20252056.339    20252065.866
       240.000         206.000
 00  5  3 16 42 59.9970000  0  7G16G 2G 4G24G 5G 7G 9
  -5173033.93749  -4016833.97545  23661530.498    23661530.342    23661544.501
       210.000         147.000
   4651189.92249   3624251.71646  22101757.444    22101756.180    22101769.613
       220.000         173.000
 -13921519.75049 -10824867.99347  19393226.869    19393226.821    19393236.046
       233.000         202.000
 -19236188.94349 -14971918.19947  20570638.810    20570638.555    20570649.918
       235.000         195.000
 -15260316.39749 -11877964.16746  22042364.073    22042363.608    22042376.900
       222.000         171.000
   4788263.28949   3731081.90447  21257392.681    21257391.635    21257402.849
       233.000         196.000
 -12117647.82349  -9415558.16747  20248623.612    20248623.225    20248632.765
       240.000         206.000
 00  5  3 16 43 29.9970000  0  7G16G 2G 4G24G 5G 7G 9
  -5221968.96449  -4054964.96345  23652218.244    23652218.181    23652232.467
       209.000         148.000
   4704244.49749   3665592.79746  22111853.512    22111852.276    22111865.690
       221.000         171.000
 -13946576.94949 -10844393.10247  19388458.658    19388458.619    19388467.839
       233.000         202.000
 -19332241.82549 -15046764.56747  20552360.488    20552360.251    20552371.600
       235.000         195.000
 -15359490.50349 -11955242.59046  22023491.709    22023491.285    22023504.548
       221.000         172.000
   4832837.58749   3765815.04947  21265874.970    21265873.918    21265885.110
       233.000         195.000
 -12135076.57649  -9429139.02247  20245307.088    20245306.658    20245316.185
       240.000         206.000
 00  5  3 16 43 59.9970000  0  7G16G 2G 4G24G 5G 7G 9
  -5270434.60349  -4092730.22045  23642995.438    23642995.324    23643009.543
       210.000         149.000
   4757613.98349   3707179.25746  22122009.489    22122008.261    22122021.701
       218.000         170.000
 -13970976.99349 -10863406.13847  19383815.525    19383815.445    19383824.677
       234.000         202.000
 -19427859.57249 -15121271.81247  20534165.010    20534164.770    20534176.096
       235.000         195.000
 -15458552.20449 -12032433.42246  22004640.704    22004640.332    22004653.581
       222.000         171.000
   4877545.17149   3800652.06147  21274382.609    21274381.552    21274392.727
       233.000         195.000
 -12151885.87849  -9442237.18647  20242108.383    20242107.961    20242117.482
       240.000         206.000
 00  5  3 16 44 29.9970000  0  7G16G 2G 4G24G 5G 7G 9
  -5318421.78549  -4130122.64845  23633863.624    23633863.524    23633877.704
       209.000         150.000
   4811305.24149   3749016.44346  22132226.764    22132225.518    22132238.915
       219.000         168.000
 -13994712.83049 -10881901.60747  19379298.751    19379298.687    19379307.914
       233.000         201.000
 -19523032.91249 -15195432.74647  20516054.075    20516053.836    20516065.173
       236.000         196.000
 -15557493.03549 -12109530.06246  21985812.719    21985812.416    21985825.615
       222.000         171.000
   4922392.41049   3835597.89047  21282916.795    21282915.753    21282926.926
       234.000         195.000
 -12168068.42849  -9454846.97147  20239028.941    20239028.540    20239038.036
       240.000         206.000
 00  5  3 16 44 59.9970000  0  7G16G 2G 4G24G 5G 7G 9
  -5365937.69649  -4167147.84945  23624821.529    23624821.407    23624835.556
       210.000         150.000
   4865308.40949   3791096.67646  22142503.367    22142502.083    22142515.492
       218.000         167.000
 -14017794.10449 -10899887.03247  19374906.500    19374906.461    19374915.690
       233.000         201.000
 -19617769.47349 -15269253.37447  20498026.272    20498026.011    20498037.347
       236.000         196.000
 -15656321.36049 -12186539.04146  21967006.325    21967005.936    21967019.091
       222.000         172.000
   4967368.68249   3870644.27147  21291475.551    21291474.520    21291485.699
       233.000         195.000
 -12183634.04849  -9466976.03547  20236066.920    20236066.491    20236075.989
       240.000         205.000
 00  5  3 16 45 29.9970000  0  7G16G 2G 4G24G 5G 7G 9
  -5412971.15649  -4203797.13245  23615871.226    23615871.158    23615885.235
       208.000         153.000
   4919632.36449   3833426.89546  22152840.944    22152839.699    22152853.090
       217.000         165.000
 -14040211.71749 -10917355.31747  19370640.563    19370640.534    19370649.776
       233.000         201.000
 -19712057.73449 -15342724.67547  20480083.784    20480083.514    20480094.812
       236.000         197.000
 -15755026.70249 -12263452.18746  21948223.256    21948222.843    21948235.973
       223.000         172.000
   5012482.32549   3905797.69147  21300060.433    21300059.417    21300070.587
       232.000         194.000
 -12198573.42449  -9478617.11447  20233224.043    20233223.629    20233233.124
       240.000         205.000
 00  5  3 16 45 59.9960000  0  7G16G 2G 4G24G 5G 7G 9
  -5459531.02849  -4240077.36345  23607011.063    23607010.951    23607025.083
       209.000         154.000
   4974262.54749   3875995.71446  22163236.857    22163235.589    22163248.978
       218.000         165.000
 -14061977.64549 -10934315.79747  19366498.658    19366498.607    19366507.859
       234.000         202.000
 -19805904.75049 -15415852.15647  20462225.229    20462224.969    20462236.262
       236.000         197.000
 -15853616.68249 -12340275.43646  21929462.253    21929461.720    21929474.812
       223.000         173.000
   5057718.40949   3941046.51447  21308668.570    21308667.599    21308678.808
       233.000         194.000
 -12212898.70149  -9489779.68147  20230498.046    20230497.637    20230507.094
       240.000         206.000
 00  5  3 16 46 29.9960000  0  7G16G 2G 4G24G 5G 7G 9
  -5505626.29749  -4275995.58545  23598239.416    23598239.237    23598253.266
       209.000         154.000
   5029193.92249   3918799.23646  22173690.039    22173688.766    22173702.214
       218.000         166.000
 -14083101.31749 -10950775.81147  19362478.967    19362478.927    19362488.186
       233.000         202.000
 -19899322.80949 -15488645.38747  20444448.335    20444448.063    20444459.326
       237.000         198.000
 -15952104.60149 -12417019.14746  21910720.543    21910720.026    21910733.067
       223.000         174.000
   5103071.01749   3976386.14147  21317298.959    21317297.975    21317309.192
       232.000         194.000
 -12226619.40549  -9500471.14947  20227887.091    20227886.677    20227896.110
       240.000         206.000
 00  5  3 16 46 59.9960000  0  7G16G 2G 4G24G 5G 7G 9
  -5551263.57149  -4311556.91345  23589554.879    23589554.643    23589568.650
       212.000         153.000
   5084414.28349   3961827.93346  22184198.279    22184196.978    22184210.459
       217.000         166.000
 -14103592.48549 -10966742.97247  19358579.649    19358579.594    19358588.867
       233.000         202.000
 -19992316.77249 -15561108.14847  20426752.125    20426751.859    20426763.111
       236.000         198.000
 -16050495.86249 -12493687.55046  21891997.230    21891996.721    21892009.748
       223.000         174.000
   5148527.65949   4011806.82247  21325949.133    21325948.136    21325959.376
       232.000         193.000
 -12239745.08549  -9510698.96447  20225389.386    20225388.965    20225398.390
       241.000         206.000
 00  5  3 16 47 29.9960000  0  7G16G 2G 4G24G 5G 7G 9
  -5596419.11649  -4346742.88745  23580961.952    23580961.688    23580975.771
       210.000         153.000
   5139945.05849   4005098.49546  22194765.533    22194764.243    22194777.754
       215.000         165.000
 -14123429.61349 -10982200.49347  19354804.807    19354804.750    19354814.002
       234.000         202.000
 -20084862.82049 -15633221.87647  20409141.142    20409140.893    20409152.145
       237.000         199.000
 -16148767.44349 -12570262.68646  21873296.749    21873296.202    21873309.194
       224.000         174.000
   5194109.09549   4047324.74347  21334623.056    21334622.062    21334633.318
       232.000         193.000
 -12252253.96949  -9520446.15947  20223009.000    20223008.609    20223018.033
       240.000         206.000
 00  5  3 16 47 59.9960000  0  7G16G 2G 4G24G 5G 7G 9
  -5641096.69749  -4381556.43845  23572459.898    23572459.718    23572473.661
       210.000         152.000
   5195780.17349   4048606.20046  22205390.681    22205389.431    22205402.972
       216.000         164.000
 -14142618.55049 -10997152.93347  19351153.311    19351153.239    19351162.470
       234.000         202.000
 -20176964.68549 -15704989.51047  20391614.686    20391614.434    20391625.693
       237.000         199.000
 -16246923.68249 -12646747.95346  21854618.198    21854617.616    21854630.611
       225.000         174.000
   5239808.74649   4082934.78047  21343319.489    21343318.486    21343329.751
       232.000         194.000
 -12264152.09649  -9529717.44247  20220744.900    20220744.485    20220753.916
       240.000         206.000
 00  5  3 16 48 29.9960000  0  7G16G 2G 4G24G 5G 7G 9
  -5685285.94149  -4415989.45345  23564050.795    23564050.665    23564064.494
       210.000         152.000
   5251927.51849   4092357.19746  22216075.310    22216074.040    22216087.595
       215.000         164.000
 -14161151.41649 -11011594.14747  19347626.655    19347626.583    19347635.812
       234.000         202.000
 -20268611.83749 -15776402.79847  20374174.757    20374174.528    20374185.789
       237.000         198.000
 -16344954.89849 -12723135.79346  21835963.359    21835962.824    21835975.815
       225.000         175.000
   5285634.01449   4118642.70647  21352039.845    21352038.805    21352050.082
       232.000         193.000
 -12275431.75249  -9538506.80047  20218598.493    20218598.065    20218607.483
       240.000         206.000
 00  5  3 16 48 59.9960000  0  7G16G 2G 4G24G 5G 7G 9
  -5728989.87349  -4450044.28645  23555734.055    23555733.935    23555747.806
       210.000         154.000
   5308381.69649   4136347.27046  22226818.371    22226817.053    22226830.609
       215.000         164.000
 -14179033.30149 -11025528.10247  19344223.866    19344223.788    19344233.005
       233.000         202.000
 -20359807.01049 -15847463.91247  20356820.869    20356820.609    20356831.884
       237.000         198.000
 -16442864.57349 -12799428.94246  21817331.692    21817331.151    21817344.113
       225.000         175.000
   5331579.23249   4154444.09847  21360782.996    21360781.941    21360793.250
       232.000         194.000
 -12286097.74649  -9546817.97847  20216568.853    20216568.411    20216577.831
       240.000         206.000
 00  5  3 16 49 29.9960000  0  7G16G 2G 4G24G 5G 7G 9
  -5772210.73749  -4483722.71845  23547509.115    23547509.093    23547523.044
       213.000         155.000
   5365137.82749   4180572.65846  22237618.831    22237617.513    22237631.053
       214.000         163.000
 -14196268.91449 -11038958.47547  19340944.069    19340943.980    19340953.186
       233.000         202.000
 -20450552.73449 -15918174.79647  20339552.477    20339552.225    20339563.507
       238.000         199.000
 -16540655.99049 -12875629.93346  21798722.516    21798721.972    21798734.918
       224.000         174.000
   5377639.14649   4190334.86347  21369547.979    21369546.912    21369558.239
       232.000         193.000
 -12296154.88049  -9554654.72247  20214655.041    20214654.619    20214664.045
       240.000         206.000
 00  5  3 16 49 59.9960000  0  7G16G 2G 4G24G 5G 7G 9
  -5814944.05849  -4517021.25645  23539377.241    23539377.091    23539391.066
       210.000         154.000
   5422198.08349   4225035.02945  22248477.180    22248475.858    22248489.393
       214.000         162.000
 -14212856.04549 -11051883.52847  19337787.674    19337787.567    19337796.776
       234.000         202.000
 -20540844.18349 -15988531.69747  20322370.534    20322370.276    20322381.558
       238.000         199.000
 -16638324.99349 -12951735.54246  21780136.645    21780136.082    21780149.046
       225.000         174.000
   5423815.43049   4226316.30947  21378335.085    21378334.026    21378345.374
       231.000         193.000
 -12305600.65649  -9562015.07847  20212857.560    20212857.130    20212866.605
       240.000         206.000
 00  5  3 16 50 29.9960000  0  7G16G 2G 4G24G 5G 7G 9
  -5857183.51349  -4549934.98545  23531339.302    23531339.025    23531352.984
       208.000         152.000
   5479566.54849   4269737.55745  22259394.183    22259392.858    22259406.395
       216.000         162.000
 -14228790.65749 -11064300.13047  19334755.444    19334755.352    19334764.538
       234.000         202.000
 -20630675.02049 -16058529.67247  20305276.228    20305275.992    20305287.263
       238.000         199.000
 -16735865.66549 -13027741.15446  21761575.157    21761574.620    21761587.586
       224.000         176.000
   5470111.68149   4262391.23447  21387145.038    21387143.956    21387155.328
       231.000         192.000
 -12314431.11549  -9568895.97047  20211177.176    20211176.769    20211186.243
       241.000         207.000
 00  5  3 16 50 59.9960000  0  7G16G 2G 4G24G 5G 7G 9
  -5898936.27449  -4582469.47545  23523394.068    23523393.643    23523407.554
       208.000         151.000
   5537233.83349   4314672.92745  22270368.084    22270366.747    22270380.231
       215.000         161.000
 -14244081.95649 -11076215.45047  19331845.654    19331845.546    19331854.730
       233.000         202.000
 -20720052.13349 -16128174.12247  20288268.306    20288268.046    20288279.307
       238.000         199.000
 -16833285.45449 -13103652.56946  21743036.669    21743036.162    21743049.170
       225.000         176.000
   5516518.24249   4298552.10747  21395975.929    21395974.893    21395986.270
       232.000         192.000
 -12322655.51449  -9575304.60947  20209612.144    20209611.719    20209621.211
       240.000         207.000
 00  5  3 16 51 29.9960000  0  7G16G 2G 4G24G 5G 7G 9
  -5940209.85749  -4614630.56645  23515539.971    23515539.441    23515553.293
       211.000         152.000
   5595189.84349   4359833.27946  22281396.885    22281395.562    22281409.090
       215.000         163.000
 -14258739.96949 -11087637.29847  19329056.373    19329056.250    19329065.432
       233.000         202.000
 -20808983.16749 -16197470.97547  20271345.256    20271344.985    20271356.209
       239.000         200.000
 -16930592.60349 -13179476.21746  21724519.669    21724519.170    21724532.165
       225.000         177.000
   5563024.58449   4334790.74647  21404825.837    21404824.798    21404836.196
       231.000         192.000
 -12330283.85949  -9581248.78847  20208160.543    20208160.124    20208169.622
       241.000         207.000
 00  5  3 16 51 59.9960000  0  7G16G 2G 4G24G 5G 7G 9
  -5980980.13649  -4646399.48645  23507781.515    23507780.981    23507794.771
       212.000         154.000
   5653456.47749   4405235.66246  22292484.857    22292483.503    22292497.035
       215.000         163.000
 -14272742.79749 -11098548.61747  19326391.737    19326391.629    19326400.783
       233.000         202.000
 -20897443.69049 -16266401.19347  20254511.724    20254511.459    20254522.664
       239.000         200.000
 -17027763.24249 -13255193.49646  21706028.657    21706028.144    21706041.146
       225.000         177.000
   5609652.42549   4371124.04747  21413698.895    21413697.851    21413709.255
       231.000         192.000
 -12337294.19349  -9586711.40447  20206826.534    20206826.109    20206835.631
       240.000         207.000
 00  5  3 16 52 29.9960000  0  7G16G 2G 4G24G 5G 7G 9
  -6021257.32349  -4677784.16445  23500116.859    23500116.344    23500130.247
       212.000         158.000
   5712021.15949   4450870.28946  22303629.468    22303628.144    22303641.707
       215.000         166.000
 -14286103.06249 -11108959.23647  19323849.372    19323849.254    19323858.390
       234.000         202.000
 -20985443.83049 -16334972.67347  20237765.789    20237765.535    20237776.729
       238.000         200.000
 -17124807.90049 -13330812.61646  21687561.637    21687561.109    21687574.101
       225.000         178.000
   5656388.78349   4407541.89847  21422592.548    21422591.535    21422602.981
       231.000         192.000
 -12343698.95949  -9591702.15147  20205607.753    20205607.337    20205616.877
       241.000         207.000
 00  5  3 16 52 59.9960000  0  7G16G 2G 4G24G 5G 7G 9
  -6061036.26049  -4708780.66045  23492547.164    23492546.653    23492560.348
       210.000         157.000
   5770886.64049   4496739.30646  22314831.313    22314830.013    22314843.642
       215.000         167.000
 -14298817.90749 -11118866.92847  19321429.851    19321429.719    19321438.852
       234.000         202.000
 -21072978.44349 -16403181.40547  20221108.448    20221108.212    20221119.378
       238.000         200.000
 -17221721.92949 -13406329.95346  21669119.462    21669118.942    21669131.898
       226.000         177.000
   5703235.97749   4444046.12747  21431507.321    21431506.304    21431517.779
       231.000         192.000
 -12349495.36249  -9596218.84747  20204504.746    20204504.344    20204513.875
       241.000         207.000
 00  5  3 16 53 29.9960000  0  7G16G 2G 4G24G 5G 7G 9
  -6100330.42449  -4739399.37945  23485069.647    23485069.125    23485082.806
       205.000         154.000
   5830037.50449   4542830.69246  22326087.454    22326086.192    22326099.885
       217.000         168.000
 -14310903.13849 -11128284.00847  19319130.136    19319130.005    19319139.119
       234.000         202.000
 -21160060.75049 -16471037.69647  20204537.212    20204536.953    20204548.098
       238.000         200.000
 -17318518.90849 -13481756.07246  21650699.594    21650699.043    21650711.963
       226.000         176.000
   5750178.20149   4480624.40247  21440440.180    21440439.172    21440450.678
       230.000         192.000
 -12354699.04449  -9600273.67547  20203514.557    20203514.138    20203523.657
       241.000         207.000
 00  5  3 16 53 59.9960000  0  7G16G 2G 4G24G 5G 7G 9
  -6139113.22949  -4769619.65045  23477689.280    23477688.861    23477702.552
       211.000         152.000
   5889497.89349   4589163.27946  22337402.495    22337401.256    22337415.012
       217.000         169.000
 -14322334.53749 -11137191.60947  19316954.824    19316954.685    19316963.814
       234.000         202.000
 -21246663.92449 -16538520.63747  20188057.156    20188056.889    20188068.019
       239.000         201.000
 -17415172.65449 -13557070.58746  21632306.885    21632306.368    21632319.291
       226.000         178.000
   5797239.40349   4517295.38847  21449395.709    21449394.676    21449406.228
       231.000         192.000
 -12359285.68749  -9603847.69847  20202641.784    20202641.347    20202650.864
       241.000         207.000
 00  5  3 16 54 29.9960000  0  7G16G 2G 4G24G 5G 7G 9
  -6177387.04349  -4799443.33845  23470405.843    23470405.445    23470419.228
       207.000         153.000
   5949263.10149   4635733.38846  22348775.618    22348774.341    22348788.183
       219.000         170.000
 -14333116.77149 -11145593.37947  19314903.090    19314902.944    19314912.035
       234.000         202.000
 -21332790.31849 -16605632.06747  20171667.810    20171667.555    20171678.663
       240.000         202.000
 -17511685.94149 -13632275.65146  21613940.882    21613940.423    21613953.317
       227.000         177.000
   5844414.63449   4554055.21547  21458372.915    21458371.881    21458383.463
       231.000         191.000
 -12363259.89849  -9606944.50547  20201885.538    20201885.110    20201894.605
       241.000         207.000
 00  5  3 16 54 59.9960000  0  7G16G 2G 4G24G 5G 7G 9
  -6215151.28649  -4828869.95945  23463219.501    23463219.008    23463232.754
       210.000         154.000
   6009331.40449   4682539.67546  22360206.438    22360205.153    22360219.022
       218.000         169.000
 -14343251.53849 -11153490.62947  19312974.508    19312974.385    19312983.471
       234.000         202.000
 -21418439.35549 -16672371.53147  20155369.342    20155369.079    20155380.146
       240.000         202.000
 -17608058.48649 -13707371.04546  21595601.736    21595601.275    21595614.111
       227.000         177.000
   5891701.79149   4590902.26747  21467371.434    21467370.383    21467381.991
       230.000         192.000
 -12366623.65749  -9609565.63347  20201245.452    20201245.040    20201254.538
       241.000         207.000
 00  5  3 16 55 29.9960000  0  7G16G 2G 4G24G 5G 7G 9
  -6252414.89449  -4857906.49145  23456128.524    23456127.929    23456141.622
       212.000         154.000
   6069691.61949   4729573.42946  22371692.841    22371691.498    22371705.369
       219.000         168.000
 -14352750.37849 -11160892.34747  19311166.962    19311166.848    19311175.936
       234.000         202.000
 -21503619.59749 -16738745.70647  20139160.075    20139159.789    20139170.850
       239.000         202.000
 -17704299.22949 -13782363.72946  21577287.602    21577287.181    21577299.991
       225.000         178.000
   5939089.68549   4627827.81347  21476389.125    21476388.065    21476399.714
       229.000         191.000
 -12369387.98649  -9611719.67747  20200719.465    20200719.033    20200728.517
       241.000         207.000
 00  5  3 16 55 59.9960000  0  7G16G 2G 4G24G 5G 7G 9
  -6289176.52349  -4886551.87745  23449132.783    23449132.360    23449145.910
       210.000         156.000
   6130342.95749   4776834.01346  22383234.633    22383233.223    22383247.113
       217.000         166.000
 -14361614.19449 -11167799.25147  19309480.260    19309480.134    19309489.236
       234.000         202.000
 -21588329.65149 -16804753.50147  20123040.258    20123039.975    20123051.017
       239.000         202.000
 -17800407.14649 -13857252.92346  21558998.779    21558998.375    21559011.142
       226.000         179.000
   5986577.09049   4664830.89547  21485425.774    21485424.688    21485436.358
       230.000         191.000
 -12371554.11549  -9613407.59147  20200307.296    20200306.859    20200316.333
       241.000         207.000
 00  5  3 16 56 29.9960000  0  7G16G 2G 4G24G 5G 7G 9
  -6325431.86349  -4914802.76245  23442233.571    23442233.196    23442246.750
       212.000         155.000
   6191287.38549   4824322.99446  22394832.109    22394830.724    22394844.618
       216.000         165.000
 -14369841.04649 -11174209.81447  19307914.721    19307914.633    19307923.758
       233.000         202.000
 -21672564.93449 -16870391.34047  20107010.798    20107010.509    20107021.526
       239.000         202.000
 -17896378.09549 -13932035.37546  21540736.101    21540735.637    21540748.374
       226.000         179.000
   6034165.86349   4701912.97447  21494481.654    21494480.594    21494492.294
       229.000         191.000
 -12373119.73749  -9614627.57647  20200009.409    20200008.942    20200018.431
       241.000         207.000
 00  5  3 16 56 59.9960000  0  7G16G 2G 4G24G 5G 7G 9
  -6361186.32649  -4942663.35145  23435429.673    23435429.297    23435442.764
       212.000         156.000
   6252517.11149   4872034.27446  22406483.826    22406482.467    22406496.401
       214.000         163.000
 -14377438.71549 -11180130.10747  19306468.944    19306468.862    19306477.973
       234.000         202.000
 -21756330.85549 -16935663.44647  20091070.668    20091070.355    20091081.361
       240.000         202.000
 -17992217.81449 -14006715.57446  21522498.310    21522497.881    21522510.600
       227.000         180.000
   6081848.20549   4739067.95647  21503555.390    21503554.312    21503566.048
       230.000         191.000
 -12374092.49049  -9615385.58647  20199824.297    20199823.858    20199833.341
       241.000         207.000
 00  5  3 16 57 29.9960000  0  7G16G 2G 4G24G 5G 7G 9
  -6396439.70149  -4970133.50545  23428721.415    23428720.799    23428734.132
       210.000         154.000
   6314030.31749   4919966.43446  22418189.454    22418188.150    22418202.150
       213.000         163.000
 -14384409.31349 -11185561.77647  19305142.523    19305142.435    19305151.536
       234.000         202.000
 -21839626.95949 -17000569.46747  20075219.923    20075219.605    20075230.594
       239.000         202.000
 -18087925.87649 -14081293.18346  21504285.612    21504285.136    21504297.839
       226.000         178.000
   6129621.94449   4776294.15947  21512646.523    21512645.433    21512657.175
       230.000         191.000
 -12374474.70249  -9615683.44047  20199751.588    20199751.137    20199760.627
       241.000         207.000
 00  5  3 16 57 59.9960000  0  7G16G 2G 4G24G 5G 7G 9
  -6431201.94549  -4997220.94045  23422106.325    23422105.729    23422118.951
       212.000         154.000
   6375814.81549   4968109.98746  22429946.713    22429945.472    22429959.524
       214.000         163.000
 -14390764.97949 -11190514.27647  19303933.145    19303933.028    19303942.115
       234.000         202.000
 -21922462.80249 -17065116.84047  20059456.746    20059456.435    20059467.404
       239.000         203.000
 -18183512.10649 -14155775.86746  21486096.081    21486095.599    21486108.272
       226.000         179.000
   6177474.96649   4813582.14047  21521752.719    21521751.625    21521763.375
       229.000         190.000
 -12374278.32449  -9615530.44147  20199788.977    20199788.532    20199797.989
       241.000         206.000
 00  5  3 16 58 29.9960000  0  7G16G 2G 4G24G 5G 7G 9
  -6465466.09349  -5023920.24145  23415586.069    23415585.418    23415598.685
       213.000         155.000
   6437874.92849   5016468.31146  22441756.434    22441755.230    22441769.393
       213.000         163.000
 -14396501.64849 -11194984.44347  19302841.546    19302841.411    19302850.490
       234.000         202.000
 -22004831.78349 -17129300.42347  20043782.422    20043782.124    20043793.067
       239.000         203.000
 -18278970.28249 -14230158.75746  21467930.966    21467930.431    21467943.072
       226.000         180.000
   6225411.46549   4850935.17147  21530874.804    21530873.701    21530885.450
       229.000         189.000
 -12373499.28349  -9614923.42147  20199937.258    20199936.802    20199946.234
       241.000         206.000
 00  5  3 16 58 59.9960000  0  7G16G 2G 4G24G 5G 7G 9
  -6499214.89649  -5050218.00045  23409163.862    23409163.260    23409176.418
       213.000         155.000
   6500226.27649   5065053.56046  22453621.685    22453620.439    22453634.670
       214.000         163.000
 -14401604.24049 -11198960.52947  19301870.610    19301870.465    19301879.511
       234.000         202.000
 -22086716.13449 -17193106.37947  20028200.341    20028200.043    20028210.942
       239.000         203.000
 -18374282.88049 -14304428.21946  21449793.485    21449792.959    21449805.574
       226.000         180.000
   6273446.80849   4888365.21747  21540015.653    21540014.579    21540026.360
       228.000         189.000
 -12372122.37649  -9613850.52947  20200199.263    20200198.837    20200208.258
       241.000         206.000
 00  5  3 16 59 29.9960000  0  7G16G 2G 4G24G 5G 7G 9
  -6532449.11349  -5076114.79445  23402839.590    23402838.972    23402852.018
       213.000         155.000
   6562865.76249   5113863.33045  22465541.746    22465540.511    22465554.769
       213.000         162.000
 -14406075.99849 -11202445.05247  19301019.723    19301019.556    19301028.591
       234.000         202.000
 -22168116.37349 -17256535.10147  20012710.389    20012710.077    20012720.947
       239.000         203.000
 -18469450.53749 -14378584.74046  21431683.568    21431683.069    21431695.656
       227.000         180.000
   6321577.72449   4925869.73647  21549174.692    21549173.652    21549185.470
       228.000         189.000
 -12370150.55749  -9612314.07647  20200574.506    20200574.070    20200583.498
       241.000         206.000
 00  5  3 16 59 59.9960000  0  7G16G 2G 4G24G 5G 7G 9
  -6565155.69649  -5101600.42245  23396615.641    23396615.071    23396628.150
       209.000         155.000
   6625804.03549   5162905.92045  22477518.790    22477517.449    22477531.726
       215.000         160.000
 -14409906.33549 -11205429.76647  19300290.846    19300290.702    19300299.736
       234.000         203.000
 -22249019.39449 -17319576.38347  19997315.049    19997314.731    19997325.562
       239.000         203.000
 -18564460.60649 -14452618.46746  21413603.655    21413603.170    21413615.749
       227.000         181.000
   6369814.89049   4963457.05247  21558354.007    21558352.947    21558364.779
       228.000         188.000
 -12367573.57049  -9610306.06447  20201064.916    20201064.481    20201073.904
       241.000         207.000
 00  5  3 17  0 29.9960000  0  7G16G 2G 4G24G 5G 7G 9
  -6597340.91349  -5126679.77545  23390490.876    23390490.374    23390503.471
       209.000         156.000
   6689032.84849   5212174.90145  22489551.028    22489549.685    22489563.951
       212.000         157.000
 -14413103.82549 -11207921.35447  19299682.414    19299682.257    19299691.308
       234.000         202.000
 -22329431.40549 -17382235.05247  19982013.145    19982012.804    19982023.599
       239.000         202.000
 -18659318.94449 -14526533.97146  21395552.649    21395552.162    21395564.712
       227.000         181.000
   6418149.96749   5001120.66547  21567551.961    21567550.880    21567562.719
       228.000         188.000
 -12364399.87649  -9607833.08847  20201668.894    20201668.442    20201677.872
       241.000         207.000
 00  5  3 17  0 59.9960000  0  7G16G 2G 4G24G 5G 7G 9
  -6629011.45649  -5151358.05445  23384464.095    23384463.543    23384476.831
       211.000         155.000
   6752543.21149   5261663.28945  22501636.787    22501635.471    22501649.791
       211.000         154.000
 -14415677.50249 -11209926.85147  19299192.692    19299192.533    19299201.586
       234.000         202.000
 -22409358.79349 -17444516.09747  19966803.437    19966803.117    19966813.861
       239.000         203.000
 -18754032.10449 -14600336.33646  21377529.279    21377528.781    21377541.320
       227.000         181.000
   6466574.13249   5038853.69747  21576766.815    21576765.765    21576777.640
       228.000         188.000
 -12360638.15149  -9604901.89847  20202384.752    20202384.301    20202393.741
       241.000         207.000
 00  5  3 17  1 29.9960000  0  7G16G 2G 4G24G 5G 7G 9
  -6660168.64249  -5175636.33445  23378535.020    23378534.500    23378547.835
       211.000         156.000
   6816331.90049   5311368.53745  22513775.500    22513774.204    22513788.551
       208.000         149.000
 -14417631.14749 -11211449.21047  19298820.984    19298820.815    19298829.855
       235.000         203.000
 -22488802.38449 -17506420.16347  19951685.797    19951685.481    19951696.197
       240.000         203.000
 -18848601.21649 -14674026.46646  21359533.358    21359532.838    21359545.351
       228.000         182.000
   6515084.05049   5076653.53846  21585998.039    21585996.977    21586008.849
       228.000         187.000
 -12356292.01349  -9601515.32947  20203211.805    20203211.358    20203220.813
       241.000         207.000
 00  5  3 17  1 59.9960000  0  7G16G 2G 4G24G 5G 7G 9
  -6690804.33649  -5199508.25445  23372705.185    23372704.640    23372718.103
       212.000         156.000
   6880404.55349   5361295.07145  22525968.259    22525966.996    22525981.343
       208.000         145.000
 -14418959.26749 -11212484.13847  19298568.305    19298568.125    19298577.172
       235.000         203.000
 -22567754.27549 -17567941.08747  19936661.704    19936661.396    19936672.088
       239.000         203.000
 -18943018.35749 -14747598.17846  21341566.329    21341565.802    21341578.272
       228.000         182.000
   6563685.26249   5114524.54247  21595246.667    21595245.576    21595257.447
       229.000         188.000
 -12351356.16649  -9597669.24747  20204151.082    20204150.644    20204160.104
       241.000         207.000
 00  5  3 17  2 29.9960000  0  7G16G 2G 4G24G 5G 7G 9
  -6720921.43849  -5222976.08245  23366973.991    23366973.547    23366986.981
       210.000         154.000
   6944756.39849   5411439.18345  22538214.124    22538212.855    22538227.294
       210.000         143.000
 -14419666.94449 -11213035.61047  19298433.667    19298433.496    19298442.553
       235.000         204.000
 -22646217.04849 -17629080.88147  19921730.668    19921730.402    19921741.074
       239.000         203.000
 -19037285.98149 -14821053.38646  21323627.737    21323627.200    21323639.634
       227.000         180.000
   6612373.17949   5152463.09647  21604511.754    21604510.644    21604522.530
       230.000         188.000
 -12345835.35349  -9593367.35347  20205201.696    20205201.236    20205210.704
       241.000         207.000
 00  5  3 17  2 59.9960000  0  7G16G 2G 4G24G 5G 7G 9
  -6750514.57249  -5246035.61545  23361342.474    23361342.126    23361355.484
       207.000         150.000
   7009390.82949   5461803.50045  22550513.845    22550512.532    22550526.952
       212.000         146.000
 -14419751.16149 -11213101.26847  19298417.658    19298417.501    19298426.575
       235.000         203.000
 -22724184.88649 -17689835.00647  19906893.827    19906893.568    19906904.271
       239.000         203.000
 -19131398.42849 -14894387.66746  21305718.630    21305718.119    21305730.546
       228.000         182.000
   6661151.09149   5190471.77547  21613793.936    21613792.844    21613804.770
       230.000         188.000
 -12339726.47649  -9588607.22547  20206364.225    20206363.759    20206373.206
       241.000         207.000
 00  5  3 17  3 29.9960000  0  7G16G 2G 4G24G 5G 7G 9
  -6779583.08549  -5268686.34045  23355810.715    23355810.391    23355823.756
       208.000         148.000
   7074306.04349   5512386.59845  22562866.933    22562865.627    22562880.117
       214.000         153.000
 -14419213.94649 -11212682.68447  19298519.919    19298519.769    19298528.831
       235.000         203.000
 -22801657.18649 -17750203.00247  19892151.295    19892151.035    19892161.760
       239.000         203.000
 -19225355.13649 -14967600.59546  21287839.209    21287838.702    21287851.098
       228.000         182.000
   6710017.47049   5228549.39046  21623092.933    21623091.858    21623103.841
       229.000         187.000
 -12333031.55849  -9583390.43947  20207638.261    20207637.791    20207647.226
       241.000         207.000
 00  5  3 17  3 59.9960000  0  7G16G 2G 4G24G 5G 7G 9
  -6808119.93249  -5290922.77745  23350380.263    23350379.930    23350393.362
       209.000         150.000
   7139507.43249   5563192.67645  22575274.565    22575273.244    22575287.771
       215.000         159.000
 -14418050.46549 -11211776.09647  19298741.363    19298741.193    19298750.268
       235.000         203.000
 -22878626.39249 -17810178.97847  19877504.498    19877504.229    19877514.995
       239.000         203.000
 -19319148.48449 -15040686.22746  21269990.835    21269990.351    21270002.713
       228.000         182.000
   6758977.58149   5266700.05446  21632409.778    21632408.718    21632420.726
       229.000         187.000
 -12325745.78949  -9577713.25547  20209024.718    20209024.241    20209033.684
       241.000         207.000
 00  5  3 17  4 29.9960000  0  7G16G 2G 4G24G 5G 7G 9
  -6836120.07949  -5312740.99545  23345052.006    23345051.607    23345065.096
       211.000         156.000
   7204997.77549   5614223.90546  22587737.185    22587735.830    22587750.434
       217.000         164.000
 -14416258.13249 -11210379.49947  19299082.445    19299082.274    19299091.360
       235.000         203.000
 -22955087.45649 -17869758.99847  19862954.432    19862954.143    19862964.931
       239.000         203.000
 -19412773.25849 -15113640.50546  21252174.554    21252174.075    21252186.412
       228.000         182.000
   6808034.12749   5304925.86246  21641744.992    21641743.933    21641755.974
       229.000         186.000
 -12317866.75349  -9571573.78347  20210524.034    20210523.593    20210533.048
       241.000         207.000
 00  5  3 17  4 59.9960000  0  7G16G 2G 4G24G 5G 7G 9
  -6863583.25649  -5334140.80445  23339826.056    23339825.553    23339839.032
       214.000         160.000
   7270775.09549   5665478.73946  22600254.472    22600253.047    22600267.722
       218.000         168.000
 -14413839.45949 -11208494.84547  19299542.736    19299542.568    19299551.639
       236.000         203.000
 -23031040.00249 -17928942.76947  19848501.112    19848500.817    19848511.613
       239.000         203.000
 -19506229.01949 -15186463.08346  21234390.477    21234389.978    21234402.271
       228.000         182.000
   6857185.43649   5343225.50346  21651098.199    21651097.147    21651109.251
       228.000         185.000
 -12309396.44749  -9564973.58347  20212135.903    20212135.459    20212144.923
       241.000         206.000
 00  5  3 17  5 29.9960000  0  7G16G 2G 4G24G 5G 7G 9
  -6890507.81649  -5355120.91445  23334702.763    23334702.075    23334715.471
       211.000         160.000
   7336839.24749   5716957.08046  22612826.245    22612824.819    22612839.565
       217.000         170.000
 -14410795.01149 -11206122.56947  19300122.086    19300121.939    19300131.010
       235.000         203.000
 -23106481.88149 -17987728.61747  19834144.997    19834144.681    19834155.491
       239.000         203.000
 -19599513.61749 -15259152.28346  21216638.942    21216638.436    21216650.705
       228.000         182.000
   6906431.58649   5381599.05846  21660469.470    21660468.433    21660480.562
       227.000         186.000
 -12300335.21249  -9557912.91847  20213860.236    20213859.784    20213869.251
       241.000         207.000
 00  5  3 17  5 59.9960000  0  7G16G 2G 4G24G 5G 7G 9
  -6916906.12749  -5375690.96645  23329679.297    23329678.564    23329692.054
       212.000         159.000
   7403175.79049   5768647.67146  22625449.897    22625448.434    22625463.245
       215.000         171.000
 -14407139.50149 -11203274.14747  19300817.697    19300817.573    19300826.642
       235.000         203.000
 -23181425.37349 -18046126.12647  19819883.740    19819883.402    19819894.181
       239.000         204.000
 -19692639.19849 -15331717.58046  21198917.650    21198917.167    21198929.395
       228.000         183.000
   6955758.05849   5420035.18946  21669856.042    21669854.999    21669867.151
       227.000         186.000
 -12290698.01849  -9550403.45747  20215694.178    20215693.704    20215703.163
       241.000         206.000
 00  5  3 17  6 29.9960000  0  7G16G 2G 4G24G 5G 7G 9
  -6942774.89549  -5395848.37845  23324756.392    23324755.818    23324769.393
       210.000         156.000
   7469785.75149   5820551.32046  22638125.484    22638124.058    22638138.979
       214.000         169.000
 -14402872.28249 -11199949.06747  19301629.743    19301629.626    19301638.676
       235.000         203.000
 -23255867.05849 -18104132.60647  19805717.953    19805717.607    19805728.380
       239.000         203.000
 -19785602.19249 -15404156.18646  21181227.302    21181226.831    21181239.021
       229.000         183.000
   7005166.19649   5458534.96646  21679258.173    21679257.113    21679269.285
       227.000         184.000
 -12280483.96549  -9542444.49047  20217637.880    20217637.401    20217646.870
       241.000         206.000
 00  5  3 17  6 59.9960000  0  7G16G 2G 4G24G 5G 7G 9
  -6968118.76849  -5415596.81345  23319933.612    23319932.979    23319946.414
       209.000         152.000
   7536662.82149   5872663.09746  22650851.903    22650850.518    22650865.499
       210.000         167.000
 -14398000.14649 -11196152.62347  19302556.913    19302556.789    19302565.828
       235.000         203.000
 -23329810.90049 -18161751.15147  19791646.874    19791646.537    19791657.295
       239.000         204.000
 -19878406.19849 -15476470.90346  21163567.236    21163566.771    21163578.893
       229.000         183.000
   7054649.87549   5497093.59846  21688674.617    21688673.584    21688685.807
       227.000         184.000
 -12269699.57849  -9534041.11147  20219690.083    20219689.609    20219699.102
       241.000         206.000
 00  5  3 17  7 29.9960000  0  7G16G 2G 4G24G 5G 7G 9
  -6992928.13849  -5434928.73945  23315212.420    23315211.846    23315225.310
       212.000         153.000
   7603814.26249   5924988.66546  22663630.431    22663629.152    22663644.247
       207.000         163.000
 -14392516.27949 -11191879.50847  19303600.500    19303600.369    19303609.396
       235.000         203.000
 -23403247.52749 -18218974.46447  19777672.347    19777671.997    19777682.727
       239.000         204.000
 -19971041.60749 -15548654.25546  21145939.300    21145938.795    21145950.852
       230.000         184.000
   7104216.45749   5535716.82546  21698106.893    21698105.842    21698118.088
       226.000         183.000
 -12258338.06349  -9525188.02047  20221852.107    20221851.639    20221861.160
       241.000         206.000
 00  5  3 17  7 59.9960000  0  7G16G 2G 4G24G 5G 7G 9
  -7017205.15049  -5453845.87145  23310592.707    23310592.050    23310605.417
       215.000         155.000
   7671236.12749   5977524.94645  22676460.452    22676459.240    22676474.427
       204.000         158.000
 -14386425.02649 -11187133.10347  19304759.667    19304759.534    19304768.563
       235.000         204.000
 -23476178.62649 -18275803.85447  19763794.009    19763793.669    19763804.354
       239.000         203.000
 -20063509.79249 -15620707.29046  21128343.127    21128342.629    21128354.629
       229.000         184.000
   7153862.34949   5574401.85246  21707554.250    21707553.200    21707565.489
       227.000         183.000
 -12246403.86149  -9515888.67647  20224123.141    20224122.661    20224132.208
       241.000         206.000
 00  5  3 17  8 29.9960000  0  7G16G 2G 4G24G 5G 7G 9
  -7040953.55449  -5472351.10045  23306073.537    23306072.888    23306086.141
       214.000         158.000
   7738922.97949   6030267.69945  22689340.802    22689339.653    22689355.024
       195.000         151.000
 -14379732.66749 -11181918.30347  19306033.218    19306033.076    19306042.110
       236.000         204.000
 -23548607.51349 -18332241.91247  19750011.229    19750010.883    19750021.551
       239.000         204.000
 -20155813.98349 -15692632.54846  21110778.108    21110777.645    21110789.619
       229.000         184.000
   7203582.06949   5613144.41646  21717015.716    21717014.628    21717026.887
       228.000         183.000
 -12233903.10349  -9506147.86147  20226501.950    20226501.478    20226511.069
       241.000         206.000
 00  5  3 17  8 59.9960000  0  7G16G 2G 4G24G 5G 7G 9
  -7064156.34449  -5490431.17245  23301658.168    23301657.575    23301670.737
       215.000         160.000
   7806889.63648   6083228.47245  22702274.250    22702274.345    22702289.205
       192.000         145.000
 -14372424.61649 -11176223.74147  19307423.923    19307423.785    19307432.809
       236.000         204.000
 -23620517.18149 -18388275.38147  19736327.263    19736326.904    19736337.549
       239.000         203.000
 -20247936.94349 -15764416.58546  21093247.594    21093247.167    21093259.082
       229.000         184.000
   7253390.71749   5651956.27446  21726494.076    21726492.963    21726505.245
       227.000         182.000
 -12220821.22049  -9495954.22047  20228991.387    20228990.920    20229000.515
       241.000         206.000
 00  5  3 17  9 29.9960000  0  7G16G 2G 4G24G 5G 7G 9
  -7086830.57949  -5508099.35845  23297343.478    23297342.869    23297355.981
       215.000         162.000
   7875116.91549   6136392.29645  22715257.499    22715256.383    22715274.680
       199.000         143.000
 -14364520.52549 -11170064.74047  19308928.052    19308927.908    19308936.956
       236.000         204.000
 -23691924.50649 -18443917.43147  19722738.837    19722738.503    19722749.153
       239.000         203.000
 -20339895.15849 -15836072.25346  21075748.472    21075748.013    21075759.906
       228.000         184.000
   7303269.64349   5690822.88646  21735985.723    21735984.671    21735996.936
       227.000         181.000
 -12207177.44849  -9485322.74947  20231587.770    20231587.285    20231596.885
       241.000         206.000
 00  5  3 17  9 59.9960000  0  7G16G 2G 4G24G 5G 7G 9
  -7108959.88149  -5525342.92145  23293132.303    23293131.706    23293144.998
       213.000         159.000
   7943619.41549   6189770.61045  22728293.157    22728292.182    22728309.941
       197.000         145.000
 -14356006.26549 -11163430.27947  19310548.251    19310548.129    19310557.190
       235.000         204.000
 -23762812.60549 -18499154.87447  19709249.233    19709248.921    19709259.561
       239.000         204.000
 -20431671.29449 -15907586.03446  21058283.953    21058283.510    21058295.405
       229.000         185.000
   7353233.50849   5729755.68346  21745493.595    21745492.561    21745504.806
       228.000         181.000
 -12192957.84649  -9474242.57147  20234293.701    20234293.221    20234302.838
       241.000         206.000
 00  5  3 17 10 29.9960000  0  7G16G 2G 4G24G 5G 7G 9
  -7130542.69049  -5542160.64645  23289025.320    23289024.543    23289037.900
       210.000         157.000
   8012396.78449   6243363.12645  22741381.318    22741380.413    22741397.733
       203.000         146.000
 -14346882.91949 -11156321.21447  19312284.361    19312284.259    19312293.348
       235.000         204.000
 -23833179.79449 -18553986.42247  19695858.774    19695858.460    19695869.092
       239.000         204.000
 -20523263.27849 -15978956.32246  21040854.539    21040854.063    21040865.952
       229.000         186.000
   7403282.16249   5768754.55446  21755017.654    21755016.591    21755028.807
       228.000         182.000
 -12178162.97149  -9462714.13247  20237109.121    20237108.619    20237118.247
       241.000         206.000
 00  5  3 17 10 59.9960000  0  7G16G 2G 4G24G 5G 7G 9
  -7151588.24349  -5558559.71045  23285020.228    23285019.603    23285033.062
       209.000         156.000
   8081437.80049   6297161.11645  22754519.654    22754518.922    22754535.715
       208.000         147.000
 -14337162.06149 -11148746.55247  19314134.186    19314134.084    19314143.213
       235.000         204.000
 -23903034.92449 -18608418.96447  19682565.776    19682565.446    19682576.067
       239.000         204.000
 -20614679.64249 -16050189.77446  21023458.512    21023458.047    21023469.916
       229.000         185.000
   7453405.03149   5807811.24446  21764555.827    21764554.754    21764566.935
       228.000         183.000
 -12162804.57649  -9450746.59047  20240031.741    20240031.263    20240040.879
       241.000         205.000
 00  5  3 17 11 29.9960000  0  7G16G 2G 4G24G 5G 7G 9
  -7172098.09449  -5574541.37545  23281117.277    23281116.667    23281130.130
       214.000         156.000
   8150739.21049   6351162.00945  22767707.606    22767706.838    22767723.326
       212.000         146.000
 -14326847.78749 -11140709.48747  19316096.947    19316096.856    19316105.984
       236.000         204.000
 -23972379.39549 -18662453.59047  19669369.956    19669369.603    19669380.217
       239.000         204.000
 -20705921.39749 -16121287.16646  21006095.728    21006095.239    21006107.111
       230.000         186.000
   7503598.73349   5846923.12546  21774107.422    21774106.367    21774118.551
       228.000         182.000
 -12146886.76449  -9438343.14247  20243060.806    20243060.339    20243069.959
       241.000         205.000
 00  5  3 17 11 59.9960000  0  7G16G 2G 4G24G 5G 7G 9
  -7192061.00649  -5590096.87045  23277318.473    23277317.863    23277331.171
       218.000         157.000
   8220310.19149   6405372.96845  22780946.904    22780945.934    22780962.170
       212.000         147.000
 -14315931.23149 -11132203.11147  19318174.357    19318174.242    19318183.371
       236.000         204.000
 -24041201.71749 -18716081.34247  19656273.471    19656273.128    19656283.703
       239.000         204.000
 -20796976.51749 -16192239.11846  20988768.457    20988767.951    20988779.831
       230.000         186.000
   7553873.03749   5886097.79846  21783674.350    21783673.309    21783685.524
       228.000         182.000
 -12130400.59349  -9425496.81347  20246198.050    20246197.568    20246207.193
       240.000         205.000
 00  5  3 17 12 29.9960000  0  7G16G 2G 4G24G 5G 7G 9
  -7211490.80149  -5605236.98045  23273621.279    23273620.599    23273633.580
       217.000         156.000
   8290135.03049   6459781.74745  22794234.433    22794233.319    22794249.346
       213.000         145.000
 -14304428.80949 -11123240.22247  19320363.256    19320363.120    19320372.229
       236.000         204.000
 -24109515.39749 -18769312.75847  19643273.789    19643273.451    19643283.998
       238.000         203.000
 -20887858.22849 -16263055.95346  20971474.181    20971473.669    20971485.534
       229.000         186.000
   7604212.54349   5925323.28846  21793253.744    21793252.663    21793264.879
       226.000         181.000
 -12113362.20449  -9412220.18847  20249440.348    20249439.874    20249449.524
       240.000         204.000
 00  5  3 17 12 59.9960000  0  7G16G 2G 4G24G 5G 7G 9
  -7230378.97849  -5619955.02845  23270026.886    23270026.343    23270039.066
       212.000         155.000
   8360220.37849   6514393.50745  22807571.378    22807570.222    22807586.218
       212.000         146.000
 -14292334.51349 -11113816.13147  19322664.789    19322664.630    19322673.702
       236.000         204.000
 -24177311.68549 -18822141.00947  19630372.564    19630372.223    19630382.741
       238.000         204.000
 -20978556.81849 -16333730.10146  20954214.714    20954214.227    20954226.068
       230.000         186.000
   7654624.25749   5964605.05346  21802846.928    21802845.795    21802858.025
       226.000         182.000
 -12095765.28049  -9398508.34347  20252788.951    20252788.485    20252798.133
       240.000         204.000
 00  5  3 17 13 29.9960000  0  7G16G 2G 4G24G 5G 7G 9
  -7248719.38949  -5634246.20345  23266536.779    23266536.199    23266549.015
       211.000         155.000
   8430571.00049   6569211.96945  22820958.845    22820957.666    22820973.574
       212.000         148.000
 -14279644.17649 -11103927.59447  19325079.685    19325079.534    19325088.627
       236.000         204.000
 -24244583.89449 -18874560.88847  19617571.066    19617570.725    19617581.237
       238.000         203.000
 -21069064.98449 -16404255.86846  20936991.532    20936991.037    20937002.828
       229.000         186.000
   7705113.39149   6003947.14446  21812454.777    21812453.645    21812465.909
       227.000         182.000
 -12077606.31149  -9384358.53647  20256244.508    20256244.040    20256253.687
       240.000         203.000
 00  5  3 17 13 59.9960000  0  7G16G 2G 4G24G 5G 7G 9
  -7266513.79249  -5648111.92945  23263150.520    23263149.948    23263162.795
       213.000         156.000
   8501182.92649   6624234.02645  22834396.080    22834394.785    22834410.694
       211.000         150.000
 -14266362.18049 -11093578.03447  19327607.194    19327607.030    19327616.140
       236.000         204.000
 -24311333.67349 -18926573.68447  19604869.000    19604868.645    19604879.150
       238.000         204.000
 -21159384.00749 -16474634.24446  20919804.329    20919803.825    20919815.613
       229.000         186.000
   7755676.28149   6043346.70746  21822076.613    21822075.500    21822087.772
       227.000         181.000
 -12058889.19049  -9369773.81247  20259806.282    20259805.812    20259815.451
       239.000         203.000
 00  5  3 17 14 29.9960000  0  7G16G 2G 4G24G 5G 7G 9
  -7283763.30449  -5661553.02145  23259867.952    23259867.407    23259880.261
       211.000         157.000
   8572053.05449   6679457.27845  22847882.389    22847881.083    22847897.013
       208.000         151.000
 -14252492.34549 -11082770.42047  19330246.536    19330246.388    19330255.534
       236.000         204.000
 -24377561.89749 -18978180.07247  19592266.175    19592265.826    19592276.312
       238.000         204.000
 -21249514.30349 -16544865.56546  20902653.042    20902652.520    20902664.309
       230.000         187.000
   7806310.32049   6082801.69946  21831712.014    21831710.900    21831723.234
       225.000         180.000
 -12039617.59749  -9354757.03447  20263473.557    20263473.092    20263482.720
       240.000         203.000
 00  5  3 17 14 59.9960000  0  7G16G 2G 4G24G 5G 7G 9
  -7300469.38349  -5674570.66445  23256688.810    23256688.284    23256701.298
       212.000         160.000
   8643178.17249   6734879.20945  22861417.312    22861415.928    22861431.855
       206.000         151.000
 -14238038.32749 -11071507.59747  19332997.049    19332996.926    19333006.083
       236.000         204.000
 -24443269.50249 -19029380.78347  19579762.434    19579762.070    19579772.564
       238.000         204.000
 -21339456.30349 -16614950.16246  20885537.586    20885537.067    20885548.848
       230.000         186.000
   7857013.07649   6122310.25746  21841360.528    21841359.400    21841371.705
       226.000         180.000
 -12019794.82649  -9339310.76347  20267245.742    20267245.268    20267254.895
       240.000         203.000
 00  5  3 17 15 29.9960000  0  8G16G 2G30G 4G24G 5G 7G 9
  -7316618.41249  -5687154.26245  23253615.768    23253615.211    23253628.342
       214.000         160.000
   8714570.14349   6790509.08445  22875002.993    22875001.577    22875017.494
       205.000         151.000
  -2101354.93559  -1620268.46854  24027395.348    24027395.197    24027410.308
       211.000         127.000
 -14222989.14349 -11059781.01647  19335860.866    19335860.723    19335869.873
       237.000         204.000
 -24508442.78949 -19080165.14747  19567360.379    19567359.999    19567370.495
       238.000         204.000
 -21429195.53749 -16684876.76146  20868460.703    20868460.187    20868471.969
       229.000         186.000
   7907796.71749   6161881.82746  21851024.445    21851023.288    21851035.577
       226.000         179.000
 -11999409.95249  -9323426.49247  20271124.905    20271124.412    20271134.045
       240.000         203.000
 00  5  3 17 15 59.9960000  0  8G16G 2G30G 4G24G 5G 7G 9
  -7332214.96449  -5699307.35345  23250647.653    23250647.265    23250660.420
       213.000         157.000
   8786222.63449   6846341.94445  22888638.194    22888636.774    22888652.788
       203.000         150.000
  -2214260.99149  -1708247.27844  24005909.977    24005910.229    24005925.168
       197.000         126.000
 -14207351.47949 -11047595.87647  19338836.650    19338836.511    19338845.654
       237.000         204.000
 -24573085.93849 -19130536.40847  19555059.207    19555058.814    19555069.292
       238.000         204.000
 -21518735.60449 -16754648.16546  20851421.759    20851421.211    20851433.009
       229.000         187.000
   7958655.23049   6201511.75246  21860702.560    21860701.419    21860713.706
       227.000         180.000
 -11978469.79549  -9307109.53447  20275109.701    20275109.214    20275118.857
       239.000         202.000
 00  5  3 17 16 29.9960000  0  8G16G 2G30G 4G24G 5G 7G 9
  -7347272.44249  -5711040.40945  23247782.574    23247781.930    23247795.054
       218.000         158.000
   8858120.57649   6902366.06945  22902320.076    22902318.597    22902334.742
       200.000         148.000
  -2327198.67149  -1796250.67144  23984418.786    23984418.890    23984433.953
       205.000         129.000
 -14191141.58249 -11034964.84247  19341921.354    19341921.188    19341930.321
       237.000         204.000
 -24637212.11849 -19180504.84447  19542856.413    19542856.009    19542866.467
       238.000         204.000
 -21608088.72949 -16824273.90246  20834418.330    20834417.795    20834429.625
       229.000         187.000
   8009573.98949   6241188.62846  21870392.201    21870391.035    21870403.272
       226.000         179.000
 -11956990.32449  -9290372.33447  20279197.113    20279196.621    20279206.317
       239.000         203.000
 00  5  3 17 16 59.9960000  0  8G16G 2G30G 4G24G 5G 7G 9
  -7361787.15549  -5722350.51045  23245020.706    23245019.905    23245032.823
       214.000         155.000
   8930265.85649   6958582.92345  22916048.916    22916047.508    22916063.799
       199.000         149.000
  -2440164.26549  -1884275.80144  23962922.187    23962922.233    23962937.537
       205.000         129.000
 -14174357.74349 -11021886.58047  19345115.243    19345115.073    19345124.205
       237.000         204.000
 -24700817.22149 -19230067.24447  19530752.731    19530752.338    19530762.781
       238.000         204.000
 -21697250.32949 -16893750.39846  20817451.399    20817450.856    20817462.687
       230.000         187.000
   8060555.51649   6280914.40246  21880093.689    21880092.535    21880104.812
       227.000         178.000
 -11934969.93249  -9273213.63947  20283387.467    20283386.988    20283396.733
       239.000         203.000
 00  5  3 17 17 29.9960000  0  8G16G 2G30G 4G24G 5G 7G 9
  -7375754.33249  -5733233.96745  23242362.603    23242361.918    23242374.868
       211.000         151.000
   9002661.61049   7014994.93945  22929825.469    22929824.076    22929840.472
       197.000         148.000
  -2553151.95949  -1972318.04445  23941421.440    23941421.271    23941436.932
       198.000         133.000
 -14156997.91049 -11008359.48547  19348418.764    19348418.597    19348427.719
       237.000         204.000
 -24763896.09349 -19279219.58847  19518749.207    19518748.832    19518759.254
       238.000         204.000
 -21786214.34949 -16963072.93347  20800522.059    20800521.508    20800533.318
       230.000         188.000
   8111603.36549   6320691.87146  21889807.848    21889806.687    21889818.962
       225.000         179.000
 -11912406.30649  -9255631.63947  20287681.192    20287680.720    20287690.517
       239.000         203.000
 00  5  3 17 17 59.9960000  0  8G16G 2G30G 4G24G 5G 7G 9
  -7389163.25149  -5743682.43445  23239810.911    23239810.178    23239823.028
       211.000         151.000
   9075316.74649   7071609.06745  22943651.343    22943650.040    22943666.510
       199.000         147.000
  -2666151.28149  -2060369.39944  23919918.314    23919918.089    23919934.239
       198.000         131.000
 -14139053.61149 -10994376.97247  19351833.508    19351833.329    19351842.446
       237.000         205.000
 -24826437.80949 -19327953.38447  19506847.919    19506847.523    19506857.955
       238.000         204.000
 -21874969.35949 -17032232.60947  20783632.467    20783631.947    20783643.725
       230.000         188.000
   8162727.12449   6360528.46846  21899536.424    21899535.293    21899547.593
       224.000         179.000
 -11889290.96749  -9237619.74847  20292079.953    20292079.458    20292089.283
       240.000         204.000
 00  5  3 17 18 29.9960000  0  8G16G 2G30G 4G24G 5G 7G 9
  -7402021.23349  -5753701.58945  23237364.020    23237363.352    23237376.049
       212.000         154.000
   9148222.37949   7128418.39745  22957525.058    22957523.660    22957540.206
       198.000         148.000
  -2779168.64549  -2148434.82445  23898411.709    23898411.585    23898427.879
       198.000         132.000
 -14120534.46449 -10979946.52147  19355357.645    19355357.454    19355366.568
       237.000         205.000
 -24888449.29849 -19376274.00847  19495047.517    19495047.121    19495057.566
       238.000         204.000
 -21963521.31149 -17101234.05747  20766781.580    20766781.007    20766792.781
       230.000         188.000
   8213918.28949   6400417.60746  21909277.816    21909276.730    21909289.064
       225.000         178.000
 -11865633.52149  -9219185.43047  20296581.888    20296581.374    20296591.207
       240.000         204.000
 00  5  3 17 18 59.9960000  0  8G16G 2G30G 4G24G 5G 7G 9
  -7414323.28249  -5763287.52445  23235022.782    23235022.263    23235035.005
       214.000         154.000
   9221381.70849   7185425.41945  22971447.070    22971445.618    22971462.162
       203.000         149.000
  -2892198.64449  -2236510.04045  23876902.535    23876902.634    23876919.054
       196.000         135.000
 -14101438.19849 -10965066.36647  19358991.602    19358991.392    19359000.525
       237.000         205.000
 -24949925.09749 -19424177.20947  19483349.046    19483348.661    19483359.115
       238.000         204.000
 -22051864.08749 -17170072.51347  20749970.493    20749969.890    20749981.631
       231.000         189.000
   8265180.79349   6440362.31746  21919032.805    21919031.728    21919044.092
       224.000         178.000
 -11841431.39649  -9200326.68447  20301187.458    20301186.940    20301196.763
       240.000         204.000
 00  5  3 17 19 29.9960000  0  8G16G 2G30G 4G24G 5G 7G 9
  -7426066.23649  -5772437.82045  23232788.395    23232787.574    23232800.369
       214.000         155.000
   9294796.14649   7242631.21645  22985417.661    22985416.183    22985432.677
       205.000         150.000
  -3005237.78249  -2324592.40745  23855391.812    23855391.889    23855408.532
       204.000         136.000
 -14081763.85749 -10949735.76647  19362735.532    19362735.342    19362744.478
       237.000         205.000
 -25010861.93049 -19471660.44547  19471753.150    19471752.767    19471763.213
       238.000         204.000
 -22139993.19049 -17238744.47847  20733200.045    20733199.433    20733211.152
       231.000         189.000
   8316516.63149   6480364.18146  21928801.762    21928800.669    21928813.101
       224.000         179.000
 -11816683.69349  -9181042.81847  20305896.862    20305896.323    20305906.137
       240.000         204.000
 00  5  3 17 19 59.9960000  0  8G16G 2G30G 4G24G 5G 7G 9
  -7437250.64749  -5781152.88545  23230659.908    23230659.209    23230671.881
       213.000         156.000
   9368463.69949   7300034.25145  22999436.399    22999434.916    22999451.357
       204.000         149.000
  -3118285.64549  -2412681.57845  23833879.492    23833879.552    23833896.396
       203.000         140.000
 -14061514.30649 -10933956.94247  19366588.948    19366588.736    19366597.896
       237.000         205.000
 -25071259.75049 -19518723.65847  19460259.825    19460259.428    19460269.883
       238.000         204.000
 -22227907.86249 -17307249.34347  20716470.353    20716469.758    20716481.477
       231.000         188.000
   8367924.47349   6520422.15146  21938584.337    21938583.298    21938595.801
       224.000         179.000
 -11791392.88349  -9161335.74947  20310709.583    20310709.050    20310718.855
       240.000         204.000
 00  5  3 17 20 29.9960000  0  8G16G 2G30G 4G24G 5G 7G 9
  -7447880.80949  -5789436.07545  23228637.205    23228636.363    23228649.147
       215.000         161.000
   9442378.37249   7357629.86145  23013502.135    23013500.623    23013517.055
       205.000         148.000
  -3231345.81948  -2500780.32845  23812364.935    23812364.875    23812381.838
       194.000         140.000
 -14040696.37749 -10917735.23047  19370550.466    19370550.281    19370559.468
       237.000         205.000
 -25131122.78349 -19565370.16447  19448868.251    19448867.870    19448878.298
       238.000         204.000
 -22315611.34949 -17375589.65447  20699780.866    20699780.276    20699791.987
       231.000         189.000
   8419398.76649   6560531.88946  21948379.597    21948378.569    21948391.200
       222.000         177.000
 -11765565.96049  -9141210.93747  20315624.318    20315623.792    20315633.602
       240.000         204.000
 00  5  3 17 20 59.9960000  0  8G16G 2G30G 4G24G 5G 7G 9
  -7457949.72149  -5797281.91845  23226721.035    23226720.298    23226733.150
       212.000         159.000
   9516545.50749   7415422.17945  23027615.782    23027614.310    23027630.898
       204.000         147.000
  -3344410.91849  -2588882.90545  23790849.303    23790849.346    23790866.464
       201.000         142.000
 -14019305.50849 -10901067.07147  19374621.059    19374620.859    19374630.079
       238.000         205.000
 -25190443.59249 -19611594.15447  19437579.869    19437579.498    19437589.907
       238.000         204.000
 -22403095.44949 -17443759.01747  20683133.128    20683132.539    20683144.252
       231.000         189.000
   8470945.53049   6600698.11546  21958188.647    21958187.635    21958200.353
       223.000         178.000
 -11739198.23849  -9120664.71947  20320641.985    20320641.452    20320651.267
       240.000         204.000
 00  5  3 17 21 29.9960000  0  8G16G 2G30G 4G24G 5G 7G 9
  -7467459.22949  -5804691.84745  23224911.140    23224910.739    23224923.431
       210.000         158.000
   9590961.58849   7473408.49745  23041776.853    23041775.393    23041792.114
       205.000         145.000
  -3457482.09349  -2676990.23245  23769332.697    23769332.627    23769349.694
       203.000         143.000
 -13997345.97849 -10883955.79947  19378799.821    19378799.637    19378808.903
       237.000         205.000
 -25249223.80449 -19657396.90247  19426394.354    19426393.967    19426404.392
       238.000         203.000
 -22490360.58149 -17511757.75347  20666527.030    20666526.480    20666538.189
       231.000         190.000
   8522562.02049   6640918.67146  21968010.981    21968009.987    21968022.719
       222.000         177.000
 -11712293.87449  -9099700.34247  20325761.771    20325761.233    20325771.052
       241.000         204.000
 00  5  3 17 21 59.9960000  0  8G16G 2G30G 4G24G 5G 7G 9
  -7476414.06249  -5811669.56545  23223206.884    23223206.602    23223219.370
       209.000         156.000
   9665620.42149   7531583.95745  23055984.152    23055982.607    23055999.462
       204.000         141.000
  -3570563.38249  -2765105.41345  23747813.832    23747813.955    23747831.106
       201.000         141.000
 -13974824.57949 -10866406.70947  19383085.535    19383085.360    19383094.640
       238.000         205.000
 -25307467.54249 -19702781.61347  19415310.909    19415310.537    19415320.964
       237.000         203.000
 -22577410.04649 -17579588.43847  20649962.000    20649961.464    20649973.174
       232.000         190.000
   8574242.65649   6681189.19646  21977845.574    21977844.566    21977857.365
       223.000         179.000
 -11684859.89549  -9078323.28047  20330982.357    20330981.795    20330991.616
       241.000         204.000
 00  5  3 17 22 29.9960000  0  8G16G 2G30G 4G24G 5G 7G 9
  -7484804.84949  -5818207.75945  23221609.970    23221609.703    23221622.572
       211.000         155.000
   9740529.63149   7589954.52345  23070239.037    23070237.518    23070254.461
       203.000         140.000
  -3683644.61349  -2853220.55845  23726295.149    23726295.299    23726312.384
       204.000         143.000
 -13951734.49349 -10848414.48747  19387479.486    19387479.313    19387488.579
       238.000         205.000
 -25365165.36849 -19747740.93847  19404331.377    19404330.998    19404341.429
       237.000         203.000
 -22664233.40349 -17647242.93647  20633440.009    20633439.460    20633451.172
       231.000         190.000
   8625995.72949   6721516.18646  21987693.959    21987692.917    21987705.712
       223.000         177.000
 -11656889.15049  -9056527.95847  20336305.068    20336304.509    20336314.329
       241.000         204.000
 00  5  3 17 22 59.9960000  0  8G16G 2G30G 4G24G 5G 7G 9
  -7492631.74649  -5824306.58345  23220120.730    23220120.298    23220133.260
       211.000         158.000
   9815687.62349   7648518.94945  23084541.295    23084539.846    23084556.727
       201.000         136.000
  -3796725.17349  -2941335.19245  23704776.529    23704776.688    23704793.875
       201.000         144.000
 -13928078.29049 -10829981.13247  19391981.156    19391980.982    19391990.244
       238.000         205.000
 -25422316.88249 -19792274.57047  19393455.795    19393455.419    19393465.846
       237.000         203.000
 -22750829.21749 -17714720.12447  20616961.294    20616960.780    20616972.477
       231.000         190.000
   8677820.21849   6761898.82046  21997555.965    21997554.879    21997567.682
       224.000         179.000
 -11628383.77749  -9034316.05047  20341729.509    20341728.961    20341738.764
       241.000         204.000
 00  5  3 17 23 29.9960000  0  8G16G 2G30G 4G24G 5G 7G 9
  -7499872.30049  -5829948.52145  23218743.041    23218742.490    23218755.261
       215.000         159.000
   9891115.34849   7707293.54845  23098894.887    23098893.542    23098910.274
       199.000         135.000
  -3909781.49149  -3029430.93045  23683262.509    23683262.739    23683279.929
       208.000         146.000
 -13903835.67049 -10811090.83747  19396594.449    19396594.244    19396603.503
       238.000         205.000
 -25478899.10349 -19836364.59747  19382688.557    19382688.177    19382698.575
       237.000         203.000
 -22837173.48649 -17782001.30947  20600530.440    20600529.950    20600541.611
       232.000         190.000
   8729737.88949   6802354.06146  22007435.673    22007434.576    22007447.368
       224.000         179.000
 -11599324.01649  -9011672.14847  20347259.482    20347258.910    20347268.685
       241.000         204.000
 00  5  3 17 23 59.9960000  0  8G16G 2G30G 4G24G 5G 7G 9
  -7506544.12249  -5835147.28545  23217473.557    23217472.882    23217485.705
       212.000         161.000
   9966793.67349   7766263.42645  23113296.279    23113294.856    23113311.747
       200.000         135.000
  -4022830.56449  -3117520.98345  23661750.010    23661750.090    23661767.386
       213.000         145.000
 -13879026.73449 -10791759.25247  19401315.498    19401315.276    19401324.530
       238.000         205.000
 -25534929.38749 -19880024.54747  19372026.322    19372025.948    19372036.327
       236.000         203.000
 -22923282.46549 -17849099.15747  20584144.438    20584143.914    20584155.510
       231.000         190.000
   8781730.37849   6842867.60446  22017329.598    22017328.502    22017341.284
       224.000         178.000
 -11569729.75149  -8988611.75147  20352891.147    20352890.570    20352900.336
       241.000         203.000
 00  5  3 17 24 29.9960000  0  8G16G 2G30G 4G24G 5G 7G 9
  -7512649.43249  -5839904.61045  23216311.554    23216310.997    23216323.878
       214.000         159.000
  10042718.91249   7825425.71445  23127744.630    23127743.115    23127760.010
       198.000         132.000
  -4135873.45549  -3205606.25345  23640238.680    23640238.591    23640255.982
       212.000         144.000
 -13853655.93949 -10771989.85847  19406143.461    19406143.237    19406152.489
       238.000         205.000
 -25590409.63649 -19923255.90047  19361468.759    19361468.382    19361478.764
       237.000         202.000
 -23009156.71549 -17916014.09347  20567803.106    20567802.556    20567814.100
       231.000         191.000
   8833794.80149   6883437.20246  22027237.249    22027236.119    22027248.933
       224.000         179.000
 -11539604.93049  -8965137.93147  20358623.803    20358623.190    20358632.949
       241.000         204.000
 00  5  3 17 24 59.9960000  0  8G16G 2G30G 4G24G 5G 7G 9
  -7518196.29549  -5844226.79745  23215256.156    23215255.517    23215268.454
       212.000         158.000
  10118881.19849   7884772.68744  23142237.982    23142236.532    23142253.455
       197.000         130.000
  -4248917.64849  -3293692.56845  23618727.068    23618726.869    23618744.299
       210.000         147.000
 -13827733.86549 -10751790.90347  19411076.298    19411076.088    19411085.359
       238.000         205.000
 -25645347.80749 -19966064.85847  19351014.345    19351013.990    19351024.370
       236.000         202.000
 -23094803.05749 -17982751.44447  20551505.124    20551504.540    20551516.052
       232.000         191.000
   8885922.04649   6924055.76146  22037156.816    22037155.698    22037168.508
       224.000         178.000
 -11508960.25249  -8941259.03047  20364455.357    20364454.742    20364464.483
       241.000         204.000
 00  5  3 17 25 29.9960000  0  8G16G 2G30G 4G24G 5G 7G 9
  -7523177.44849  -5848108.17245  23214308.003    23214307.540    23214320.297
       215.000         155.000
  10195286.51449   7944309.04144  23156777.476    23156776.252    23156793.090
       196.000         131.000
  -4361954.59949  -3381773.19245  23597216.696    23597216.714    23597234.055
       209.000         145.000
 -13801255.55049 -10731158.51247  19416114.987    19416114.766    19416124.069
       238.000         205.000
 -25699735.96749 -20008445.23247  19340664.604    19340664.235    19340674.616
       236.000         202.000
 -23180212.71649 -18049304.36147  20535252.181    20535251.576    20535263.057
       231.000         191.000
   8938118.83449   6964728.50046  22047089.584    22047088.465    22047101.313
       223.000         178.000
 -11477790.63749  -8916971.08847  20370386.813    20370386.190    20370395.931
       241.000         204.000
 00  5  3 17 25 59.9960000  0  8G16G 2G30G 4G24G 5G 7G 9
  -7527596.23549  -5851551.33345  23213467.146    23213466.698    23213479.525
       204.000         155.000
  10271929.98949   8004030.96845  23171362.390    23171361.144    23171378.127
       196.000         133.000
  -4474986.97649  -3469850.24645  23575707.303    23575707.328    23575724.663
       213.000         145.000
 -13774226.43649 -10710096.92047  19421258.494    19421258.277    19421267.594
       238.000         205.000
 -25753577.02049 -20050399.28847  19330418.965    19330418.610    19330428.996
       237.000         202.000
 -23265387.23649 -18115674.04847  20519043.979    20519043.354    20519054.815
       232.000         191.000
   8990381.00049   7005452.20446  22057034.807    22057033.695    22057046.510
       223.000         176.000
 -11446101.94249  -8892278.66547  20376417.051    20376416.417    20376426.162
       241.000         205.000
 00  5  3 17 26 29.9960000  0  8G16G 2G30G 4G24G 5G 7G 9
  -7531436.01349  -5854543.30645  23212736.626    23212735.947    23212748.559
       212.000         155.000
  10348826.95949   8063950.40445  23185995.726    23185994.300    23186011.300
       197.000         132.000
  -4587996.96149  -3557909.87045  23554202.201    23554202.141    23554219.439
       213.000         146.000
 -13746632.33649 -10688595.08347  19426509.511    19426509.290    19426518.637
       238.000         206.000
 -25806854.22249 -20091913.97747  19320280.653    19320280.291    19320290.671
       236.000         202.000
 -23350308.52449 -18181846.41947  20502883.961    20502883.315    20502894.771
       231.000         190.000
   9042724.68249   7046239.39446  22066995.577    22066994.434    22067007.271
       223.000         177.000
 -11413879.64249  -8867170.45347  20382548.818    20382548.178    20382557.922
       241.000         204.000
 00  5  3 17 26 59.9960000  0  8G16G 2G30G 4G24G 5G 7G 9
  -7534706.79249  -5857091.94945  23212113.813    23212113.327    23212126.299
       212.000         156.000
  10425965.98449   8124058.46645  23200675.074    23200673.758    23200690.656
       198.000         132.000
  -4700993.53349  -3645959.03145  23532699.583    23532699.562    23532716.753
       211.000         148.000
 -13718485.53249 -10666662.56447  19431865.700    19431865.488    19431874.855
       239.000         206.000
 -25859576.97649 -20132996.63347  19310247.848    19310247.479    19310257.871
       236.000         202.000
 -23434984.92149 -18247827.96147  20486770.516    20486769.896    20486781.311
       231.000         191.000
   9095139.27649   7087081.86146  22076969.791    22076968.663    22076981.529
       223.000         176.000
 -11381135.91749  -8841655.93047  20388779.789    20388779.160    20388788.924
       240.000         204.000
 00  5  3 17 27 29.9960000  0  8G16G 2G30G 4G24G 5G 7G 9
  -7537418.79349  -5859205.09645  23211597.911    23211597.330    23211610.009
       208.000         151.000
  10503335.32649   8184346.01745  23215398.309    23215396.850    23215413.747
       198.000         134.000
  -4813985.49349  -3734004.56945  23511197.837    23511197.919    23511214.990
       209.000         147.000
 -13689798.62449 -10644309.18047  19437324.676    19437324.466    19437333.848
       238.000         206.000
 -25911755.08449 -20173654.88647  19300318.681    19300318.308    19300328.701
       236.000         202.000
 -23519424.88849 -18313625.27747  20470702.050    20470701.448    20470712.849
       231.000         190.000
   9147613.95849   7127971.13246  22086955.387    22086954.303    22086967.226
       222.000         175.000
 -11347883.10149  -8815744.71447  20395107.608    20395106.996    20395116.808
       240.000         204.000
 00  5  3 17 27 59.9960000  0  8G16G 2G30G 4G24G 5G 7G 9
  -7539572.25449  -5860883.08945  23211188.037    23211187.361    23211200.158
       212.000         152.000
  10580933.44249   8244811.82445  23230165.049    23230163.410    23230180.298
       198.000         136.000
  -4926971.97849  -3822045.86245  23489697.118    23489697.242    23489714.188
       212.000         145.000
 -13660573.78549 -10621536.62847  19442886.022    19442885.822    19442895.203
       239.000         206.000
 -25963388.28049 -20213888.53347  19290493.223    19290492.830    19290503.234
       237.000         202.000
 -23603627.00049 -18379237.25047  20454678.856    20454678.260    20454689.660
       231.000         191.000
   9200148.10549   7168906.77246  22096952.369    22096951.281    22096964.186
       221.000         173.000
 -11314123.55349  -8789438.64247  20401531.845    20401531.276    20401541.124
       240.000         204.000
 00  5  3 17 28 29.9960000  0  8G16G 2G30G 4G24G 5G 7G 9
  -7541161.21249  -5862121.20045  23210885.478    23210884.888    23210897.446
       213.000         149.000
  10658764.66749   8305459.27045  23244976.039    23244974.450    23244991.296
       198.000         137.000
  -5039946.26149  -3910077.64745  23468198.584    23468198.810    23468215.757
       210.000         146.000
 -13630807.80449 -10598342.39847  19448550.381    19448550.151    19448559.534
       239.000         207.000
 -26014470.63349 -20253692.95047  19280772.581    19280772.184    19280782.589
       236.000         202.000
 -23687583.86049 -18444658.11447  20438702.296    20438701.735    20438713.132
       231.000         190.000
   9252746.87049   7209892.74546  22106961.599    22106960.550    22106973.462
       222.000         172.000
 -11279854.00549  -8762735.17547  20408053.169    20408052.596    20408062.485
       240.000         205.000
 00  5  3 17 28 59.9960000  0  8G16G 2G30G 4G24G 5G 7G 9
  -7542180.73549  -5862915.57345  23210691.153    23210690.740    23210703.415
       208.000         149.000
  10736832.55549   8366291.13445  23259831.993    23259830.382    23259847.437
       201.000         137.000
  -5152901.90749  -3998094.86845  23446703.658    23446703.930    23446720.901
       213.000         146.000
 -13600497.72549 -10574724.19647  19454318.244    19454318.019    19454327.390
       239.000         206.000
 -26064996.67449 -20293063.88047  19271157.774    19271157.375    19271167.793
       236.000         202.000
 -23771288.53649 -18509882.47347  20422773.732    20422773.193    20422784.580
       231.000         190.000
   9305414.75449   7250932.59346  22116984.041    22116982.964    22116995.878
       221.000         173.000
 -11245071.48949  -8735631.98447  20414672.117    20414671.534    20414681.460
       240.000         205.000
 00  5  3 17 29 29.9960000  0  8G16G 2G30G 4G24G 5G 7G 9
  -7542638.44049  -5863272.17345  23210604.062    23210603.594    23210616.149
       208.000         151.000
  10815128.17649   8427300.45745  23274731.409    23274729.819    23274746.856
       201.000         141.000
  -5265845.36749  -4086102.61145  23425211.061    23425211.389    23425228.312
       211.000         144.000
 -13569653.65349 -10550689.88647  19460187.731    19460187.502    19460196.864
       239.000         207.000
 -26114973.52449 -20332006.86447  19261647.483    19261647.091    19261657.518
       236.000         202.000
 -23854746.80649 -18574914.83147  20406892.131    20406891.566    20406902.903
       232.000         191.000
   9358143.62649   7292019.96946  22127018.110    22127016.998    22127029.934
       220.000         173.000
 -11209785.75049  -8708136.67647  20421386.817    20421386.235    20421396.202
       240.000         205.000
 00  5  3 17 29 59.9960000  0  8G16G 2G30G 4G24G 5G 7G 9
  -7542540.89249  -5863196.15245  23210622.257    23210622.027    23210634.712
       206.000         149.000
  10893643.91149   8488481.29345  23289672.643    23289671.136    23289688.143
       201.000         141.000
  -5378781.56049  -4174104.73445  23403720.001    23403720.178    23403737.078
       213.000         145.000
 -13538284.17049 -10526246.16947  19466157.205    19466156.972    19466166.320
       239.000         206.000
 -26164407.21549 -20370526.61247  19252240.552    19252240.172    19252250.591
       236.000         202.000
 -23937963.27249 -18639758.76947  20391056.532    20391055.947    20391067.245
       232.000         191.000
   9410926.69549   7333149.57746  22137062.489    22137061.390    22137074.284
       222.000         175.000
 -11174005.43349  -8680255.97747  20428195.620    20428195.053    20428205.063
       240.000         205.000
 00  5  3 17 30 29.9960000  0  8G16G 2G30G 4G24G 5G 7G 9
  -7541891.47049  -5862690.01245  23210745.891    23210745.520    23210758.054
       205.000         148.000
  10972374.81949   8549829.81045  23304654.730    23304653.274    23304670.401
       201.000         140.000
  -5491713.10349  -4262103.14345  23382229.620    23382229.911    23382246.748
       214.000         144.000
 -13506395.00049 -10501397.50247  19472225.572    19472225.329    19472234.677
       240.000         206.000
 -26213300.95449 -20408625.61447  19242936.375    19242935.993    19242946.424
       236.000         202.000
 -24020939.81449 -18704415.75447  20375266.572    20375265.989    20375277.263
       233.000         191.000
   9463759.99449   7374318.31546  22147116.333    22147115.279    22147128.231
       221.000         174.000
 -11137736.24549  -8651994.34247  20435097.482    20435096.910    20435106.945
       240.000         205.000
 00  5  3 17 30 59.9960000  0  8G16G 2G30G 4G24G 5G 7G 9
  -7540675.05849  -5861742.13445  23210977.351    23210976.916    23210989.615
       211.000         150.000
  11051334.61349   8611356.66845  23319680.394    23319679.007    23319696.221
       202.000         139.000
  -5604623.59849  -4350085.20745  23360743.333    23360743.596    23360760.359
       213.000         143.000
 -13473973.29049 -10476133.86747  19478395.289    19478395.026    19478404.363
       239.000         207.000
 -26261639.34349 -20446291.87647  19233737.867    19233737.502    19233747.899
       236.000         202.000
 -24103659.24449 -18768872.39047  20359525.508    20359524.959    20359536.215
       234.000         191.000
   9516658.20449   7415537.66046  22157182.653    22157181.556    22157194.509
       221.000         176.000
 -11100965.40849  -8623341.81147  20442094.804    20442094.220    20442104.279
       240.000         204.000
 00  5  3 17 31 29.9960000  0  8G16G 2G30G 4G24G 5G 7G 9
  -7538888.62549  -5860350.05845  23211317.275    23211316.815    23211329.530
       213.000         154.000
  11130525.49649   8673063.60245  23334750.019    23334748.643    23334766.056
       199.000         140.000
  -5717508.15349  -4438047.03545  23339262.078    23339262.296    23339278.985
       213.000         144.000
 -13441017.93549 -10450454.40547  19484666.523    19484666.270    19484675.610
       239.000         207.000
 -26309418.42749 -20483522.31847  19224645.798    19224645.442    19224655.818
       236.000         202.000
 -24186116.51649 -18833124.75447  20343834.393    20343833.822    20343845.045
       234.000         192.000
   9569624.35749   7456809.90446  22167261.841    22167260.755    22167273.791
       222.000         177.000
 -11063691.57549  -8594297.33847  20449187.832    20449187.242    20449197.321
       241.000         204.000
 00  5  3 17 31 59.9960000  0  8G16G 2G30G 4G24G 5G 7G 9
  -7536532.83149  -5858514.33945  23211765.429    23211764.993    23211777.660
       206.000         147.000
  11209945.29049   8734948.90345  23349863.281    23349861.851    23349879.505
       202.000         142.000
  -5830366.14649  -4525988.13345  23317785.703    23317786.078    23317802.676
       218.000         148.000
 -13407532.18649 -10424361.64747  19491038.646    19491038.434    19491047.783
       239.000         207.000
 -26356638.75249 -20520317.36247  19215660.052    19215659.680    19215670.047
       235.000         201.000
 -24268310.60549 -18897172.02847  20328193.368    20328192.778    20328203.963
       234.000         192.000
   9622657.35949   7498134.26646  22177353.765    22177352.676    22177365.694
       223.000         177.000
 -11025918.02549  -8564863.47547  20456375.970    20456375.364    20456385.431
       240.000         204.000
 00  5  3 17 32 29.9960000  0  8G16G 2G30G 4G24G 5G 7G 9
  -7533610.71149  -5856237.32245  23212321.652    23212321.122    23212333.907
       208.000         151.000
  11289589.46349   8797009.03845  23365019.296    23365017.869    23365035.577
       203.000         142.000
  -5943199.30849  -4613909.90745  23296314.210    23296314.542    23296331.145
       213.000         147.000
 -13373521.23549 -10397859.64847  19497510.719    19497510.538    19497519.912
       239.000         207.000
 -26403303.09149 -20556679.16847  19206780.104    19206779.750    19206790.096
       235.000         201.000
 -24350242.48649 -18961014.99747  20312602.287    20312601.632    20312612.780
       233.000         193.000
   9675753.76249   7539508.03746  22187457.824    22187456.680    22187469.698
       223.000         178.000
 -10987649.90749  -8535044.23147  20463658.207    20463657.592    20463667.667
       240.000         203.000
 00  5  3 17 32 59.9960000  0  8G16G 2G30G 4G24G 5G 7G 9
  -7530124.98549  -5853521.11645  23212985.048    23212984.456    23212996.967
       211.000         150.000
  11369454.17949   8859241.04245  23380217.310    23380215.850    23380233.563
       202.000         141.000
  -6056008.62349  -4701813.08045  23274847.289    23274847.554    23274864.142
       212.000         148.000
 -13338989.84549 -10370952.11047  19504081.875    19504081.682    19504091.063
       240.000         207.000
 -26449413.51749 -20592609.35747  19198005.584    19198005.223    19198015.554
       235.000         201.000
 -24431912.99449 -19024654.28547  20297060.905    20297060.233    20297071.329
       234.000         193.000
   9728910.75449   7580929.02146  22197573.241    22197572.161    22197585.221
       223.000         178.000
 -10948891.82749  -8504843.20047  20471033.695    20471033.068    20471043.132
       240.000         203.000
 00  5  3 17 33 29.9960000  0  8G16G 2G30G 4G24G 5G 7G 9
  -7526080.85849  -5850369.81445  23213754.398    23213753.864    23213766.596
       210.000         147.000
  11449533.22649   8921640.03245  23395456.168    23395454.657    23395472.324
       201.000         142.000
  -6168797.90949  -4789700.66045  23253384.077    23253384.397    23253400.917
       216.000         151.000
 -13303945.38549 -10343644.78547  19510750.655    19510750.454    19510759.843
       240.000         207.000
 -26494974.95849 -20628111.76547  19189335.513    19189335.146    19189345.478
       235.000         201.000
 -24513325.12049 -19088092.24447  20281568.675    20281567.987    20281579.059
       233.000         192.000
   9782122.79549   7622392.89546  22207699.261    22207698.142    22207711.250
       222.000         178.000
 -10909650.86149  -8474265.89247  20478501.076    20478500.426    20478510.492
       240.000         204.000
 00  5  3 17 33 59.9960000  0  8G16G 2G30G 4G24G 5G 7G 9
  -7521484.69749  -5846788.32745  23214628.866    23214628.441    23214640.941
       213.000         152.000
  11529818.86449   8984200.01845  23410734.228    23410732.724    23410750.388
       200.000         142.000
  -6281571.96249  -4877576.34345  23231923.763    23231924.093    23231940.684
       213.000         150.000
 -13268396.30749 -10315944.25447  19517515.467    19517515.261    19517524.629
       239.000         206.000
 -26539993.02349 -20663190.76047  19180768.874    19180768.488    19180778.814
       235.000         201.000
 -24594483.28349 -19151332.30547  20266124.769    20266124.071    20266135.109
       234.000         192.000
   9835383.39649   7663894.61546  22217834.448    22217833.348    22217846.473
       220.000         176.000
 -10869935.93549  -8443319.26347  20486058.623    20486057.981    20486068.046
       240.000         203.000
 00  5  3 17 34 29.9960000  0  8G16G 2G30G 4G24G 5G 7G 9
  -7516337.24349  -5842777.27745  23215608.553    23215607.941    23215620.614
       213.000         155.000
  11610308.68149   9046919.09545  23426051.150    23426049.732    23426067.381
       200.000         140.000
  -6394330.20649  -4965439.71845  23210466.481    23210466.839    23210483.414
       215.000         152.000
 -13232345.93149 -10287853.09747  19524375.658    19524375.444    19524384.812
       240.000         206.000
 -26584468.67749 -20697847.09747  19172305.449    19172305.046    19172315.370
       234.000         201.000
 -24675386.68049 -19214373.85247  20250729.283    20250728.619    20250739.645
       233.000         192.000
   9888691.45149   7705433.29046  22227978.633    22227977.563    22227990.707
       221.000         175.000
 -10829750.16649  -8412005.74547  20493705.743    20493705.120    20493715.194
       240.000         203.000
 00  5  3 17 34 59.9960000  0  8G16G 2G30G 4G24G 5G 7G 9
  -7510641.15949  -5838338.73145  23216692.734    23216691.986    23216704.585
       211.000         158.000
  11690999.51349   9109794.81945  23441406.295    23441404.889    23441422.562
       200.000         139.000
  -6507073.22949  -5053291.24245  23189012.138    23189012.383    23189028.985
       213.000         149.000
 -13195798.51549 -10259374.63547  19531330.416    19531330.222    19531339.593
       239.000         206.000
 -26628403.40149 -20732081.92647  19163944.923    19163944.541    19163954.866
       235.000         201.000
 -24756035.13249 -19277216.73247  20235382.355    20235381.679    20235392.665
       233.000         193.000
   9942044.69749   7747007.20246  22238131.462    22238130.364    22238143.557
       220.000         174.000
 -10789097.96749  -8380328.77847  20501441.672    20501441.031    20501451.116
       240.000         203.000
 00  5  3 17 35 29.9960000  0  8G16G 2G30G 4G24G 5G 7G 9
  -7504395.14249  -5833471.64445  23217881.307    23217880.532    23217893.166
       208.000         155.000
  11771891.05649   9172826.91745  23456799.566    23456798.138    23456815.944
       200.000         137.000
  -6619798.50849  -5141128.91145  23167561.062    23167561.344    23167577.967
       211.000         150.000
 -13158755.27349 -10230509.82347  19538379.514    19538379.343    19538388.720
       240.000         206.000
 -26671796.07949 -20765894.38547  19155687.568    19155687.178    19155697.502
       235.000         201.000
 -24836425.78549 -19339858.73847  20220084.432    20220083.789    20220094.762
       234.000         192.000
   9995443.81249   7788616.83946  22248292.891    22248291.881    22248305.145
       220.000         172.000
 -10747980.45749  -8348289.23547  20509266.127    20509265.485    20509275.596
       240.000         204.000
 00  5  3 17 35 59.9960000  0  8G16G 2G30G 4G24G 5G 7G 9
  -7497593.88249  -5828171.92445  23219175.430    23219174.677    23219187.455
       205.000         153.000
  11852987.85449   9236018.97145  23472231.986    23472230.511    23472248.443
       199.000         137.000
  -6732498.44849  -5228946.83845  23146114.730    23146115.109    23146131.782
       211.000         147.000
 -13121212.77049 -10201255.98047  19545523.647    19545523.469    19545532.840
       239.000         206.000
 -26714640.54449 -20799279.66447  19147534.530    19147534.147    19147544.467
       235.000         201.000
 -24916550.65849 -19402293.63947  20204837.127    20204836.490    20204847.449
       234.000         193.000
  10048894.40249   7830266.60146  22258464.248    22258463.210    22258476.468
       219.000         171.000
 -10706393.98349  -8315884.25547  20517179.809    20517179.185    20517189.313
       240.000         204.000
 00  5  3 17 36 29.9960000  0  8G16G 2G30G 4G24G 5G 7G 9
  -7490240.81049  -5822442.18845  23220574.764    23220573.928    23220586.742
       210.000         155.000
  11934285.24249   9299367.30545  23487702.521    23487701.142    23487719.267
       196.000         135.000
  -6845175.38349  -5316746.82945  23124672.901    23124673.199    23124690.003
       211.000         151.000
 -13083176.76249 -10171617.58347  19552761.667    19552761.503    19552770.898
       239.000         205.000
 -26756940.02949 -20832240.28547  19139485.200    19139484.817    19139495.135
       234.000         201.000
 -24996411.12149 -19464522.50847  20189640.116    20189639.492    20189650.464
       233.000         193.000
  10102392.72049   7871953.53746  22268644.666    22268643.635    22268656.942
       218.000         170.000
 -10664343.98949  -8283118.09647  20525181.708    20525181.085    20525191.243
       240.000         204.000
 00  5  3 17 36 59.9960000  0  8G16G 2G30G 4G24G 5G 7G 9
  -7482332.04749  -5816279.44945  23222079.972    23222078.964    23222091.742
       213.000         157.000
  12015786.00649   9362874.12845  23503211.852    23503210.450    23503228.611
       197.000         134.000
  -6957823.46349  -5404524.34745  23103236.527    23103236.794    23103253.680
       213.000         150.000
 -13044645.21649 -10141593.05547  19560093.986    19560093.834    19560103.253
       239.000         206.000
 -26798690.25249 -20864772.91047  19131540.371    19131540.016    19131550.333
       234.000         201.000
 -25076001.24249 -19526540.71747  20174494.567    20174493.936    20174504.926
       234.000         193.000
  10155942.87349   7913680.87946  22278834.956    22278833.907    22278847.199
       217.000         167.000
 -10621829.02349  -8249989.62547  20533272.084    20533271.467    20533281.651
       240.000         203.000
 00  5  3 17 37 29.9960000  0  8G16G 2G30G 4G24G 5G 7G 9
  -7473867.72149  -5809683.81945  23223690.390    23223689.571    23223702.439
       211.000         152.000
  12097488.82749   9426538.38445  23518759.612    23518758.254    23518776.434
       197.000         132.000
  -7070441.06149  -5492278.10545  23081805.919    23081806.210    23081823.171
       212.000         152.000
 -13005620.65449 -10111184.35747  19567520.152    19567519.987    19567529.446
       240.000         206.000
 -26839890.89149 -20896877.28447  19123700.148    19123699.769    19123710.101
       234.000         201.000
 -25155318.96949 -19588346.66947  20159400.825    20159400.222    20159411.210
       234.000         193.000
  10209544.51249   7955448.31346  22289034.960    22289033.970    22289047.292
       217.000         168.000
 -10578851.21649  -8216500.49047  20541450.530    20541449.924    20541460.135
       240.000         203.000
 00  5  3 17 37 59.9960000  0  8G16G 2G30G 4G24G 5G 7G 9
  -7464850.68249  -5802657.54245  23225406.303    23225405.452    23225418.429
       209.000         151.000
  12179390.01449   9490357.24145  23534345.118    23534343.719    23534361.875
       197.000         133.000
  -7183028.94049  -5580008.71445  23060380.963    23060381.307    23060398.233
       210.000         151.000
 -12966107.75449 -10080395.13547  19575039.245    19575039.078    19575048.570
       239.000         206.000
 -26880544.00049 -20928555.01447  19115964.123    19115963.740    19115974.066
       234.000         201.000
 -25234364.66549 -19649940.65447  20144358.815    20144358.265    20144369.243
       233.000         193.000
  10263195.13049   7997253.91346  22299244.374    22299243.354    22299256.728
       217.000         165.000
 -10535415.30849  -8182654.39247  20549716.168    20549715.565    20549725.805
       239.000         203.000
 00  5  3 17 38 29.9960000  0  9G16G 2G30G 4G24G 5G 7G10G 9
  -7455263.73049  -5795187.14045  23227230.500    23227229.703    23227242.592
       213.000         155.000
  12261505.48849   9554343.05744  23549971.376    23549969.915    23549988.103
       196.000         130.000
  -7295568.31849  -5667701.52145  23038965.334    23038965.659    23038982.542
       211.000         151.000
 -12926091.50449 -10049213.69147  19582654.154    19582653.965    19582663.470
       240.000         206.000
 -26920632.31649 -20959792.65047  19108335.546    19108335.165    19108345.496
       233.000         201.000
 -25313119.16349 -19711307.73547  20129372.251    20129371.713    20129382.704
       234.000         193.000
  10316911.83749   8039111.05646  22309466.386    22309465.361    22309478.630
       217.000         164.000
   -336922.80859   -246295.74255  23460624.327    23460621.999    23460642.137
       205.000         143.000
 -10491506.28649  -8148439.63547  20558071.823    20558071.234    20558081.487
       240.000         203.000
 00  5  3 17 38 59.9960000  0  9G16G 2G30G 4G24G 5G 7G10G 9
  -7445120.94549  -5787283.61345  23229160.455    23229159.738    23229172.707
       214.000         151.000
  12343820.18449   9618484.12544  23565635.535    23565634.201    23565652.372
       195.000         129.000
  -7408071.22949  -5755365.92245  23017556.556    23017556.921    23017573.775
       214.000         151.000
 -12885587.87549 -10017652.47447  19590361.807    19590361.592    19590371.121
       240.000         206.000
 -26960169.34749 -20990600.70947  19100811.896    19100811.514    19100821.829
       233.000         200.000
 -25391593.88649 -19772456.80547  20114438.962    20114438.403    20114449.383
       234.000         193.000
  10370680.77349   8081008.85546  22319698.336    22319697.284    22319710.566
       218.000         165.000
   -447547.46849   -332496.51655  23439573.102    23439571.846    23439590.402
       205.000         145.000
 -10447140.28649  -8113868.79647  20566514.447    20566513.861    20566524.124
       240.000         202.000
 00  5  3 17 39 29.9960000  0  9G16G 2G30G 4G24G 5G 7G10G 9
  -7434420.00249  -5778945.20045  23231196.624    23231196.005    23231209.059
       213.000         151.000
  12426335.22449   9682781.30244  23581337.877    23581336.156    23581354.879
       195.000         126.000
  -7520533.27649  -5842998.48045  22996155.537    22996155.896    22996172.813
       216.000         152.000
 -12844596.82749  -9985711.45047  19598162.202    19598161.984    19598171.524
       240.000         206.000
 -26999152.33049 -21020977.04147  19093393.631    19093393.267    19093403.605
       233.000         200.000
 -25469784.38249 -19833384.40747  20099559.781    20099559.194    20099570.156
       235.000         194.000
  10424504.27549   8122949.19446  22329940.636    22329939.577    22329952.824
       216.000         164.000
   -558240.05459   -418750.21145  23418508.856    23418507.584    23418527.166
       205.000         144.000
 -10402317.13649  -8078941.73547  20575044.071    20575043.475    20575053.760
       239.000         202.000
 00  5  3 17 39 59.9960000  0  9G16G 2G30G 4G24G 5G 7G10G 9
  -7423154.54349  -5770166.84745  23233340.404    23233339.639    23233352.568
       209.000         152.000
  12509056.30148   9747239.01744  23597079.286    23597077.680    23597096.284
       192.000         125.000
  -7632946.01949  -5930592.64845  22974764.054    22974764.346    22974781.186
       214.000         152.000
 -12803113.52549  -9953386.84647  19606056.251    19606056.035    19606065.593
       240.000         206.000
 -27037574.28749 -21050916.21347  19086082.189    19086081.803    19086092.133
       233.000         200.000
 -25547681.83249 -19894083.66047  20084736.358    20084735.769    20084746.714
       234.000         193.000
  10478388.97649   8164937.22446  22340194.636    22340193.600    22340206.750
       219.000         165.000
   -668990.90649   -505049.29345  23397433.519    23397432.243    23397451.621
       204.000         145.000
 -10357032.20049  -8043654.83947  20583661.554    20583660.953    20583671.272
       239.000         202.000
 00  5  3 17 40 29.9960000  0  9G16G 2G30G 4G24G 5G 7G10G 9
  -7411331.57349  -5760954.11745  23235590.062    23235589.476    23235602.458
       211.000         152.000
  12591975.25648   9811850.97644  23612858.358    23612856.755    23612875.385
       192.000         123.000
  -7745315.00249  -6018152.71045  22953380.781    22953381.104    22953397.852
       214.000         154.000
 -12761147.53949  -9920686.12947  19614042.141    19614041.930    19614051.501
       239.000         205.000
 -27075442.06249 -21080423.55247  19078876.190    19078875.812    19078886.127
       234.000         200.000
 -25625290.97549 -19954558.26347  20069967.810    20069967.191    20069978.120
       234.000         193.000
  10532328.11849   8206967.65546  22350458.906    22350457.892    22350471.026
       218.000         164.000
   -779804.09549   -591396.95445  23376346.280    23376345.089    23376364.523
       204.000         145.000
 -10311294.86349  -8008015.42547  20592365.130    20592364.526    20592374.874
       239.000         202.000
 00  5  3 17 40 59.9960000  0  9G16G 2G30G 4G24G 5G 7G10G 9
  -7398946.38149  -5751303.25245  23237946.963    23237946.339    23237959.283
       208.000         152.000
  12675095.53348   9876619.77944  23628675.796    23628674.300    23628693.009
       189.000         121.000
  -7857633.26649  -6105673.26245  22932007.288    22932007.546    22932024.260
       216.000         155.000
 -12718696.01849  -9887607.07347  19622120.416    19622120.214    19622129.798
       239.000         205.000
 -27112750.52949 -21109495.07447  19071776.646    19071776.262    19071786.543
       233.000         200.000
 -25702604.70449 -20014802.67947  20055255.443    20055254.833    20055265.725
       233.000         193.000
  10586326.36249   8249044.15846  22360734.550    22360733.501    22360746.567
       219.000         165.000
   -890671.89449   -677787.16845  23355248.650    23355247.472    23355266.799
       206.000         144.000
 -10265102.40349  -7972021.37547  20601155.290    20601154.722    20601165.087
       239.000         202.000
 00  5  3 17 41 29.9960000  0  9G16G 2G30G 4G24G 5G 7G10G 9
  -7385991.85549  -5741208.76445  23240412.059    23240411.405    23240424.353
       208.000         152.000
  12758423.66548   9941550.51044  23644532.769    23644531.134    23644550.107
       184.000         117.000
  -7969891.46549  -6193147.00645  22910645.203    22910645.356    22910662.004
       215.000         156.000
 -12675753.67649  -9854145.56147  19630292.084    19630291.896    19630301.492
       239.000         205.000
 -27149491.93749 -21138124.72747  19064785.003    19064784.609    19064794.852
       233.000         200.000
 -25779613.36249 -20074809.37447  20040601.150    20040600.535    20040611.386
       234.000         194.000
  10640391.31549   8291172.62546  22371022.812    22371021.750    22371034.796
       220.000         166.000
  -1001583.44649   -764211.48145  23334142.667    23334141.615    23334160.967
       204.000         144.000
 -10218449.35749  -7935668.42447  20610033.157    20610032.560    20610042.950
       239.000         202.000
 00  5  3 17 41 59.9960000  0  8G16G30G 4G24G 5G 7G10G 9
  -7372456.31749  -5730661.52945  23242987.997    23242987.211    23243000.069
       207.000         153.000
  -8082075.93449  -6280563.29445  22889297.134    22889297.244    22889313.849
       217.000         156.000
 -12632310.95349  -9820294.13847  19638558.998    19638558.793    19638568.389
       239.000         204.000
 -27185654.04249 -21166302.98047  19057903.591    19057903.171    19057913.404
       232.000         199.000
 -25856302.78449 -20134567.31947  20026007.669    20026007.012    20026017.798
       234.000         194.000
  10694535.03749   8333362.48346  22381326.156    22381325.054    22381338.059
       220.000         169.000
  -1112524.54549   -850658.82045  23313031.030    23313030.037    23313049.504
       205.000         145.000
 -10171325.89449  -7898948.92047  20619000.540    20618999.931    20619010.317
       239.000         202.000
 00  5  3 17 42 29.9950000  0  8G16G30G 4G24G 5G 7G10G 9
  -7358345.31849  -5719665.92045  23245673.140    23245672.365    23245685.294
       213.000         149.000
  -8194185.74649  -6367921.42145  22867963.169    22867963.343    22867979.888
       216.000         157.000
 -12588376.17549  -9786059.30347  19646919.531    19646919.331    19646928.932
       239.000         204.000
 -27221240.28649 -21194032.50547  19051131.714    19051131.332    19051141.560
       232.000         199.000
 -25932673.04449 -20194076.57047  20011474.860    20011474.202    20011484.938
       234.000         194.000
  10748750.88649   8375608.53646  22391643.192    22391642.050    22391655.069
       221.000         167.000
  -1223492.77649   -937127.30545  23291914.322    23291913.339    23291932.843
       205.000         146.000
 -10123741.00549  -7861869.86447  20628055.722    20628055.095    20628065.484
       239.000         202.000
 00  5  3 17 42 59.9950000  0  8G16G30G 4G24G 5G 7G10G 9
  -7343658.79249  -5708221.81645  23248468.054    23248467.142    23248479.930
       213.000         152.000
  -8306226.91349  -6455226.05545  22846642.307    22846642.501    22846658.920
       218.000         157.000
 -12543949.18549  -9751440.92847  19655373.735    19655373.542    19655383.127
       239.000         204.000
 -27256253.62149 -21221315.60547  19044468.903    19044468.506    19044478.721
       232.000         199.000
 -26008727.51249 -20253339.75047  19997002.134    19997001.495    19997012.187
       235.000         194.000
  10803041.92149   8417913.18046  22401974.527    22401973.354    22401986.400
       222.000         168.000
  -1334493.10849  -1023620.81845  23270791.498    23270790.607    23270810.027
       206.000         146.000
 -10075694.35049  -7824430.99047  20637198.715    20637198.122    20637208.533
       239.000         202.000
 00  5  3 17 43 29.9950000  0  8G16G30G 4G24G 5G 7G10G 9
  -7328424.32949  -5696350.75145  23251366.912    23251366.037    23251378.871
       210.000         151.000
  -8418221.01449  -6542494.02645  22825330.393    22825330.574    22825346.937
       218.000         156.000
 -12499060.78849  -9716463.01347  19663915.753    19663915.557    19663925.140
       239.000         205.000
 -27290719.44549 -21248172.07847  19037910.233    19037909.856    19037920.073
       232.000         198.000
 -26084488.36849 -20312374.13747  19982585.290    19982584.644    19982595.321
       234.000         195.000
  10857379.57349   8460254.15446  22412314.682    22412313.536    22412326.617
       218.000         169.000
  -1445545.98049  -1110155.28145  23249658.644    23249657.822    23249677.307
       204.000         146.000
 -10027216.46849  -7786656.09247  20646423.815    20646423.203    20646433.636
       239.000         201.000
 00  5  3 17 43 59.9950000  0  8G16G30G 4G24G 5G 7G10G 9
  -7312639.80249  -5684051.08145  23254370.354    23254369.597    23254382.488
       211.000         148.000
  -8530163.54149  -6629721.78845  22804028.318    22804028.551    22804044.755
       218.000         157.000
 -12453710.51749  -9681125.19647  19672545.662    19672545.459    19672555.064
       239.000         205.000
 -27324635.14549 -21274599.88547  19031456.255    19031455.898    19031466.100
       231.000         198.000
 -26159950.78349 -20371175.97347  19968225.230    19968224.600    19968235.241
       234.000         195.000
  10911766.44549   8502633.45746  22422664.169    22422663.052    22422676.218
       220.000         170.000
  -1556645.74349  -1196726.30245  23228516.885    23228516.172    23228535.564
       205.000         145.000
  -9978306.94049  -7748544.85447  20655731.033    20655730.438    20655740.888
       239.000         201.000
 00  5  3 17 44 29.9950000  0  8G16G30G 4G24G 5G 7G10G 9
  -7296294.36249  -5671314.31245  23257480.604    23257479.974    23257492.778
       213.000         151.000
  -8642041.57849  -6716899.29245  22782738.517    22782738.714    22782754.900
       215.000         156.000
 -12407889.47649  -9645420.55147  19681265.120    19681264.942    19681274.582
       239.000         205.000
 -27357989.40749 -21300590.20747  19025109.103    19025108.774    19025118.976
       232.000         198.000
 -26235101.27449 -20429734.75647  19953924.521    19953923.893    19953934.520
       234.000         195.000
  10966213.77249   8545059.87846  22433025.236    22433024.073    22433037.319
       219.000         171.000
  -1667778.11849  -1283322.70145  23207368.917    23207368.301    23207387.601
       205.000         144.000
  -9928957.19549  -7710090.60047  20665122.062    20665121.446    20665131.899
       239.000         200.000
 00  5  3 17 44 59.9950000  0  8G16G30G 4G24G 5G 7G10G 9
  -7279415.53249  -5658161.93145  23260692.613    23260691.963    23260704.648
       213.000         153.000
  -8753880.01549  -6804045.95045  22761456.183    22761456.456    22761472.513
       218.000         156.000
 -12361627.20449  -9609372.08047  19690068.569    19690068.372    19690078.063
       239.000         205.000
 -27390809.32349 -21326164.15947  19018863.681    19018863.329    19018873.544
       231.000         198.000
 -26309964.87049 -20488069.98047  19939678.427    19939677.787    19939688.409
       234.000         195.000
  11020694.52549   8587512.32246  22443392.580    22443391.447    22443404.847
       219.000         171.000
  -1778967.15449  -1369963.27045  23186210.131    23186209.606    23186228.887
       203.000         144.000
  -9879196.52049  -7671316.12547  20674591.267    20674590.648    20674601.098
       239.000         200.000
 00  5  3 17 45 29.9950000  0  8G16G30G 4G24G 5G 7G10G 9
  -7261999.48449  -5644590.91345  23264006.804    23264006.147    23264018.799
       207.000         150.000
  -8865673.09349  -6891157.23445  22740182.470    22740182.759    22740198.811
       217.000         157.000
 -12314921.57349  -9572978.14047  19698956.369    19698956.196    19698965.932
       238.000         205.000
 -27423090.66449 -21351318.43947  19012720.759    19012720.395    19012730.603
       232.000         198.000
 -26384535.26749 -20546176.74347  19925488.131    19925487.475    19925498.095
       235.000         196.000
  11075212.74149   8629993.97546  22453767.190    22453765.985    22453779.431
       219.000         169.000
  -1890205.70849  -1456642.43445  23165041.987    23165041.411    23165060.769
       205.000         143.000
  -9829023.20649  -7632220.11447  20684138.990    20684138.369    20684148.840
       239.000         200.000
 00  5  3 17 45 59.9950000  0  8G16G30G 4G24G 5G 7G10G 9
  -7244065.80149  -5630616.61645  23267419.466    23267418.691    23267431.375
       207.000         147.000
  -8977437.66849  -6978246.33845  22718914.205    22718914.534    22718930.475
       216.000         158.000
 -12267794.19849  -9536255.57247  19707924.432    19707924.264    19707934.045
       239.000         205.000
 -27454852.40749 -21376067.83847  19006676.678    19006676.315    19006686.549
       231.000         198.000
 -26458829.14249 -20604068.02247  19911350.394    19911349.775    19911360.394
       234.000         196.000
  11129749.76849   8672490.29046  22464145.282    22464144.108    22464157.592
       219.000         170.000
  -2001509.81049  -1543372.67845  23143861.272    23143860.743    23143880.080
       202.000         143.000
  -9778458.36149  -7592819.02047  20693761.220    20693760.600    20693771.087
       239.000         200.000
 00  5  3 17 46 29.9950000  0  8G16G30G 4G24G 5G 7G10G 9
  -7225611.41849  -5616236.54145  23270931.069    23270930.402    23270942.951
       212.000         147.000
  -9089168.22849  -7065308.90945  22697652.385    22697652.796    22697668.669
       217.000         159.000
 -12220243.51949  -9499203.15647  19716973.086    19716972.901    19716982.706
       239.000         205.000
 -27486090.85749 -21400409.47547  19000732.195    19000731.827    19000742.057
       231.000         198.000
 -26532840.66549 -20661739.28747  19897266.434    19897265.825    19897276.421
       235.000         196.000
  11184309.24849   8715004.08746  22474527.693    22474526.525    22474540.055
       218.000         168.000
  -2112872.69449  -1630148.73045  23122669.463    23122668.945    23122688.222
       203.000         143.000
  -9727500.69349  -7553111.82947  20703458.160    20703457.566    20703468.092
       239.000         200.000
 00  5  3 17 46 59.9950000  0  8G16G30G 4G24G 5G 7G10G 9
  -7206633.85249  -5601448.77245  23274542.487    23274541.667    23274554.158
       214.000         148.000
  -9200859.92449  -7152341.21945  22676398.035    22676398.458    22676414.276
       218.000         158.000
 -12172268.92249  -9461820.40947  19726102.403    19726102.206    19726112.028
       239.000         205.000
 -27516803.15849 -21424341.13047  18994887.809    18994887.437    18994897.693
       230.000         197.000
 -26606564.48949 -20719186.37647  19883237.227    19883236.611    19883247.198
       235.000         196.000
  11238894.09749   8757537.65346  22484914.861    22484913.700    22484927.289
       217.000         168.000
  -2224288.51949  -1716966.04845  23101467.573    23101467.081    23101486.320
       202.000         143.000
  -9676149.66949  -7513098.13247  20713229.984    20713229.381    20713239.939
       239.000         199.000
 00  5  3 17 47 29.9950000  0  8G16G30G 4G24G 5G 7G10G 9
  -7187122.53449  -5586245.06445  23278255.426    23278254.653    23278266.860
       211.000         151.000
  -9312499.56449  -7239332.95045  22655153.619    22655153.979    22655169.767
       218.000         159.000
 -12123861.76149  -9424100.60547  19735313.997    19735313.808    19735323.673
       239.000         205.000
 -27546978.44549 -21447854.33147  18989145.635    18989145.259    18989155.518
       231.000         197.000
 -26679987.51549 -20776399.07447  19869265.250    19869264.638    19869275.206
       235.000         197.000
  11293515.58449   8800099.77846  22495308.945    22495307.851    22495321.513
       215.000         168.000
  -2335743.14749  -1803813.60045  23080258.351    23080257.772    23080276.994
       203.000         142.000
  -9624396.82949  -7472771.33647  20723078.269    20723077.676    20723088.251
       238.000         199.000
 00  5  3 17 47 59.9950000  0  8G16G30G 4G24G 5G 7G10G 9
  -7167068.54549  -5570618.52845  23282071.614    23282070.797    23282082.943
       208.000         151.000
  -9424075.99249  -7326275.41645  22633921.175    22633921.566    22633937.296
       217.000         158.000
 -12075015.00549  -9386038.25747  19744609.278    19744609.080    19744618.962
       239.000         205.000
 -27576607.25749 -21470941.69947  18983507.455    18983507.087    18983517.328
       230.000         197.000
 -26753097.99349 -20833368.22747  19855352.736    19855352.146    19855362.706
       235.000         197.000
  11348183.06449   8842697.72946  22505711.899    22505710.764    22505724.483
       216.000         169.000
  -2447224.09149  -1890681.68645  23059044.083    23059043.463    23059062.720
       203.000         140.000
  -9572234.94449  -7432125.80547  20733004.415    20733003.809    20733014.389
       238.000         199.000
 00  5  3 17 48 29.9950000  0  8G16G30G 4G24G 5G 7G10G 9
  -7146474.45649  -5554571.16345  23285990.619    23285989.686    23286001.978
       208.000         150.000
  -9535589.33749  -7413168.75045  22612700.719    22612701.105    22612716.804
       218.000         158.000
 -12025733.15749  -9347636.87747  19753987.368    19753987.159    19753997.027
       239.000         205.000
 -27605691.82749 -21493604.99047  18977972.865    18977972.476    18977982.721
       230.000         197.000
 -26825895.86749 -20890093.79747  19841499.755    19841499.133    19841509.678
       235.000         197.000
  11402894.55149   8885329.97546  22516123.281    22516122.068    22516135.828
       214.000         166.000
  -2558730.39649  -1977569.52945  23037824.969    23037824.354    23037843.584
       200.000         141.000
  -9519668.53849  -7391165.06747  20743007.531    20743006.927    20743017.502
       238.000         199.000
 00  5  3 17 48 59.9950000  0  9G16G30G 4G24G 5G 7G10G 9G 6
  -7125342.11849  -5538104.38045  23290011.779    23290010.923    23290023.213
       211.000         149.000
  -9647038.95349  -7500012.42445  22591492.416    22591492.828    22591508.446
       216.000         156.000
 -11976019.69649  -9308899.17747  19763447.593    19763447.376    19763457.251
       239.000         205.000
 -27634233.36349 -21515845.13747  18972541.582    18972541.190    18972551.439
       230.000         197.000
 -26898380.21349 -20946575.05847  19827706.422    19827705.780    19827716.310
       235.000         197.000
  11457648.95349   8927995.64146  22526542.678    22526541.541    22526555.346
       214.000         166.000
  -2670260.23349  -2064475.73345  23016601.475    23016600.844    23016619.996
       200.000         140.000
  -9466701.45549  -7349892.11747  20753086.932    20753086.298    20753096.861
       239.000         199.000
  -2267999.80259  -1753957.74955  24153312.736    24153312.330    24153330.957
       198.000         141.000
 00  5  3 17 49 29.9950000  0  9G16G30G 4G24G 5G 7G10G 9G 6
  -7103672.95849  -5521219.27545  23294135.178    23294134.366    23294146.737
       215.000         148.000
  -9758423.32749  -7586805.27545  22570296.532    22570296.904    22570312.468
       216.000         157.000
 -11925877.46049  -9269827.36247  19772989.418    19772989.187    19772999.045
       240.000         204.000
 -27662232.52249 -21537662.65547  18967213.505    18967213.129    18967223.380
       230.000         197.000
 -26970549.23149 -21002810.61147  19813973.093    19813972.435    19813982.959
       235.000         197.000
  11512445.83749   8970694.42046  22536970.279    22536969.120    22536982.942
       216.000         165.000
  -2781810.95749  -2151398.22345  22995373.896    22995373.312    22995392.310
       201.000         139.000
  -9413336.46449  -7308309.11347  20763242.035    20763241.399    20763251.948
       238.000         199.000
  -2354337.25349  -1821233.61145  24136883.266    24136882.822    24136901.480
       202.000         142.000
 00  5  3 17 49 59.9950000  0  9G16G30G 4G24G 5G 7G10G 9G 6
  -7081467.63649  -5503916.35745  23298360.786    23298360.018    23298372.094
       209.000         151.000
  -9869740.59149  -7673545.81245  22549113.348    22549113.767    22549129.354
       218.000         156.000
 -11875309.09649  -9230423.50347  19782612.334    19782612.071    19782621.930
       239.000         204.000
 -27689689.81049 -21559057.93747  18961988.573    18961988.190    18961998.406
       230.000         197.000
 -27042401.33749 -21058799.22347  19800300.063    19800299.418    19800309.927
       235.000         198.000
  11567285.08449   9013426.20346  22547405.858    22547404.728    22547418.602
       214.000         164.000
  -2893379.76849  -2238334.80445  22974142.882    22974142.368    22974161.337
       200.000         139.000
  -9359576.47249  -7266418.32047  20773472.295    20773471.651    20773482.214
       238.000         199.000
  -2440626.33249  -1888471.76045  24120462.950    24120462.475    24120481.215
       200.000         140.000
 00  5  3 17 50 29.9950000  0  9G16G30G 4G24G 5G 7G10G 9G 6
  -7058709.81549  -5486182.92445  23302691.745    23302690.798    23302702.548
       212.000         150.000
  -9980971.71749  -7760219.25845  22527946.663    22527947.050    22527962.560
       215.000         156.000
 -11824299.90149  -9190676.13647  19792319.110    19792318.859    19792328.704
       239.000         205.000
 -27716588.27649 -21580017.78047  18956869.953    18956869.576    18956879.799
       230.000         197.000
 -27113917.01649 -21114525.68347  19786691.056    19786690.404    19786700.917
       235.000         197.000
  11622183.95449   9056204.44246  22557852.771    22557851.685    22557865.623
       216.000         164.000
  -3004946.27849  -2325269.59545  22952912.388    22952911.782    22952930.811
       198.000         138.000
  -9305406.64649  -7224208.18247  20783780.517    20783779.889    20783790.469
       238.000         198.000
  -2526849.90149  -1955658.86545  24104055.095    24104054.552    24104073.447
       199.000         140.000
 00  5  3 17 50 59.9950000  0  9G16G30G 4G24G 5G 7G10G 9G 6
  -7035422.65949  -5468037.05645  23307123.103    23307122.168    23307133.946
       213.000         149.000
 -10092137.34549  -7846841.65145  22506792.437    22506792.805    22506808.308
       217.000         159.000
 -11772874.89749  -9150604.76347  19802105.034    19802104.770    19802114.619
       239.000         204.000
 -27742950.61549 -21600559.85547  18951853.338    18951852.971    18951863.201
       230.000         197.000
 -27185116.34849 -21170005.64447  19773142.260    19773141.582    19773152.098
       235.000         197.000
  11677119.93649   9099011.58846  22568306.781    22568305.704    22568319.660
       218.000         165.000
  -3116530.14049  -2412217.92545  22931678.525    22931677.953    22931696.934
       200.000         137.000
  -9250852.00449  -7181698.18847  20794161.995    20794161.362    20794171.971
       239.000         198.000
  -2613030.50649  -2022812.51045  24087655.413    24087654.940    24087673.713
       197.000         134.000
 00  5  3 17 51 29.9950000  0  9G16G30G 4G24G 5G 7G10G 9G 6
  -7011590.66549  -5449466.65745  23311658.096    23311657.240    23311668.951
       209.000         150.000
 -10203219.16249  -7933398.74045  22485654.086    22485654.481    22485669.930
       219.000         160.000
 -11721020.07249  -9110198.46247  19811972.725    19811972.466    19811982.316
       239.000         204.000
 -27768760.84049 -21620671.72047  18946941.822    18946941.452    18946951.687
       230.000         196.000
 -27255981.00249 -21225224.81647  19759657.123    19759656.469    19759666.948
       235.000         197.000
  11732109.46649   9141860.48545  22578770.999    22578769.948    22578783.865
       215.000         162.000
  -3228111.76949  -2499164.51545  22910445.035    22910444.583    22910463.306
       199.000         137.000
  -9195898.64949  -7138877.51047  20804619.346    20804618.719    20804629.347
       238.000         198.000
  -2699151.88149  -2089920.03945  24071266.934    24071266.490    24071285.313
       201.000         135.000
 00  5  3 17 51 59.9950000  0  9G16G30G 4G24G 5G 7G10G 9G 6
  -6987215.30949  -5430472.85045  23316296.517    23316295.602    23316307.463
       212.000         151.000
 -10314215.93649  -8019889.57445  22464531.945    22464532.399    22464547.785
       220.000         162.000
 -11668738.68949  -9069459.78047  19821921.569    19821921.320    19821931.184
       239.000         204.000
 -27794019.98349 -21640354.17347  18942135.182    18942134.794    18942144.987
       229.000         196.000
 -27326509.66249 -21280182.17747  19746235.970    19746235.293    19746245.764
       235.000         197.000
  11787151.79149   9184750.49546  22589245.203    22589244.198    22589258.109
       217.000         163.000
  -3339689.08549  -2586107.75645  22889212.456    22889211.880    22889230.686
       200.000         136.000
  -9140549.87549  -7095748.71347  20815151.943    20815151.313    20815161.965
       238.000         198.000
  -2785214.89949  -2156982.06145  24054889.601    24054889.352    24054907.963
       198.000         135.000
 00  5  3 17 52 29.9950000  0  9G16G30G 4G24G 5G 7G10G 9G 6
  -6962291.43449  -5411051.61545  23321039.309    23321038.532    23321050.437
       212.000         154.000
 -10425119.22249  -8106307.56245  22443427.700    22443428.101    22443443.408
       221.000         161.000
 -11616027.20049  -9028385.95047  19831952.263    19831952.029    19831961.912
       239.000         204.000
 -27818722.33549 -21659602.75847  18937434.516    18937434.089    18937444.262
       230.000         196.000
 -27396693.98749 -21334871.22047  19732880.283    19732879.621    19732890.084
       234.000         197.000
  11842253.15649   9227686.51245  22599730.712    22599729.682    22599743.646
       216.000         160.000
  -3451252.74849  -2673040.30645  22867982.583    22867981.828    22868000.556
       200.000         137.000
  -9084801.88649  -7052308.83747  20825760.520    20825759.877    20825770.548
       238.000         198.000
  -2871213.62049  -2223994.03045  24038524.565    24038524.459    24038543.028
       200.000         132.000
 00  5  3 17 52 59.9950000  0  9G16G30G 4G24G 5G 7G10G 9G 6
  -6936821.57249  -5391204.92645  23325886.022    23325885.253    23325897.099
       213.000         148.000
 -10535929.32249  -8192652.94045  22422341.177    22422341.506    22422356.817
       221.000         162.000
 -11562889.50549  -8986980.01047  19842064.035    19842063.819    19842073.738
       239.000         204.000
 -27842869.79049 -21678418.95747  18932839.423    18932838.988    18932849.133
       230.000         197.000
 -27466533.52049 -21389291.59647  19719590.188    19719589.557    19719600.010
       234.000         197.000
  11897411.73249   9270667.11245  22610227.120    22610226.072    22610239.984
       214.000         159.000
  -3562801.61749  -2759961.35645  22846755.447    22846754.766    22846773.385
       202.000         138.000
  -9028659.24349  -7008561.44547  20836444.178    20836443.541    20836454.241
       238.000         197.000
  -2957149.74749  -2290957.19045  24022171.542    24022171.358    24022189.850
       200.000         132.000
 00  5  3 17 53 29.9950000  0  9G16G30G 4G24G 5G 7G10G 9G 6
  -6910816.84249  -5370941.46345  23330834.342    23330833.671    23330845.414
       208.000         147.000
 -10646654.17149  -8278931.88345  22401270.878    22401271.166    22401286.422
       219.000         161.000
 -11509338.72049  -8945252.18447  19852254.429    19852254.223    19852264.171
       239.000         204.000
 -27866473.31449 -21696811.32247  18928347.811    18928347.400    18928357.538
       230.000         197.000
 -27536036.47849 -21443449.70447  19706364.184    19706363.551    19706374.001
       235.000         197.000
  11952617.32349   9313684.33145  22620732.526    22620731.436    22620745.335
       218.000         160.000
  -3674343.13849  -2846876.66645  22825529.688    22825529.042    22825547.605
       201.000         136.000
  -8972135.13449  -6964516.81047  20847200.434    20847199.801    20847210.523
       238.000         197.000
  -3043033.78749  -2357879.78844  24005828.416    24005828.311    24005846.613
       198.000         128.000
 00  5  3 17 53 59.9950000  0  9G16G30G 4G24G 5G 7G10G 9G 6
  -6884272.00249  -5350257.19445  23335885.440    23335884.892    23335896.785
       210.000         151.000
 -10757285.92349  -8365138.29345  22380218.195    22380218.504    22380233.773
       220.000         161.000
 -11455371.14149  -8903199.59047  19862524.142    19862523.937    19862533.906
       239.000         204.000
 -27889526.92349 -21714775.18047  18923960.862    18923960.451    18923970.586
       230.000         197.000
 -27605194.46449 -21497339.01047  19693203.812    19693203.186    19693213.624
       235.000         197.000
  12007876.23949   9356743.10745  22631248.062    22631246.980    22631260.812
       215.000         159.000
  -3785867.64349  -2933778.70545  22804307.219    22804306.512    22804325.079
       200.000         137.000
  -8915225.78849  -6920171.99547  20858030.006    20858029.360    20858040.112
       238.000         197.000
  -3128859.58049  -2424756.98844  23989496.276    23989496.109    23989514.446
       200.000         126.000
 00  5  3 17 54 29.9950000  0  9G16G30G 4G24G 5G 7G10G 9G 6
  -6857193.75549  -5329157.23245  23341038.062    23341037.659    23341049.566
       207.000         151.000
 -10867828.04449  -8451274.85645  22359182.560    22359182.884    22359198.189
       221.000         160.000
 -11400994.87649  -8860828.53847  19872871.647    19872871.443    19872881.432
       239.000         204.000
 -27912036.82749 -21732315.36747  18919677.367    18919676.951    18919687.105
       229.000         197.000
 -27674011.32349 -21550962.50647  19680108.372    19680107.754    19680118.161
       235.000         197.000
  12063182.79849   9399839.03045  22641772.614    22641771.550    22641785.317
       215.000         160.000
  -3897377.85849  -3020669.59445  22783087.473    22783086.738    22783105.225
       200.000         137.000
  -8857939.53849  -6875533.48747  20868931.319    20868930.656    20868941.419
       237.000         197.000
  -3214632.93549  -2491593.33844  23973174.137    23973173.953    23973192.359
       201.000         127.000
 00  5  3 17 54 59.9950000  0  9G16G30G 4G24G 5G 7G10G 9G 6
  -6829578.32449  -5307638.69445  23346293.080    23346292.684    23346304.639
       214.000         149.000
 -10978274.00749  -8537336.48646  22338165.251    22338165.617    22338180.854
       220.000         163.000
 -11346207.96149  -8818137.49747  19883297.281    19883297.084    19883307.107
       239.000         204.000
 -27933998.83149 -21749428.63147  18915498.137    18915497.722    18915507.878
       229.000         197.000
 -27742479.96449 -21604314.66247  19667079.210    19667078.575    19667088.965
       235.000         197.000
  12118541.70549   9442975.70545  22652307.168    22652306.053    22652319.882
       215.000         161.000
  -4008866.09149  -3107543.34245  22761871.822    22761871.078    22761889.589
       203.000         137.000
  -8800274.45349  -6830599.78547  20879904.694    20879904.053    20879914.825
       238.000         197.000
  -3300349.34349  -2558385.31444  23956862.823    23956862.577    23956880.974
       202.000         130.000
 00  5  3 17 55 29.9950000  0  9G16G30G 4G24G 5G 7G10G 9G 6
  -6801427.40849  -5285702.91345  23351650.387    23351649.685    23351661.712
       208.000         150.000
 -11088622.44249  -8623322.12546  22317166.553    22317166.862    22317182.092
       220.000         163.000
 -11291013.31949  -8775128.74847  19893800.526    19893800.306    19893810.366
       239.000         204.000
 -27955414.05949 -21766115.82347  18911422.973    18911422.541    18911432.703
       229.000         197.000
 -27810599.11349 -21657394.48947  19654116.575    19654115.915    19654126.292
       235.000         197.000
  12173952.45449   9486152.78445  22662851.637    22662850.446    22662864.346
       214.000         162.000
  -4120329.78449  -3194397.98745  22740660.812    22740660.194    22740678.581
       203.000         138.000
  -8742233.59149  -6785373.28047  20890949.653    20890948.960    20890959.733
       238.000         197.000
  -3386009.63749  -2625133.57344  23940562.172    23940561.856    23940580.257
       205.000         131.000
 00  5  3 17 55 59.9950000  0  9G16G30G 4G24G 5G 7G10G 9G 6
  -6772734.92049  -5263345.10545  23357110.275    23357109.575    23357121.510
       207.000         146.000
 -11198864.17449  -8709224.62346  22296188.151    22296188.439    22296203.661
       221.000         164.000
 -11235406.59149  -8731798.89247  19904382.179    19904381.958    19904392.052
       239.000         204.000
 -27976275.92849 -21782371.82547  18907453.095    18907452.679    18907462.835
       229.000         197.000
 -27878359.63549 -21710194.86547  19641222.142    19641221.483    19641231.869
       235.000         198.000
  12229421.90849   9529375.59145  22673407.177    22673405.966    22673419.970
       215.000         161.000
  -4231759.00349  -3281225.75945  22719456.427    22719455.825    22719474.167
       205.000         140.000
  -8683812.83349  -6739850.75147  20902066.896    20902066.149    20902076.926
       237.000         196.000
  -3471606.85849  -2691832.64945  23924273.547    23924273.252    23924291.741
       209.000         133.000
 00  5  3 17 56 29.9950000  0  9G16G30G 4G24G 5G 7G10G 9G 6
  -6743493.86149  -5240559.90145  23362674.532    23362673.864    23362685.960
       210.000         149.000
 -11308989.39249  -8795036.32946  22275231.878    22275232.174    22275247.404
       221.000         164.000
 -11179382.35149  -8688143.70847  19915043.278    19915043.055    19915053.195
       238.000         204.000
 -27996577.00249 -21798190.85147  18903589.947    18903589.505    18903599.672
       229.000         196.000
 -27945751.44349 -21762707.93547  19628397.891    19628397.230    19628407.614
       235.000         198.000
  12284958.30849   9572650.55745  22683975.480    22683974.266    22683988.321
       217.000         162.000
  -4343142.55649  -3368017.94345  22698260.836    22698260.132    22698278.368
       204.000         141.000
  -8625006.49449  -6694027.77747  20913257.452    20913256.733    20913267.500
       237.000         196.000
  -3557133.11649  -2758476.49245  23907998.412    23907998.138    23908016.566
       211.000         133.000
 00  5  3 17 56 59.9950000  0  9G16G30G 4G24G 5G 7G10G 9G 6
  -6713724.85049  -5217363.23545  23368339.295    23368338.627    23368350.747
       210.000         151.000
 -11419015.43649  -8880770.76146  22254294.449    22254294.800    22254309.988
       222.000         165.000
 -11122962.47149  -8644180.23347  19925779.654    19925779.440    19925789.613
       238.000         204.000
 -28016337.21549 -21813588.42647  18899829.703    18899829.253    18899839.436
       228.000         195.000
 -28012791.73549 -21814947.09447  19615640.543    19615639.873    19615650.241
       234.000         198.000
  12340542.39449   9615962.69245  22694552.892    22694551.681    22694565.740
       213.000         161.000
  -4454496.72649  -3454787.22545  22677070.645    22677070.111    22677088.178
       205.000         142.000
  -8565836.70949  -6647921.60547  20924517.176    20924516.453    20924527.247
       237.000         195.000
  -3642607.68749  -2825080.02945  23891733.161    23891732.810    23891751.171
       211.000         134.000
 00  5  3 17 57 29.9950000  0  9G16G30G 4G24G 5G 7G10G 9G 6
  -6683417.14449  -5193746.85045  23374106.999    23374106.203    23374118.161
       212.000         151.000
 -11528928.78249  -8966417.36646  22233378.580    22233378.873    22233394.029
       223.000         166.000
 -11066137.99249  -8599901.49047  19936593.026    19936592.816    19936603.013
       238.000         203.000
 -28035545.62549 -21828556.02947  18896174.424    18896174.003    18896184.199
       228.000         196.000
 -28079466.90049 -21866901.73947  19602952.650    19602951.982    19602962.344
       234.000         199.000
  12396185.66449   9659320.94145  22705141.610    22705140.351    22705154.392
       213.000         162.000
  -4565806.97349  -3541522.27645  22655888.880    22655888.317    22655906.375
       207.000         143.000
  -8506294.74149  -6601525.41947  20935847.727    20935847.010    20935857.820
       236.000         195.000
  -3728019.33149  -2891634.56245  23875479.775    23875479.430    23875497.765
       212.000         133.000
 00  5  3 17 57 59.9950000  0  9G16G30G 4G24G 5G 7G10G 9G 6
  -6652574.91749  -5169713.94645  23379976.137    23379975.341    23379987.298
       212.000         156.000
 -11638729.99449  -9051976.59746  22212484.043    22212484.313    22212499.412
       222.000         168.000
 -11008914.22749  -8555311.61647  19947482.407    19947482.178    19947492.401
       238.000         203.000
 -28054205.63149 -21843096.30247  18892623.528    18892623.125    18892633.295
       229.000         195.000
 -28145777.69849 -21918572.46247  19590334.081    19590333.428    19590343.802
       234.000         198.000
  12451885.40049   9702723.17545  22715741.068    22715739.796    22715753.803
       214.000         161.000
  -4677073.34149  -3628223.14745  22634715.514    22634714.948    22634732.870
       208.000         144.000
  -8446386.00149  -6554843.43647  20947248.065    20947247.364    20947258.197
       236.000         195.000
  -3813371.20749  -2958142.49945  23859237.782    23859237.396    23859255.745
       212.000         136.000
 00  5  3 17 58 29.9950000  0  9G16G30G 4G24G 5G 7G10G 9G 6
  -6621196.38549  -5145263.15145  23385947.438    23385946.400    23385958.434
       210.000         145.000
 -11748414.48549  -9137444.87546  22191611.745    22191611.934    22191626.999
       223.000         168.000
 -10951291.09449  -8510410.54647  19958447.745    19958447.526    19958457.793
       238.000         203.000
 -28072315.06549 -21857207.56247  18889177.423    18889177.000    18889187.175
       228.000         195.000
 -28211719.24649 -21969955.45647  19577785.815    19577785.141    19577795.520
       235.000         198.000
  12507644.43949   9746171.63945  22726351.797    22726350.504    22726364.540
       215.000         160.000
  -4788289.38449  -3714884.80945  22613551.609    22613551.104    22613569.028
       208.000         145.000
  -8386110.77149  -6507875.87947  20958718.156    20958717.448    20958728.320
       236.000         195.000
  -3898660.61249  -3024601.76145  23843007.683    23843007.400    23843025.681
       213.000         140.000
 00  5  3 17 58 59.9950000  0  9G16G30G 4G24G 5G 7G10G 9G 6
  -6589290.39049  -5120401.33945  23392018.863    23392017.935    23392030.081
       207.000         150.000
 -11857987.77149  -9222826.53046  22170760.572    22170760.728    22170775.726
       223.000         168.000
 -10893278.83149  -8465206.26447  19969487.169    19969486.927    19969497.227
       237.000         203.000
 -28089882.28849 -21870896.32047  18885834.512    18885834.077    18885844.233
       231.000         195.000
 -28277297.11549 -22021055.07047  19565306.734    19565306.056    19565316.427
       235.000         198.000
  12563455.20349   9789660.39945  22736972.279    22736971.046    22736985.091
       212.000         160.000
  -4899459.65549  -3801510.78945  22592396.471    22592395.957    22592413.844
       209.000         147.000
  -8325479.00449  -6460630.51047  20970256.112    20970255.390    20970266.282
       235.000         194.000
  -3983895.24949  -3091018.33645  23826788.082    23826787.815    23826806.009
       213.000         145.000
 00  5  3 17 59 29.9950000  0  9G16G30G 4G24G 5G 7G10G 9G 6
  -6556849.76849  -5095122.94345  23398192.133    23398191.124    23398203.138
       209.000         149.000
 -11967439.42849  -9308113.36846  22149932.461    22149932.644    22149947.611
       223.000         168.000
 -10834871.41149  -8419694.06247  19980601.792    19980601.547    19980611.851
       238.000         202.000
 -28106899.42049 -21884156.43847  18882596.260    18882595.829    18882605.982
       230.000         195.000
 -28342500.91049 -22071863.19947  19552898.860    19552898.171    19552908.528
       235.000         198.000
  12619326.05249   9833195.97545  22747604.248    22747602.999    22747617.095
       214.000         160.000
  -5010572.85249  -3888092.31245  22571252.189    22571251.670    22571269.537
       209.000         147.000
  -8264485.21849  -6413103.03347  20981862.938    20981862.224    20981873.144
       235.000         194.000
  -4069066.96049  -3157385.86045  23810580.436    23810580.133    23810598.333
       212.000         146.000
 00  5  3 17 59 59.9950000  0  9G16G30G 4G24G 5G 7G10G 9G 6
  -6523884.96649  -5069436.13745  23404464.935    23404464.184    23404476.231
       209.000         147.000
 -12076776.87449  -9393311.23946  22129126.109    22129126.315    22129141.192
       223.000         168.000
 -10776080.93449  -8373883.37747  19991789.315    19991789.056    19991799.365
       238.000         202.000
 -28123376.50849 -21896995.74347  18879460.763    18879460.352    18879470.501
       230.000         195.000
 -28407337.85749 -22122385.47347  19540560.815    19540560.086    19540570.435
       235.000         198.000
  12675247.83749   9876771.25245  22758245.906    22758244.661    22758258.807
       212.000         159.000
  -5121635.13849  -3974634.18045  22550117.622    22550117.063    22550134.976
       210.000         148.000
  -8203141.67249  -6365303.02747  20993536.313    20993535.609    20993546.567
       235.000         194.000
  -4154185.16649  -3223711.69545  23794382.971    23794382.638    23794400.811
       213.000         149.000
 00  5  3 18  0 29.9950000  0  9G16G30G 4G24G 5G 7G10G 9G 6
  -6490388.93149  -5043335.26145  23410839.312    23410838.405    23410850.256
       205.000         152.000
 -12185989.44849  -9478411.78646  22108343.474    22108343.729    22108358.574
       223.000         166.000
 -10716901.63549  -8327769.71447  20003050.823    20003050.566    20003060.883
       238.000         202.000
 -28139305.86949 -21909408.24947  18876429.543    18876429.107    18876439.239
       230.000         195.000
 -28471797.54949 -22172613.78147  19528294.514    19528293.789    19528304.127
       235.000         198.000
  12731229.01349   9920392.79445  22768898.879    22768897.609    22768911.828
       213.000         159.000
  -5232634.99449  -4061127.40145  22528994.967    22528994.403    22529012.200
       209.000         149.000
  -8141442.36649  -6317225.80547  21005277.389    21005276.697    21005287.698
       235.000         194.000
  -4239241.65949  -3289989.43545  23778197.124    23778196.889    23778215.073
       211.000         151.000
 00  5  3 18  0 59.9950000  0  9G16G30G 4G24G 5G 7G10G 9G 6
  -6456374.36849  -5016830.46245  23417312.194    23417311.217    23417323.035
       210.000         150.000
 -12295086.79549  -9563422.57046  22087582.771    22087583.050    22087597.840
       221.000         166.000
 -10657347.63649  -8281364.07947  20014383.657    20014383.377    20014393.706
       238.000         203.000
 -28154700.11649 -21921403.79247  18873500.143    18873499.691    18873509.822
       230.000         196.000
 -28535889.42849 -22222555.48547  19516098.216    19516097.488    19516107.819
       234.000         198.000
  12787257.88149   9964051.49145  22779560.916    22779559.683    22779573.907
       213.000         160.000
  -5343580.94749  -4147578.63245  22507882.493    22507881.945    22507899.679
       209.000         150.000
  -8079401.74249  -6268882.61947  21017083.452    21017082.723    21017093.786
       235.000         194.000
  -4324248.23749  -3356228.26945  23762020.824    23762020.637    23762038.855
       212.000         153.000
 00  5  3 18  1 29.9950000  0  9G16G30G 4G24G 5G 7G10G 9G 6
  -6421838.52849  -4989919.48845  23423884.011    23423883.108    23423895.161
       212.000         155.000
 -12404062.91849  -9648338.88746  22066845.118    22066845.499    22066860.182
       220.000         165.000
 -10597417.51849  -8234665.36747  20025788.072    20025787.777    20025798.111
       238.000         203.000
 -28169555.63149 -21932979.53747  18870673.281    18870672.819    18870682.940
       230.000         196.000
 -28599607.36949 -22272205.81147  19503973.064    19503972.359    19503982.651
       235.000         198.000
  12843338.78649  10007750.76845  22790232.879    22790231.632    22790245.911
       214.000         157.000
  -5454465.88249  -4233982.32645  22486781.713    22486781.100    22486798.806
       209.000         151.000
  -8017018.25849  -6220272.27247  21028954.756    21028954.009    21028965.128
       234.000         194.000
  -4409200.79549  -3422425.00445  23745854.854    23745854.678    23745872.890
       211.000         153.000
 00  5  3 18  1 59.9950000  0  9G16G30G 4G24G 5G 7G10G 9G 6
  -6386791.06749  -4962609.77545  23430553.062    23430552.324    23430564.472
       207.000         147.000
 -12512923.94949  -9733165.49446  22046129.421    22046129.800    22046144.435
       222.000         167.000
 -10537122.22549  -8187682.10147  20037261.958    20037261.665    20037272.018
       238.000         203.000
 -28183881.77349 -21944142.78747  18867947.104    18867946.661    18867956.790
       230.000         195.000
 -28662957.73449 -22321569.71347  19491917.879    19491917.166    19491927.461
       235.000         198.000
  12899463.37149  10051484.05745  22800913.104    22800911.854    22800926.177
       212.000         157.000
  -5565295.25049  -4320342.71745  22465691.492    22465690.911    22465708.541
       210.000         151.000
  -7954303.51649  -6171403.79947  21040889.081    21040888.323    21040899.503
       234.000         194.000
  -4494107.96449  -3488586.37745  23729697.498    23729697.330    23729715.604
       211.000         153.000
